[[{"header":{"parameterUnit":"m.s-1","parameterCategory":1,"la1":30.6,"la2":29.2853,"lo1":-89.7004,"lo2":-87.6739,"dy":0.0162,"dx":0.0183,"nx":112,"ny":82,"refTime":"2024-05-23T06:00:00:Z","depth":0,"parameterNumber":2,"parameterNumberName":"U-component_of_WINDS"},"data":[0.0,0.0,0.0,0.0,0.0,0.0,0.0,0.0,0.0,0.0,0.0,0.0,0.0,0.0,0.0,0.0,0.0,0.0,0.0,0.0,0.0,0.0,0.0,0.0,0.0,0.0,0.0,0.0,0.0,0.0,0.0,0.0,0.0,0.0,0.0,0.0,0.0,0.0,0.0,0.0,0.0,0.0,0.0,0.0,0.0,0.0,0.0,0.0,0.0,0.0,0.0,0.0,0.0,0.0,0.0,0.0,0.0,0.0,0.0,0.0,0.0,0.0,0.0,0.0,0.0,0.0,0.0,0.0,0.0,0.0,0.0,0.0,0.0,0.0,0.0,0.0,0.0,0.0,0.0,0.0,0.0,0.0,0.0,0.0,0.0,0.0,0.0,0.0,0.0,0.0,0.0,-3.9804,-4.3401,-4.5648,-4.5783,-4.4985,-4.2644,-3.8369,0.0,0.0,0.0,0.0,0.0,0.0,0.0,0.0,0.0,0.0,0.0,0.0,0.0,0.0,0.0,0.0,0.0,0.0,0.0,0.0,0.0,0.0,0.0,0.0,0.0,0.0,0.0,0.0,0.0,0.0,0.0,0.0,0.0,0.0,0.0,0.0,0.0,0.0,0.0,0.0,0.0,0.0,0.0,0.0,0.0,0.0,0.0,0.0,0.0,0.0,0.0,0.0,0.0,0.0,0.0,0.0,0.0,0.0,0.0,0.0,0.0,0.0,0.0,0.0,0.0,0.0,0.0,0.0,0.0,0.0,0.0,0.0,0.0,0.0,0.0,0.0,0.0,0.0,0.0,0.0,0.0,0.0,0.0,0.0,0.0,0.0,0.0,0.0,0.0,0.0,0.0,0.0,0.0,0.0,0.0,0.0,0.0,0.0,0.0,0.0,0.0,0.0,0.0,0.0,-3.6873,-4.2893,-4.4786,-4.5648,-4.5783,-4.4343,-4.1643,-3.7456,0.0,0.0,0.0,0.0,0.0,0.0,0.0,0.0,0.0,0.0,0.0,0.0,0.0,0.0,0.0,0.0,0.0,0.0,0.0,0.0,0.0,0.0,0.0,0.0,0.0,0.0,0.0,0.0,0.0,0.0,0.0,0.0,0.0,0.0,0.0,0.0,0.0,0.0,0.0,0.0,0.0,0.0,0.0,0.0,0.0,0.0,0.0,0.0,0.0,0.0,0.0,0.0,0.0,0.0,0.0,0.0,0.0,0.0,0.0,0.0,0.0,0.0,0.0,0.0,0.0,0.0,0.0,0.0,0.0,0.0,0.0,0.0,0.0,0.0,0.0,0.0,0.0,0.0,0.0,0.0,0.0,0.0,0.0,0.0,0.0,0.0,0.0,0.0,0.0,0.0,0.0,0.0,0.0,0.0,0.0,0.0,0.0,0.0,0.0,0.0,0.0,0.0,0.0,-3.5869,-3.8507,-4.4382,-4.5433,-4.5749,-4.5859,-4.4355,-4.1623,-3.7425,-3.5145,0.0,0.0,0.0,0.0,0.0,0.0,0.0,0.0,0.0,0.0,0.0,0.0,0.0,0.0,0.0,0.0,0.0,0.0,0.0,0.0,0.0,0.0,0.0,0.0,0.0,0.0,0.0,0.0,0.0,0.0,0.0,0.0,0.0,0.0,0.0,0.0,0.0,0.0,0.0,0.0,0.0,0.0,0.0,0.0,0.0,0.0,0.0,0.0,0.0,0.0,0.0,0.0,0.0,0.0,0.0,0.0,0.0,0.0,0.0,0.0,0.0,0.0,0.0,0.0,0.0,0.0,0.0,0.0,0.0,0.0,0.0,0.0,0.0,0.0,0.0,0.0,0.0,0.0,0.0,0.0,0.0,0.0,0.0,0.0,0.0,0.0,0.0,0.0,0.0,0.0,0.0,0.0,0.0,0.0,0.0,0.0,0.0,0.0,0.0,0.0,0.0,0.0,-3.8873,-4.0858,-4.5189,-4.5733,-4.5766,-4.5652,-4.3811,-4.0971,-3.6933,-3.3867,0.0,0.0,0.0,0.0,0.0,0.0,0.0,0.0,0.0,0.0,0.0,0.0,0.0,0.0,0.0,0.0,0.0,0.0,0.0,0.0,0.0,0.0,0.0,0.0,0.0,0.0,0.0,0.0,0.0,0.0,0.0,0.0,0.0,0.0,0.0,0.0,0.0,0.0,0.0,0.0,0.0,0.0,0.0,0.0,0.0,0.0,0.0,0.0,0.0,0.0,0.0,0.0,0.0,0.0,0.0,0.0,0.0,0.0,0.0,0.0,0.0,0.0,0.0,0.0,0.0,0.0,0.0,0.0,0.0,0.0,0.0,0.0,0.0,0.0,0.0,0.0,0.0,0.0,0.0,0.0,0.0,0.0,0.0,0.0,0.0,0.0,0.0,0.0,0.0,0.0,0.0,0.0,0.0,0.0,0.0,0.0,0.0,0.0,0.0,0.0,0.0,0.0,-3.9854,-4.3512,-4.5569,-4.579,-4.5553,-4.4938,-4.1863,-3.8528,-3.5097,-3.0976,0.0,0.0,0.0,0.0,0.0,0.0,0.0,0.0,0.0,0.0,0.0,0.0,0.0,0.0,0.0,0.0,0.0,0.0,0.0,0.0,0.0,0.0,0.0,0.0,0.0,0.0,0.0,0.0,0.0,0.0,0.0,0.0,0.0,0.0,0.0,0.0,0.0,0.0,0.0,0.0,0.0,0.0,0.0,0.0,0.0,0.0,0.0,0.0,0.0,0.0,0.0,0.0,0.0,0.0,0.0,0.0,0.0,0.0,0.0,0.0,0.0,0.0,0.0,0.0,0.0,0.0,0.0,0.0,0.0,0.0,0.0,0.0,0.0,0.0,0.0,0.0,0.0,0.0,0.0,0.0,0.0,0.0,0.0,0.0,0.0,0.0,0.0,0.0,0.0,0.0,0.0,0.0,0.0,0.0,0.0,0.0,0.0,0.0,0.0,0.0,0.0,0.0,-3.7823,-4.1313,0.0,-4.5585,-4.5657,-4.4872,-4.2698,-3.9469,-3.498,0.0,0.0,0.0,0.0,0.0,0.0,0.0,0.0,0.0,0.0,0.0,0.0,0.0,0.0,0.0,0.0,0.0,0.0,0.0,0.0,0.0,0.0,0.0,0.0,0.0,0.0,0.0,0.0,0.0,0.0,0.0,0.0,0.0,0.0,0.0,0.0,0.0,0.0,0.0,0.0,0.0,0.0,0.0,0.0,0.0,0.0,0.0,0.0,0.0,0.0,0.0,0.0,0.0,0.0,0.0,0.0,0.0,0.0,0.0,0.0,0.0,0.0,0.0,0.0,0.0,0.0,0.0,0.0,0.0,0.0,0.0,0.0,0.0,0.0,0.0,0.0,0.0,0.0,0.0,0.0,0.0,0.0,0.0,0.0,0.0,0.0,0.0,0.0,0.0,0.0,0.0,0.0,0.0,0.0,0.0,0.0,0.0,0.0,0.0,0.0,0.0,0.0,-3.3785,-3.7265,-4.0629,0.0,-4.5092,-4.5139,-4.3767,-4.1637,-3.8516,-3.418,0.0,0.0,0.0,0.0,0.0,0.0,0.0,0.0,0.0,0.0,0.0,0.0,0.0,0.0,0.0,0.0,0.0,0.0,0.0,0.0,0.0,0.0,0.0,0.0,0.0,0.0,0.0,0.0,0.0,0.0,0.0,0.0,0.0,0.0,0.0,0.0,0.0,0.0,0.0,0.0,0.0,0.0,0.0,0.0,0.0,0.0,0.0,0.0,0.0,0.0,0.0,0.0,0.0,0.0,0.0,0.0,0.0,0.0,0.0,0.0,0.0,0.0,0.0,0.0,0.0,0.0,0.0,0.0,0.0,0.0,0.0,0.0,0.0,0.0,0.0,0.0,0.0,0.0,0.0,0.0,0.0,0.0,0.0,0.0,0.0,0.0,0.0,0.0,0.0,0.0,0.0,0.0,0.0,0.0,0.0,0.0,0.0,0.0,0.0,0.0,0.0,0.0,-3.4049,-3.8831,-4.2398,-4.3478,-4.4311,-4.3805,-4.1406,-3.8027,-3.4922,0.0,0.0,0.0,0.0,0.0,0.0,0.0,0.0,0.0,0.0,0.0,0.0,0.0,0.0,0.0,0.0,0.0,0.0,0.0,0.0,0.0,0.0,0.0,0.0,0.0,0.0,0.0,0.0,0.0,0.0,0.0,0.0,0.0,0.0,0.0,0.0,0.0,0.0,0.0,0.0,0.0,0.0,0.0,0.0,0.0,0.0,0.0,0.0,0.0,0.0,0.0,0.0,0.0,0.0,0.0,0.0,0.0,0.0,0.0,0.0,0.0,0.0,0.0,0.0,0.0,0.0,0.0,0.0,0.0,0.0,0.0,0.0,0.0,0.0,0.0,0.0,0.0,0.0,0.0,0.0,0.0,0.0,0.0,0.0,0.0,0.0,0.0,0.0,0.0,0.0,0.0,0.0,0.0,0.0,0.0,0.0,0.0,0.0,0.0,0.0,0.0,0.0,0.0,-3.3216,-3.7518,-4.0924,-4.2512,-4.3482,-4.326,-4.1367,-3.9121,-3.6211,-3.2441,0.0,0.0,0.0,0.0,0.0,0.0,0.0,0.0,0.0,0.0,0.0,0.0,0.0,0.0,0.0,0.0,0.0,0.0,0.0,0.0,0.0,0.0,0.0,0.0,0.0,0.0,0.0,0.0,0.0,0.0,0.0,0.0,0.0,0.0,0.0,0.0,0.0,0.0,0.0,0.0,0.0,0.0,0.0,0.0,0.0,0.0,0.0,0.0,0.0,0.0,0.0,0.0,0.0,0.0,0.0,0.0,0.0,0.0,0.0,0.0,0.0,0.0,0.0,0.0,0.0,0.0,0.0,0.0,0.0,0.0,0.0,0.0,0.0,0.0,0.0,0.0,0.0,0.0,0.0,0.0,0.0,0.0,0.0,0.0,0.0,0.0,0.0,0.0,0.0,0.0,0.0,0.0,0.0,0.0,0.0,0.0,0.0,0.0,0.0,0.0,0.0,0.0,-3.2896,-3.7006,-4.0216,-4.1702,-4.2654,-4.2363,-4.0332,-3.8555,-3.5879,-3.1934,0.0,0.0,0.0,0.0,0.0,0.0,0.0,0.0,0.0,0.0,0.0,0.0,0.0,0.0,0.0,0.0,0.0,0.0,0.0,0.0,0.0,0.0,0.0,0.0,0.0,0.0,0.0,0.0,0.0,0.0,0.0,0.0,0.0,0.0,0.0,0.0,0.0,0.0,0.0,0.0,0.0,0.0,0.0,0.0,0.0,0.0,0.0,0.0,0.0,0.0,0.0,0.0,0.0,0.0,0.0,0.0,0.0,0.0,0.0,0.0,0.0,0.0,0.0,0.0,0.0,0.0,0.0,0.0,0.0,0.0,0.0,0.0,0.0,0.0,0.0,0.0,0.0,0.0,0.0,0.0,0.0,0.0,0.0,0.0,0.0,0.0,0.0,0.0,0.0,0.0,0.0,0.0,0.0,0.0,0.0,0.0,0.0,0.0,0.0,0.0,0.0,0.0,-3.2968,-3.702,-4.0002,-4.1074,-4.1855,-4.1289,-3.8809,-3.707,-3.4668,-3.123,0.0,0.0,0.0,0.0,0.0,0.0,0.0,0.0,0.0,0.0,0.0,0.0,0.0,0.0,0.0,0.0,0.0,0.0,0.0,0.0,0.0,0.0,0.0,0.0,0.0,0.0,0.0,0.0,0.0,0.0,0.0,0.0,0.0,0.0,0.0,0.0,0.0,0.0,0.0,0.0,0.0,0.0,0.0,0.0,0.0,0.0,0.0,0.0,0.0,0.0,0.0,0.0,0.0,0.0,0.0,0.0,0.0,0.0,0.0,0.0,-3.6411,0.0,0.0,0.0,0.0,0.0,0.0,0.0,0.0,0.0,0.0,0.0,0.0,0.0,0.0,0.0,0.0,0.0,0.0,0.0,0.0,0.0,0.0,0.0,0.0,0.0,0.0,0.0,0.0,0.0,0.0,0.0,0.0,0.0,0.0,0.0,0.0,0.0,0.0,0.0,0.0,0.0,-3.3027,-3.6491,-3.9337,-4.1015,-4.1348,-4.0684,-3.8769,-3.7637,-3.5566,-3.2148,0.0,0.0,0.0,0.0,0.0,0.0,0.0,0.0,0.0,0.0,0.0,0.0,0.0,0.0,0.0,0.0,0.0,0.0,0.0,0.0,0.0,0.0,0.0,0.0,0.0,0.0,0.0,0.0,0.0,0.0,0.0,0.0,0.0,0.0,0.0,0.0,0.0,0.0,0.0,0.0,0.0,0.0,0.0,0.0,0.0,0.0,0.0,0.0,0.0,0.0,0.0,0.0,0.0,0.0,0.0,0.0,0.0,0.0,0.0,0.0,0.0,-3.818,0.0,0.0,0.0,0.0,0.0,0.0,0.0,0.0,0.0,0.0,0.0,0.0,0.0,0.0,0.0,0.0,0.0,0.0,0.0,0.0,0.0,0.0,0.0,0.0,0.0,0.0,0.0,0.0,0.0,0.0,0.0,0.0,0.0,0.0,0.0,0.0,0.0,0.0,0.0,0.0,-3.3066,-3.6384,-3.9195,-4.1016,-4.082,-4.0039,-3.8711,-3.7422,-3.5391,-3.2383,-2.9746,0.0,0.0,0.0,0.0,0.0,0.0,0.0,0.0,0.0,0.0,0.0,0.0,0.0,0.0,0.0,0.0,0.0,0.0,0.0,0.0,0.0,0.0,0.0,0.0,0.0,0.0,0.0,0.0,0.0,0.0,0.0,0.0,0.0,0.0,0.0,0.0,0.0,0.0,0.0,0.0,0.0,0.0,0.0,0.0,0.0,0.0,0.0,0.0,0.0,0.0,0.0,0.0,0.0,0.0,0.0,-4.899,-4.8836,-4.8702,-4.8279,-4.3393,-4.1643,-4.2008,0.0,0.0,0.0,0.0,0.0,0.0,0.0,0.0,0.0,0.0,0.0,0.0,0.0,0.0,0.0,0.0,0.0,0.0,0.0,0.0,0.0,0.0,0.0,0.0,0.0,-3.7695,-3.8066,0.0,0.0,0.0,0.0,0.0,0.0,0.0,0.0,0.0,0.0,0.0,0.0,-3.3301,-3.6543,-3.9219,-4.0801,-4.0332,-3.9492,-3.8457,-3.7051,-3.5137,-3.2578,-3.0254,-2.7812,0.0,0.0,0.0,0.0,0.0,0.0,0.0,0.0,0.0,0.0,0.0,0.0,0.0,0.0,0.0,0.0,0.0,0.0,0.0,0.0,0.0,0.0,0.0,0.0,0.0,0.0,0.0,0.0,0.0,0.0,0.0,0.0,-3.9195,-3.9876,0.0,0.0,0.0,0.0,0.0,0.0,0.0,0.0,0.0,0.0,0.0,0.0,0.0,0.0,-4.9846,-5.2049,-5.326,-5.3491,-5.3491,-5.3164,-5.251,-5.1731,-5.1029,-5.0308,-4.9538,0.0,-4.3874,-4.2739,0.0,0.0,0.0,0.0,0.0,0.0,0.0,0.0,0.0,0.0,0.0,0.0,0.0,0.0,0.0,0.0,0.0,0.0,0.0,0.0,0.0,0.0,-4.1523,-4.1406,-4.1641,-4.1523,0.0,-3.6367,-3.2637,-3.0605,0.0,0.0,0.0,0.0,0.0,0.0,0.0,0.0,-3.4199,-3.6914,-3.8984,-3.9961,-3.9961,-3.9238,-3.7617,-3.7266,-3.6016,-3.3418,-3.2266,-3.0508,-2.7891,-2.5508,0.0,0.0,0.0,0.0,0.0,0.0,0.0,0.0,0.0,0.0,0.0,0.0,0.0,0.0,0.0,0.0,0.0,0.0,0.0,0.0,0.0,0.0,0.0,0.0,0.0,0.0,0.0,0.0,0.0,-3.9267,-4.1882,-4.1638,-4.2126,-4.1897,0.0,0.0,0.0,0.0,0.0,0.0,0.0,0.0,0.0,-5.0529,-5.1683,-5.2895,-5.4232,-5.5348,-5.6145,-5.6646,-5.6646,-5.6434,-5.6049,-5.5164,-5.4299,-5.3472,-5.3029,-5.1202,-4.8413,-4.6163,-4.4066,-4.2008,0.0,0.0,0.0,0.0,0.0,-3.7399,-3.9662,0.0,0.0,0.0,0.0,0.0,0.0,0.0,0.0,0.0,0.0,0.0,0.0,0.0,0.0,-4.373,-4.4238,-4.4355,-4.3516,-4.1152,-3.8105,0.0,-3.3555,-3.2187,-2.8516,0.0,0.0,0.0,0.0,0.0,-3.5215,-3.7285,-3.8926,-3.9805,-3.9023,-3.8125,-3.7363,-3.6406,-3.5137,-3.3496,-3.2187,-3.0742,-2.9101,-2.6992,-2.5059,0.0,0.0,0.0,0.0,0.0,0.0,0.0,0.0,0.0,0.0,0.0,0.0,0.0,0.0,0.0,0.0,0.0,0.0,0.0,0.0,0.0,0.0,0.0,0.0,0.0,0.0,0.0,0.0,-4.1964,-4.4421,-4.3577,-4.5517,-4.5761,0.0,0.0,0.0,0.0,0.0,0.0,-5.151,-5.1866,-5.2963,-5.5068,-5.5549,-5.6376,-5.7627,-5.7868,-5.83,-5.8934,-5.8704,-5.8607,-5.8588,-5.7723,-5.6857,-5.5992,-5.5395,-5.4164,-5.2308,-4.9183,-4.7221,-4.597,-4.3201,-4.1997,0.0,-4.2055,-4.1631,-4.1304,-4.4028,-4.4278,-4.322,-4.2151,0.0,-4.0377,-3.7926,0.0,0.0,0.0,0.0,-3.9777,-4.1621,0.0,-4.4168,-4.5027,-4.5755,-4.6071,-4.5427,-4.4628,-4.2695,0.0,-3.748,-3.6269,-3.1973,0.0,0.0,0.0,0.0,-3.543,-3.6523,-3.7793,-3.8848,-3.9492,-3.8203,-3.7207,-3.6992,-3.5566,-3.4336,-3.3457,-3.2031,-3.0742,-2.9648,-2.8144,-2.6504,-2.4766,0.0,0.0,0.0,0.0,0.0,0.0,0.0,0.0,0.0,0.0,0.0,0.0,0.0,0.0,0.0,0.0,0.0,0.0,0.0,0.0,0.0,0.0,0.0,0.0,0.0,0.0,0.0,0.0,0.0,-4.6256,-4.9498,0.0,0.0,0.0,0.0,-5.0404,-5.1885,-5.325,-5.4241,-5.503,-5.5876,-5.6849,-5.8415,-5.93,-5.9377,-6.0204,-6.0627,-6.0666,-5.9838,-5.9435,-5.9415,-5.8607,-5.7761,-5.6926,-5.6887,-5.5925,-5.4164,-5.1568,-4.951,-4.7875,-4.6951,-4.6067,-4.5441,-4.6278,-4.6028,-4.5441,-4.6413,-4.5663,-4.4355,-4.5094,-4.3701,-4.17,-4.1527,-4.0421,0.0,0.0,-4.115,-4.2322,-4.4074,-4.4584,-4.4861,-4.5663,-4.5988,-4.6093,-4.6054,-4.546,-4.4141,0.0,-3.9648,-3.793,-3.6016,0.0,0.0,-3.4394,-3.5273,-3.6543,-3.8242,-3.8555,-3.8613,-3.8652,-3.7851,-3.6953,-3.6133,-3.5234,-3.4336,-3.3457,-3.2598,-3.1367,-2.9668,-2.8711,-2.7402,-2.5664,-2.3984,0.0,0.0,0.0,0.0,0.0,0.0,0.0,0.0,0.0,0.0,0.0,0.0,0.0,0.0,0.0,0.0,0.0,0.0,0.0,0.0,0.0,0.0,0.0,0.0,0.0,0.0,0.0,0.0,-4.8817,-5.1665,0.0,-5.0198,-5.1827,-5.3283,-5.3865,-5.4991,-5.6242,-5.7646,-5.7992,-5.8531,-5.9415,-6.0031,-6.0339,-6.0339,-6.0646,-6.08,-6.08,-6.0492,-6.0339,-6.03,-5.9454,-5.8627,-5.7819,-5.7253,-5.6349,-5.5164,-5.3722,-5.2125,-5.0462,-4.9663,-4.8798,-4.8009,-4.7759,-4.749,-4.7182,-4.6971,-4.649,-4.5932,-4.5691,-4.4998,-4.4143,-4.3585,-4.3404,-4.3366,-4.3189,-4.38,-4.4633,-4.5293,-4.5471,-4.5549,-4.5821,-4.5932,-4.5978,-4.5978,-4.5824,-4.5275,-4.3809,-4.2183,-4.0332,-3.8066,-3.7871,-3.748,-3.5781,-3.7226,-3.873,-3.9355,-3.8945,-3.8594,-3.8594,-3.7324,-3.6113,-3.5234,-3.4355,-3.3262,-3.1875,-3.0996,-3.0,-2.8809,-2.793,-2.7168,-2.6543,-2.4844,-2.2832,0.0,0.0,0.0,0.0,0.0,0.0,0.0,0.0,0.0,0.0,0.0,0.0,0.0,0.0,0.0,0.0,0.0,0.0,0.0,0.0,0.0,0.0,0.0,0.0,0.0,0.0,-5.1317,-5.0949,-5.4015,-5.529,-5.3062,-5.4752,-5.6263,-5.6931,-5.778,-5.8761,-5.9877,-5.9935,-6.0204,-6.0781,-6.08,-6.08,-6.08,-6.08,-6.08,-6.08,-6.08,-6.08,-6.0781,-6.0204,-5.9492,-5.8665,-5.78,-5.6934,-5.6069,-5.5241,-5.4068,-5.2683,-5.1548,-5.0741,-5.0144,-4.9298,-4.8798,-4.8375,-4.7278,-4.6904,-4.6759,-4.5874,-4.5594,-4.5498,-4.4913,-4.5152,-4.5505,-4.5012,-4.5281,-4.5735,-4.5795,-4.5799,-4.5799,-4.5799,-4.582,-4.5876,-4.5876,-4.5952,-4.5886,-4.5343,-4.3936,-4.2207,-4.0215,-4.0137,-3.9746,-3.8027,-3.9238,-4.0332,-4.0332,-3.9316,-3.8594,-3.8594,-3.7031,-3.5644,-3.4766,-3.3652,-3.2519,-3.1406,-2.9961,-2.9023,-2.875,-2.7617,-2.6992,-2.6992,-2.5019,-2.3301,-2.1894,0.0,0.0,0.0,0.0,0.0,0.0,0.0,0.0,0.0,0.0,0.0,0.0,0.0,0.0,0.0,0.0,0.0,0.0,0.0,0.0,0.0,0.0,0.0,-4.7787,-5.1373,-5.3628,-5.2735,-5.6626,-5.8125,-5.4966,-5.7954,-5.9934,-5.9565,-6.0319,-6.08,-6.08,-6.08,-6.08,-6.08,-6.08,-6.08,-6.08,-6.08,-6.08,-6.08,-6.08,-6.08,-6.08,-6.08,-6.0319,-5.9454,-5.8684,-5.7838,-5.6926,-5.6088,-5.5261,-5.4357,-5.2615,-5.1923,-5.1788,-5.0991,-5.0144,-4.9163,-4.7548,-4.6942,-4.6759,-4.5913,-4.5614,-4.5594,-4.5594,-4.5594,-4.5594,-4.5594,-4.5594,-4.5594,-4.5594,-4.5594,-4.5594,-4.5594,-4.57,-4.579,-4.579,-4.5839,-4.5948,-4.6075,-4.4813,-4.3457,-4.2598,-4.1758,-4.1191,-4.1191,-4.1191,0.0,-4.1191,-3.9687,-3.8594,-3.8594,-3.7031,-3.5644,-3.4766,-3.3184,-3.2207,-3.2129,-2.9726,-2.8672,-2.9492,-2.7871,-2.6953,-2.6953,-2.4512,-2.2812,-2.1934,0.0,0.0,0.0,0.0,0.0,0.0,0.0,0.0,0.0,0.0,0.0,0.0,0.0,0.0,0.0,0.0,0.0,0.0,0.0,0.0,0.0,0.0,-5.0697,-5.0798,-5.3306,-5.5241,-5.5567,-5.755,-5.8672,-5.8108,-5.9288,-6.0201,-6.0431,-6.0666,-6.08,-6.08,-6.08,-6.08,-6.08,-6.08,-6.08,-6.08,-6.08,-6.08,-6.08,-6.08,-6.08,-6.08,-6.08,-6.0319,-5.9492,-5.9281,-5.8338,-5.6983,-5.6753,-5.6137,-5.5203,-5.351,-5.2462,-5.1788,-5.0991,-5.0144,-4.9336,-4.8875,-4.7913,-4.6846,-4.6624,-4.6124,-4.5594,-4.5594,-4.5594,-4.5594,-4.5594,-4.5594,-4.5594,-4.5594,-4.5594,-4.5594,-4.5594,-4.5618,-4.5648,-4.5648,-4.5749,-4.5853,-4.5944,-4.5172,-4.4243,-4.3476,-4.2148,-4.1191,-4.1191,0.0,0.0,-4.1191,-3.9687,-3.8594,-3.8594,-3.7031,-3.5644,-3.4766,-3.3691,-3.2285,0.0,-2.9043,-2.8125,-2.7734,-2.6641,-2.6055,-2.6055,-2.4746,-2.3633,0.0,0.0,0.0,0.0,0.0,0.0,0.0,0.0,0.0,0.0,0.0,0.0,0.0,0.0,0.0,0.0,0.0,0.0,0.0,0.0,0.0,0.0,-5.1298,-5.3628,-5.3959,-5.5225,-5.64,-5.7207,-5.8257,-5.9175,-5.9865,-6.0497,-6.1137,-6.1803,-6.1858,-6.1858,-6.1858,-6.1858,-6.1685,-6.1358,-6.1351,-6.1166,-6.08,-6.08,-6.08,-6.08,-6.08,-6.08,-6.08,-6.08,-6.0512,0.0,-5.9665,-5.8761,-5.7511,-5.7157,-5.6503,0.0,0.0,0.0,0.0,0.0,-5.0385,-4.9894,-4.9529,-4.8759,-4.7836,-4.7135,-4.6567,-4.6086,-4.571,-4.5594,-4.5594,-4.5594,-4.5594,-4.5594,-4.5594,-4.5594,-4.5594,-4.5594,-4.5594,-4.5594,-4.5594,-4.5657,-4.5742,-4.5828,0.0,0.0,-4.3796,-4.2576,-4.1582,-4.125,-4.1191,-4.1191,0.0,-4.0,-3.9004,-3.8633,-3.7363,-3.6035,-3.4805,-3.3594,0.0,0.0,0.0,-2.791,-2.7031,-2.6504,0.0,0.0,0.0,0.0,0.0,0.0,0.0,0.0,-2.3105,-2.3261,0.0,0.0,0.0,0.0,0.0,0.0,0.0,0.0,0.0,0.0,0.0,0.0,0.0,0.0,0.0,0.0,-5.4216,-5.6014,-5.6822,-5.695,-5.7207,-5.7923,-5.8712,-5.9593,-6.06,-6.1426,-6.2297,-6.322,-6.3288,-6.3288,-6.3288,0.0,0.0,0.0,0.0,-6.1735,-6.0954,-6.0839,-6.08,-6.08,-6.08,-6.08,-6.08,-6.08,-6.08,-6.0762,-5.9973,-5.9127,-5.8242,-5.7473,-5.6579,-5.5607,-5.4703,-5.3818,-5.2856,-5.1279,-5.0712,0.0,0.0,0.0,0.0,-4.7682,-4.7038,-4.6759,-4.597,-4.5691,-4.5594,-4.5594,-4.5594,-4.5594,-4.5594,-4.5594,-4.5594,-4.5594,-4.5594,-4.5594,-4.5594,-4.5594,-4.5643,-4.5763,-4.5265,-4.4588,-4.3868,-4.2998,-4.2129,-4.1328,-4.1191,0.0,-4.1191,-4.0449,-3.957,-3.8691,0.0,0.0,-3.498,-3.3398,-3.2402,-3.2207,-2.9844,-2.8066,-2.7187,-2.7246,-2.7246,-2.7148,-2.7148,-2.7539,-2.8301,-2.8301,-2.8359,-2.8379,-2.5234,-2.498,0.0,0.0,0.0,0.0,0.0,0.0,0.0,0.0,0.0,0.0,0.0,0.0,0.0,0.0,0.0,-5.361,-5.5427,-5.6859,-5.7648,-5.7776,-5.7831,-5.7978,-5.8712,-5.9593,-6.06,-6.1426,-6.2297,-6.322,-6.3288,-6.3288,-6.3288,-6.3288,0.0,-6.307,-6.2435,-6.2024,-6.1851,-6.1146,-6.08,-6.08,0.0,0.0,-6.08,-6.08,-6.08,-6.0781,-6.0608,-5.9685,-5.83,-5.8127,-5.7126,-5.5549,-5.4049,-5.2933,-5.2019,-5.1048,-5.0712,-5.0673,-5.0519,-4.999,-4.9356,-4.9029,-4.8009,-4.6865,-4.6701,-4.6163,0.0,-4.5594,-4.5594,-4.5594,-4.5594,-4.5594,-4.5594,-4.5594,-4.5594,-4.5594,-4.5594,-4.5594,-4.5643,-4.5763,-4.5686,-4.5364,-4.4679,-4.335,-4.2129,-4.1328,-4.1191,-4.1191,-4.1191,-4.0449,-3.957,-3.8691,-3.7812,-3.6875,-3.584,-3.4805,-3.3633,-3.2285,-3.041,-2.8965,-2.8086,-2.8711,-2.8769,-2.8066,-2.8047,-2.8125,-2.8301,-2.8301,-2.8652,-2.9316,-2.7949,-2.7578,0.0,0.0,0.0,0.0,0.0,0.0,0.0,0.0,0.0,0.0,0.0,-4.8967,0.0,0.0,-5.4326,-5.5941,-5.6877,-5.7538,-5.7941,-5.7997,-5.7997,-5.7997,-5.9079,-6.011,-6.0883,-6.2297,-6.3342,-6.3813,-6.4318,-6.4475,-6.4211,-6.4462,-6.4397,-6.3955,-6.3551,-6.2935,-6.212,-6.1678,-6.1223,-6.08,-6.08,-6.08,-6.08,-6.08,-6.08,-6.08,-6.08,-6.0089,-5.8838,-5.7992,-5.6876,-5.5568,-5.4337,-5.3318,-5.2442,-5.1606,-5.1048,-5.0712,-5.0712,-5.0423,-4.9971,-4.9529,-4.8548,-4.7432,-4.7019,-4.6297,-4.5594,-4.5594,-4.5594,-4.5594,-4.5594,-4.5594,-4.5594,-4.5594,-4.5594,-4.5594,-4.5594,-4.5594,-4.5629,-4.5696,-4.5754,-4.5586,-4.4876,-4.3786,-4.2727,-4.1914,-4.1465,-4.1191,-4.1191,-4.082,-4.0215,-3.9336,-3.8476,-3.7598,-3.6719,-3.5059,-3.3516,-3.2285,-3.0976,-2.9863,-2.8984,-2.9375,-2.9394,-2.8965,-2.8945,-2.918,-2.9609,-2.9609,-2.9824,-3.0234,-2.9805,-2.9609,0.0,0.0,0.0,0.0,0.0,0.0,0.0,0.0,-4.7003,-4.926,-5.093,-5.2564,-5.4509,-5.5519,-5.6473,-5.7776,-5.7997,-5.7997,-5.7997,-5.7997,-5.7997,-5.7997,-5.9281,-6.0457,-6.1132,-6.2911,-6.4162,-6.4518,-6.528,-6.5603,-6.5276,-6.5676,-6.557,-6.4878,-6.4686,-6.3878,-6.2339,-6.2178,-6.1658,-6.08,-6.08,-6.08,-6.08,-6.08,-6.08,-6.0781,-6.0608,-6.0069,-5.9146,-5.7627,-5.6503,-5.5645,-5.4991,-5.4203,-5.3337,-5.2269,-5.1395,-5.0712,-5.0712,-5.0712,-5.0577,-4.9875,-4.8952,-4.799,-4.7336,-4.6413,-4.5594,-4.5594,-4.5594,-4.5594,-4.5594,-4.5594,-4.5594,-4.5594,-4.5594,-4.5594,-4.5594,-4.5594,-4.5594,-4.5594,-4.5696,-4.559,-4.5016,-4.4141,-4.3268,-4.2519,-4.1719,-4.1191,-4.1191,-4.1191,-4.0801,-3.9766,-3.9023,-3.8184,-3.7148,-3.4961,-3.3301,-3.248,-3.1621,-3.0762,-2.9883,-2.9844,-2.9844,-2.9844,-2.9844,-3.0195,-3.0898,-3.0898,-3.0898,-3.0898,-3.0898,-3.0996,-4.0747,-4.135,-4.2543,-4.469,-4.5902,-4.77,0.0,0.0,-5.2747,-5.4418,-5.55,-5.6216,-5.6492,-5.7189,-5.7776,-5.796,-5.7997,-5.7997,-5.7997,-5.7997,-5.7997,-5.7997,-5.8804,-5.9849,-6.1095,-6.2058,-6.329,-6.4894,-6.513,-6.5369,-6.5795,-6.5865,-6.5859,-6.5763,-6.4993,-6.4147,-6.3185,-6.2454,-6.1658,-6.08,-6.08,-6.08,-6.08,-6.08,-6.08,-6.0762,-5.9973,-5.9184,-5.8357,-5.7396,-5.6503,-5.5684,-5.5588,-5.5068,-5.4164,-5.25,-5.1395,-5.0712,-5.0712,-5.0712,-5.0693,-5.0596,-4.9433,-4.8086,-4.799,-4.6855,-4.5594,-4.5594,-4.5594,-4.5594,-4.5594,-4.5594,-4.5594,-4.5594,-4.5594,-4.5594,-4.5594,-4.5594,-4.5594,-4.5594,-4.5612,-4.5626,-4.5661,-4.4323,-4.3043,-4.2496,-4.1719,-4.1191,-4.1191,-4.1191,-4.0566,-3.8926,-3.8652,-3.793,-3.6289,-3.5176,-3.4199,-3.332,-3.25,-3.166,-3.0781,-3.0742,-3.0742,-3.0742,-3.0742,-3.0801,-3.0898,-3.0898,-3.0898,-3.0898,-3.0898,-3.1309,-4.4214,-4.5168,-4.6159,-4.7664,-4.937,-5.1185,-5.3243,-5.4179,-5.4913,-5.6051,-5.695,-5.7501,-5.7501,-5.7776,-5.8143,0.0,-5.8712,-5.8712,-5.8712,-5.8712,-5.8529,-5.8052,-5.8309,-5.9204,-6.102,-6.192,-6.2911,-6.4142,-6.4782,-6.5083,-6.5022,-6.5575,-6.5897,-6.5897,-6.5551,-6.4686,-6.3308,-6.2974,-6.2127,-6.08,-6.08,-6.08,-6.08,-6.08,-6.08,-6.0781,-6.0416,-5.9781,-5.8934,-5.8107,-5.7242,-5.6406,-5.5895,-5.5203,-5.4357,-5.3106,-5.2125,-5.1337,-5.0856,-5.0712,-5.0712,-5.0712,-4.951,-4.8105,-4.8105,-4.6932,-4.5594,-4.5594,-4.5594,-4.5594,-4.5594,-4.5594,-4.5594,-4.5594,-4.5594,-4.5594,-4.5594,-4.5594,-4.5594,-4.5594,-4.5594,-4.5643,-4.5789,-4.4357,-4.3153,-4.3008,-4.1905,-4.1105,-4.1191,-4.1191,-4.0527,-3.8789,-3.8144,-3.7344,-3.6113,-3.5195,-3.4531,-3.418,-3.293,-3.2031,-3.168,-3.1172,-3.0898,-3.0898,-3.0898,-3.0898,-3.0898,-3.0898,-3.0898,-3.0918,-3.1426,-3.2109,-4.6287,-4.77,-4.8912,-4.9996,-5.2068,-5.3922,-5.4121,-5.5262,-5.6418,-5.7005,-5.7593,-5.7997,-5.7997,-5.7997,-5.8253,-5.9056,-5.9184,-5.9184,-5.9184,-5.9184,-5.8891,-5.8107,-5.7997,-5.8743,-6.0667,-6.1379,-6.214,-6.3202,-6.4067,-6.4552,-6.459,-6.528,-6.5749,-6.5897,-6.5897,-6.5051,-6.332,-6.3288,-6.2454,-6.08,-6.08,-6.08,-6.08,-6.08,-6.08,-6.08,-6.08,-6.03,-5.9435,-5.8627,-5.778,-5.6907,-5.603,-5.5338,-5.4703,-5.3606,-5.2654,-5.1769,-5.0971,-5.0712,-5.0712,-5.0712,-4.951,-4.8105,-4.8105,-4.6932,-4.5594,-4.5594,-4.5594,-4.5594,-4.5594,-4.5594,-4.5594,-4.5594,-4.5594,-4.5594,-4.5594,-4.5594,-4.5594,-4.5594,-4.5594,-4.5627,-4.5737,-4.4496,-4.3466,-4.3355,-4.2159,-4.1239,-4.1116,-4.0697,-3.9959,-3.873,-3.7617,-3.6699,-3.6055,-3.5409,-3.494,-3.4707,-3.3534,-3.2752,-3.2539,-3.1914,-3.1582,-3.1582,-3.1582,-3.1582,-3.1582,-3.1582,-3.1582,-3.1601,-3.2246,-3.2969,-4.592,-4.77,-4.9941,-5.1538,-5.3739,-5.5721,-5.651,-5.7336,-5.7923,-5.796,-5.7978,-5.7997,-5.7997,-5.7997,-5.8253,-5.9056,-5.9184,-5.9184,-5.9184,-5.9184,-5.8891,-5.8107,-5.7997,-5.8544,0.0,-5.9998,-6.0648,-6.2311,-6.2877,-6.3719,-6.501,-6.5115,-6.5369,-6.5865,-6.5897,-6.5051,-6.332,-6.3288,-6.2454,-6.08,-6.08,-6.08,-6.08,-6.08,-6.08,-6.08,-6.08,-6.03,-5.9435,-5.8627,-5.778,-5.6907,-5.603,-5.5684,-5.5453,-5.3818,-5.2654,-5.1769,-5.0971,-5.0712,-5.0712,-5.0712,-4.951,-4.8105,-4.8105,-4.6932,-4.5594,-4.5594,-4.5594,-4.5594,-4.5594,-4.5594,-4.5594,-4.5594,-4.5594,-4.5594,-4.5594,-4.5594,-4.5594,-4.5594,-4.5594,-4.5594,-4.5603,-4.4872,-4.4033,-4.3305,-4.2504,-4.1696,-4.091,-3.9455,-3.8513,-3.8593,-3.7051,-3.6035,-3.5996,-3.5925,-3.5529,-3.4746,-3.4595,-3.4182,-3.3398,-3.334,-3.332,-3.332,-3.332,-3.332,-3.332,-3.332,-3.332,-3.332,-3.3359,-3.3828,-4.8049,-5.0123,-5.2362,-5.3977,-5.539,-5.662,-5.7409,-5.7813,-5.785,-5.7317,-5.6785,-5.64,-5.64,-5.64,-5.684,-5.8198,-5.93,-5.9813,-5.9276,-6.0126,-6.0107,-5.8217,-5.874,0.0,0.0,0.0,0.0,-6.2252,-6.2554,-6.3235,-6.457,-6.4935,-6.5354,-6.5865,-6.5897,-6.5051,-6.332,-6.3288,-6.2454,-6.08,-6.08,-6.08,-6.08,-6.08,-6.08,-6.08,-6.08,-6.0627,-6.0262,-5.8877,-5.8127,-5.7723,-5.6261,-5.5703,-5.5491,-5.3818,-5.301,-5.2568,-5.1183,-5.0712,-5.0712,-5.0712,-4.9913,-4.8856,-4.8279,-4.7336,-4.6336,-4.5768,-4.5594,-4.5594,-4.5594,-4.5594,-4.5594,-4.5594,-4.5594,-4.5594,-4.5594,-4.5594,-4.5594,-4.5594,-4.5594,-4.5594,-4.5594,-4.4874,-4.3841,-4.2479,-4.1664,-4.1105,-4.0832,-3.99,-3.9035,-3.8451,-3.7489,-3.66,-3.5983,-3.591,-3.5772,-3.5511,-3.4932,-3.4482,-3.4202,-3.3689,-3.3398,-3.3398,-3.3398,-3.3398,-3.3398,-3.3398,-3.3398,-3.3418,-3.3984,-3.4414,-5.0035,-5.2013,-5.4032,-5.5629,-5.6638,-5.7299,-5.7519,-5.7574,-5.7262,-5.618,-5.5299,-5.473,-5.473,-5.4509,-5.5023,-5.7226,-5.8676,-5.9557,-5.9606,-6.0768,-6.0915,-5.9079,-5.9589,-5.9767,0.0,0.0,0.0,-6.139,-6.2047,-6.2904,-6.4117,-6.4613,-6.5165,-6.5885,-6.5897,-6.5051,-6.332,-6.3288,-6.2454,-6.08,-6.08,-6.08,-6.08,-6.08,-6.08,-6.08,-6.08,-6.08,-6.0666,-5.8992,-5.83,-5.8127,-5.6376,-5.5703,-5.5491,-5.3818,-5.3203,-5.2972,-5.1279,-5.0712,-5.0712,-5.0712,-5.0106,-4.924,-4.8355,-4.7548,-4.6721,-4.5845,-4.5594,-4.5594,-4.5594,-4.5594,-4.5594,-4.5594,-4.5594,-4.5594,-4.5594,-4.5594,-4.5594,-4.5594,-4.5594,-4.5594,-4.5594,-4.4643,-4.3508,-4.2431,-4.1364,-4.0708,-4.0752,-4.0077,-3.9266,-3.8388,-3.7639,-3.6827,-3.5916,-3.5811,-3.5819,-3.59,-3.5338,-3.5032,-3.5101,-3.4607,-3.4336,-3.4336,-3.4336,-3.4336,-3.4336,-3.4336,-3.4336,-3.4336,-3.4902,-3.5156,-5.1828,-5.3338,-5.495,-5.6492,-5.7409,-5.774,-5.6969,-5.6712,-5.618,-5.4601,-5.3573,-5.2947,0.0,0.0,-5.2968,-5.6124,-5.7391,-5.8547,-6.0126,-6.1062,-6.13,0.0,0.0,0.0,0.0,0.0,0.0,-5.9915,0.0,-6.2664,-6.3734,-6.4172,-6.4854,-6.584,-6.5897,-6.5051,-6.332,-6.3224,-6.2377,-6.08,-6.08,-6.08,-6.08,-6.08,-6.08,-6.08,-6.08,-6.08,-6.0666,-5.8992,-5.83,-5.8127,-5.6376,-5.5703,-5.5491,-5.3818,-5.3203,-5.2972,-5.1279,-5.0712,-5.0712,-5.0712,-5.0144,-4.9298,-4.8375,-4.7567,-4.6778,-4.5864,-4.5594,-4.5594,-4.5594,-4.5594,-4.5594,-4.5594,-4.5594,-4.5594,-4.5594,-4.5594,-4.5594,-4.5594,-4.5594,-4.5594,-4.5594,-4.4239,-4.3143,-4.3104,-4.1643,-4.0603,-4.0687,-3.9964,-3.9162,-3.8377,-3.7541,-3.6689,-3.5774,-3.5644,-3.567,-3.5869,-3.5764,-3.579,-3.5976,-3.5996,-3.5996,-3.5996,-3.5996,-3.5996,-3.5996,-3.5996,-3.5996,-3.5996,-3.5996,-3.5996,-5.4036,-5.5678,-5.7171,-5.7593,-5.7409,-5.706,-5.6859,-5.5427,-5.383,-5.2821,-5.0986,-4.9554,0.0,0.0,0.0,-5.3794,-5.6308,0.0,-5.9349,-6.0713,0.0,-6.0511,0.0,-6.1444,-6.0504,-6.1057,0.0,0.0,-6.0848,-6.1678,-6.3563,-6.4123,-6.468,-6.5291,-6.569,-6.5051,-6.332,-6.207,-6.1223,-6.08,-6.08,-6.08,-6.08,-6.08,-6.08,-6.08,-6.08,-6.08,-6.0666,-5.8992,-5.83,-5.8127,-5.6376,-5.5703,-5.5491,-5.3818,-5.3203,-5.2972,-5.1279,-5.0712,-5.0712,-5.0712,-5.0558,-5.0067,-4.8567,-4.7971,-4.749,-4.6018,-4.5594,-4.5594,-4.5594,-4.5594,-4.5594,-4.5594,-4.5594,-4.5594,-4.5594,-4.5594,-4.5594,-4.5594,-4.5594,-4.5594,-4.5594,-4.4701,-4.3797,-4.3181,-4.2162,-4.1254,-4.0641,-4.0449,-3.9777,-3.8228,-3.8011,-3.7323,-3.5766,-3.5611,-3.5616,-3.5661,-3.5698,-3.5726,-3.5763,-3.5928,-3.5996,-3.5996,-3.5996,-3.5996,-3.5996,-3.5996,-3.5996,-3.5996,-3.5996,-3.5996,-5.5958,-5.7059,-5.7997,-5.7997,-5.7409,-5.6528,-5.5464,-5.3904,-5.2142,-5.0251,-4.8471,-4.715,-4.6801,-4.8086,-4.9828,0.0,0.0,0.0,-5.9465,-6.0805,-6.1557,0.0,-6.2066,0.0,-6.1526,-6.1776,-6.1943,0.0,-6.1603,-6.2013,-6.3293,-6.4029,-6.4627,-6.5099,-6.5252,-6.4512,-6.2781,-6.1262,-6.061,-6.08,-6.08,-6.08,-6.08,-6.08,-6.08,-6.08,0.0,-6.08,-6.0666,-5.8992,-5.83,-5.8127,-5.6376,-5.5703,-5.553,-5.4241,-5.353,-5.301,-5.1683,-5.0991,-5.0712,-5.0712,-5.0712,-5.0462,-4.9086,-4.8394,-4.7836,-4.6528,-4.5893,-4.5594,-4.5594,-4.5594,-4.5594,-4.5594,-4.5594,-4.5594,-4.5594,-4.5594,-4.5594,-4.5594,-4.5594,-4.5594,-4.5594,-4.4874,-4.4028,-4.322,-4.2354,-4.1489,-4.0612,-4.0566,-4.0093,-3.8715,-3.8337,-3.7594,-3.6194,-3.5763,-3.5579,-3.5605,-3.5667,-3.5723,-3.5794,-3.5893,-3.597,-3.597,-3.597,-3.597,-3.597,-3.5995,-3.5996,-3.5996,-3.5996,-3.5996,-5.7641,-5.7923,-5.8092,-5.802,-5.7226,-5.5923,-5.3699,-5.216,-5.0343,-4.7388,-4.5975,-4.5076,-4.4507,-4.57,-4.7663,-5.0362,0.0,-5.6473,-5.9924,-6.1006,-6.1777,-6.267,-6.278,-6.278,-6.278,-6.2181,-6.2053,-6.2743,-6.278,-6.2877,-6.3046,-6.3841,-6.4461,-6.4813,-6.4436,-6.3501,-6.1927,-6.0642,-6.025,-6.0702,-6.0702,-6.0746,-6.08,-6.08,-6.08,-6.08,0.0,0.0,-6.0666,-5.8992,-5.83,-5.8127,-5.6376,-5.5703,-5.5588,-5.4664,-5.3857,-5.3068,-5.2077,-5.1279,-5.0712,-5.0712,-5.0712,-5.0539,-4.9663,-4.8798,-4.7932,-4.7135,-4.6278,-4.5594,-4.5594,-4.5594,-4.5594,-4.5594,-4.5594,-4.5594,-4.5594,-4.5594,-4.5594,-4.5594,-4.5594,-4.5594,-4.5594,-4.4979,-4.4162,-4.3239,-4.247,-4.1623,-4.0631,-4.0496,-4.0189,-3.94,-3.8623,-3.7777,-3.6769,-3.6058,-3.5644,-3.5593,-3.5646,-3.5739,-3.586,-3.5869,-3.5873,-3.5873,-3.5898,-3.5901,-3.5901,-3.5973,-3.5996,-3.5996,-3.5996,-3.5996,-5.8955,-5.8839,-5.8503,-5.8115,-5.64,-5.4528,-5.3442,-4.9958,0.0,-4.5369,-4.3407,-4.2086,-4.2616,-4.403,-4.6361,-5.0178,-5.238,-5.5207,-5.9758,-6.0529,-6.1153,0.0,-6.278,-6.278,-6.278,-6.2652,0.0,0.0,0.0,0.0,-6.2841,-6.3405,-6.3639,-6.3441,-6.2754,-6.1915,-6.0947,-5.9994,-5.9757,-6.0222,-6.0222,-6.0424,-6.08,-6.08,-6.08,-6.08,0.0,0.0,-6.0666,-5.8992,-5.83,-5.8127,-5.6376,-5.5703,-5.5511,-5.3991,-5.3337,-5.2991,-5.1433,-5.0827,-5.0712,-5.0712,-5.0712,-5.0539,-4.9663,-4.8798,-4.7932,-4.7135,-4.6278,-4.5594,-4.5594,-4.5594,-4.5594,-4.5594,-4.5594,-4.5594,-4.5594,-4.5594,-4.5594,-4.5594,-4.5594,-4.5594,-4.5594,-4.5479,-4.4863,-4.3335,-4.297,-4.2297,-4.0708,-4.0496,-4.0189,-3.94,-3.9169,-3.843,-3.6846,-3.6577,-3.6206,-3.5566,-3.5588,-3.5636,-3.5654,-3.5705,-3.5726,-3.5726,-3.5841,-3.5901,-3.5901,-3.5973,-3.5996,-3.5996,-3.5996,-3.5996,-5.9282,-5.9065,-5.8498,-5.7604,-5.5886,-5.3867,-5.1793,-4.8508,-4.5424,-4.3791,-4.2196,-4.1077,-4.1056,-4.3057,-4.5351,-4.7315,-4.9719,-5.2858,-5.7281,-5.8253,-5.9428,-6.1887,-6.2567,-6.278,0.0,0.0,0.0,0.0,0.0,0.0,-6.278,-6.2905,-6.2803,-6.2502,-6.1469,-6.0623,-6.0029,-5.9383,-5.9389,-6.0103,-6.0103,-6.0338,-6.08,-6.08,-6.08,-6.08,0.0,0.0,-6.0666,-5.8992,-5.83,-5.8127,-5.6376,-5.5703,-5.5588,-5.4799,-5.3953,-5.3087,-5.2279,-5.1433,-5.0712,-5.0712,-5.0712,-5.0616,-5.0202,-4.9144,-4.8029,-4.7625,-4.6605,-4.5594,-4.5594,-4.5594,-4.5594,-4.5594,-4.5594,-4.5594,-4.5594,-4.5594,-4.5594,-4.5594,-4.5594,-4.5594,-4.5594,-4.5594,-4.5171,-4.3912,-4.3374,-4.2624,-4.1335,-4.0785,-4.0342,-3.9977,-3.9554,-3.8777,-3.7488,-3.6962,-3.6365,-3.5558,-3.5568,-3.5611,-3.5611,-3.563,-3.5642,-3.5642,-3.571,-3.5759,-3.5799,-3.5893,-3.5972,-3.5996,-3.5996,-3.5996,-5.9034,-5.9008,-5.8528,-5.7148,-5.5335,-5.3133,-5.0271,-4.7278,-4.4544,-4.247,-4.1277,-4.0451,-3.9974,-4.1974,-4.3956,-4.4819,-4.726,-5.0602,-5.4968,-5.6436,-5.8198,0.0,-6.231,0.0,-6.278,0.0,0.0,0.0,0.0,0.0,0.0,-6.2327,-6.1959,-6.1336,-6.0341,-5.9594,-5.9103,-5.8735,-5.9009,-5.9946,-5.9946,-6.025,-6.08,-6.08,-6.0746,-6.0647,0.0,0.0,0.0,-5.8849,-5.8212,-5.8127,-5.6376,-5.5703,-5.5665,-5.5388,-5.44,-5.3154,-5.2899,-5.1863,-5.0712,-5.0712,-5.0712,-5.0712,-5.0712,-4.9471,-4.8105,-4.8105,-4.6894,-4.5594,-4.5594,-4.5594,-4.5594,-4.5594,-4.5594,-4.5594,-4.5594,-4.5594,-4.5594,-4.5594,-4.5594,-4.5594,-4.5594,-4.5594,-4.5306,-4.4432,-4.3624,-4.2797,-4.1904,-4.1046,-4.0496,-4.0496,-3.9938,-3.9207,-3.8354,-3.7642,-3.6827,-3.5827,-3.5803,-3.5756,-3.5582,-3.5582,-3.5582,-3.5582,-3.5595,-3.5621,-3.5675,-3.5797,-3.5887,-3.5931,-3.5931,-3.5953,-5.8229,-5.8752,-5.8915,-5.722,-5.4491,-5.1756,-4.9996,-4.5993,-4.2359,-4.1407,-3.9976,-3.9129,-3.9772,-4.0139,-4.1534,-4.5204,-4.6673,-4.9279,-5.4803,-5.6914,-5.8804,-6.13,0.0,0.0,0.0,0.0,0.0,0.0,0.0,0.0,0.0,-6.1704,-6.0998,-5.9499,-5.932,-5.8902,-5.8138,-5.8092,-5.8547,-5.9458,-5.9458,-5.9931,-6.08,-6.08,-6.0565,-6.0161,0.0,0.0,0.0,-5.8372,-5.7928,-5.8127,-5.6376,-5.5703,-5.5555,-5.4402,-5.3651,-5.3027,-5.1885,-5.1135,-5.0712,-5.0712,-5.0712,-5.0712,-5.0712,-4.9471,-4.8105,-4.8105,-4.6894,-4.5594,-4.5594,-4.5594,-4.5594,-4.5594,-4.5594,-4.5594,-4.5594,-4.5594,-4.5594,-4.5594,-4.5594,-4.5594,-4.5594,-4.5594,-4.5306,-4.4432,-4.3624,-4.2797,-4.1904,-4.1046,-4.0496,-4.0496,-4.0439,-4.0054,-3.9246,-3.9111,-3.8354,-3.6692,-3.6598,-3.6278,-3.5546,-3.5508,-3.5508,-3.5508,-3.5579,-3.5596,-3.5606,-3.5671,-3.572,-3.5729,-3.5729,-3.5785,-5.7264,-5.8372,-5.8875,-5.6633,-5.4014,-5.1426,-4.9297,-4.5443,-4.2066,-4.126,-3.9811,-3.8799,-3.9129,-3.957,-4.0579,-4.2671,-4.3699,-4.5681,-4.9903,-5.2325,-5.4913,-5.8309,-6.0291,0.0,0.0,0.0,0.0,0.0,0.0,0.0,0.0,-6.0162,-5.9869,-5.9221,-5.8731,-5.8327,-5.7997,-5.7997,-5.8329,-5.8971,-5.8971,-5.9319,-5.9965,-5.9965,-5.9855,-5.9677,0.0,0.0,0.0,-5.8177,-5.7712,-5.7724,-5.626,-5.5535,-5.5223,-5.4238,-5.3442,-5.2693,-5.1655,-5.1047,-5.0712,-5.0712,-5.0712,-5.0712,-5.0712,-4.9471,-4.8105,-4.8105,-4.6894,-4.5594,-4.5594,-4.5594,-4.5594,-4.5594,-4.5594,-4.5594,-4.5594,-4.5594,-4.5594,-4.5594,-4.5594,-4.5594,-4.5594,-4.5594,-4.5479,-4.5133,-4.4355,-4.3528,-4.2701,-4.1816,-4.1085,-4.0554,-4.0496,-4.0169,-3.9381,-3.9304,-3.8777,-3.7565,-3.7488,-3.7334,-3.7026,-3.65,-3.6212,-3.6212,-3.5766,-3.5556,-3.5611,-3.5626,-3.5663,-3.5707,-3.5707,-3.5723,-5.5548,-5.7016,-5.7748,-5.547,-5.3059,-5.0674,-4.8453,-4.4837,-4.1791,-4.1224,-3.9811,-3.8707,-3.8707,-3.935,-4.0157,-4.0967,-4.1974,-4.3864,-4.7352,-4.9756,-5.2564,0.0,0.0,0.0,0.0,0.0,0.0,0.0,0.0,0.0,0.0,-5.8964,-5.8859,-5.8859,-5.8309,-5.7997,-5.7997,-5.7997,-5.8257,-5.8694,-5.8694,-5.8951,-5.9389,-5.9389,-5.9319,0.0,0.0,0.0,0.0,-5.7638,-5.7203,-5.7109,-5.5836,-5.5237,-5.4985,-5.4169,-5.3248,-5.2311,-5.157,-5.0957,-5.0514,-5.0514,-5.0604,-5.0712,-5.0712,-4.9663,-4.8432,-4.8182,-4.6894,-4.5594,-4.5594,-4.5594,-4.5594,-4.5594,-4.5594,-4.5594,-4.5594,-4.5594,-4.5594,-4.5594,-4.5594,-4.5594,-4.5594,-4.5594,-4.5594,-4.5594,-4.4855,-4.4008,-4.3201,-4.2335,-4.147,-4.0593,-4.0496,-4.0265,-3.9708,-3.965,-3.9284,-3.843,-3.8373,-3.8277,-3.8007,-3.7411,-3.7084,-3.7084,-3.6519,-3.626,-3.6314,-3.6043,-3.5943,-3.5997,-3.5745,-3.5786,-5.2923,-5.4401,-5.5326,-5.3642,-5.1371,-4.9095,-4.748,-4.3994,-4.1113,-4.1095,-3.9811,-3.8707,-3.8707,-3.935,-4.0157,-4.0967,-4.2433,-4.491,-4.9004,-5.0969,-5.317,0.0,0.0,0.0,0.0,0.0,0.0,0.0,0.0,0.0,0.0,0.0,-5.8015,-5.8015,-5.7997,-5.7997,-5.7997,-5.7997,-5.8257,-5.8694,-5.8694,-5.8951,-5.9389,-5.9389,0.0,0.0,0.0,0.0,0.0,-5.6589,-5.6295,-5.6295,-5.5011,-5.4745,-5.4988,-5.4115,-5.3033,-5.1948,-5.1474,-5.079,-5.0123,-5.0123,-5.0388,-5.0712,-5.0712,-5.0067,-4.9202,-4.8336,-4.6894,-4.5594,-4.5594,-4.5594,-4.5594,-4.5594,-4.5594,-4.5594,-4.5594,-4.5594,-4.5594,-4.5594,-4.5594,-4.5594,-4.5594,-4.5594,-4.5594,-4.5594,-4.4855,-4.4008,-4.3201,-4.2335,-4.147,-4.0593,-4.0496,-4.0496,-4.0496,-4.0496,-4.015,-3.9342,-3.9284,-3.8892,-3.8046,-3.7988,-3.7988,-3.7988,-3.7988,-3.7969,-3.7969,-3.7103,-3.6699,-3.6661,-3.5872,-3.6003,-4.9673,-5.1017,-5.1826,-4.9583,-4.8031,-4.6617,-4.5002,-4.28,-4.093,-4.0396,-3.9441,-3.8707,-3.8707,-3.8909,-3.9882,-4.2341,-4.3167,-4.4709,-4.8214,0.0,0.0,-5.4913,0.0,0.0,0.0,0.0,0.0,0.0,0.0,0.0,0.0,0.0,-5.7997,-5.7997,-5.7997,-5.7997,-5.7997,-5.7997,-5.807,-5.8235,-5.8235,-5.8304,-5.8421,-5.8421,0.0,0.0,0.0,0.0,0.0,-5.5836,-5.5398,-5.5382,-5.474,-5.4387,-5.411,-5.3289,-5.2357,-5.1417,-5.0721,-5.032,-5.0092,-5.0092,-5.0369,-5.0712,-5.0712,-5.0087,-4.9106,-4.7682,-4.6471,-4.5594,-4.5594,-4.5594,-4.5594,-4.5594,-4.5594,-4.5594,-4.5594,-4.5594,-4.5594,-4.5594,-4.5594,-4.5594,-4.5594,-4.5594,-4.5594,-4.5594,-4.5364,-4.4682,-4.3278,-4.2854,-4.2124,-4.0669,-4.0496,-4.0496,-4.0496,-4.0496,-4.04,-4.015,-4.0131,-3.9996,-3.9727,-3.9188,-3.8892,-3.8892,-3.8296,-3.8007,-3.8007,-3.7719,-3.7584,-3.7584,-3.7334,-3.7362,-4.6415,-4.7744,-4.848,-4.665,-4.559,-4.4654,-4.3332,-4.1791,-4.0506,-3.9992,-3.9258,-3.8707,-3.8707,-3.8946,-3.99,-4.2213,-4.2837,-4.4287,0.0,0.0,0.0,-5.4546,0.0,0.0,0.0,0.0,0.0,0.0,0.0,0.0,0.0,0.0,-5.7997,-5.7997,-5.7997,-5.7997,-5.7997,-5.7997,-5.7997,-5.7997,-5.7997,-5.7997,-5.7997,0.0,0.0,0.0,0.0,0.0,0.0,-5.5071,-5.4684,-5.4503,-5.4147,-5.3906,-5.3665,-5.2735,-5.1843,-5.1009,-5.0194,-4.9802,-4.9673,-4.9827,-5.0147,-5.0472,-5.0472,-4.9739,-4.8682,-4.7644,-4.6509,-4.5594,-4.5594,-4.5594,-4.5594,-4.5594,-4.5594,-4.5594,-4.5594,-4.5594,-4.5594,-4.5594,-4.5594,-4.5594,-4.5594,-4.5594,-4.5594,-4.5594,-4.5594,-4.4998,-4.3316,-4.3104,-4.2431,-4.0689,-4.0496,-4.0496,-4.0496,-4.0496,-4.0496,-4.0496,-4.0496,-4.0496,-4.0496,-4.0015,-3.9746,-3.9746,-3.9227,-3.8931,-3.8931,-3.8642,-3.8315,-3.8007,-3.8334,-3.8488,0.0,-4.4538,-4.5261,-4.4474,-4.3754,-4.302,-4.2231,-4.0928,0.0,-3.9827,-3.9221,-3.8726,-3.8854,-3.9423,-4.023,-4.126,-4.2084,-4.3938,0.0,-4.937,0.0,0.0,0.0,0.0,0.0,0.0,0.0,0.0,0.0,0.0,0.0,0.0,0.0,-5.7997,-5.7997,-5.7997,-5.7997,-5.7997,-5.7997,-5.7997,-5.7997,-5.7997,-5.796,0.0,0.0,0.0,0.0,0.0,0.0,-5.4344,-5.4086,-5.372,-5.3339,-5.3442,-5.3609,-5.2418,-5.1481,-5.0674,-4.9886,-4.9289,-4.898,-4.9371,-4.976,-5.0056,-5.0056,-4.9119,-4.8058,-4.8096,-4.6894,-4.5594,-4.5594,-4.5594,-4.5594,-4.5594,-4.5594,-4.5594,-4.5594,-4.5594,-4.5594,-4.5594,-4.5594,-4.5594,-4.5594,-4.5594,-4.5594,-4.5594,-4.5594,-4.4998,-4.3316,-4.3104,-4.2431,-4.0689,-4.0496,-4.0496,-4.0496,-4.0496,-4.0496,-4.0496,-4.0496,-4.0496,-4.0496,-4.0496,-4.0496,-4.0496,-4.0496,-4.0496,-4.0496,-3.9746,-3.8969,-3.82,-3.9015,-3.94,-4.0208,0.0,-4.1744,-4.0449,-4.0432,-4.0543,0.0,-3.9735,-3.9717,-3.9111,-3.8836,-3.9093,-4.0306,-4.0194,-4.0965,-4.4232,-4.4929,-4.6269,-4.9738,0.0,0.0,0.0,0.0,0.0,0.0,0.0,0.0,0.0,0.0,0.0,0.0,0.0,0.0,-5.7997,-5.7997,-5.7997,-5.7997,-5.7997,-5.7997,-5.7997,-5.7997,-5.7997,-5.796,0.0,0.0,0.0,0.0,0.0,-5.4344,-5.3739,-5.3416,-5.3318,-5.3248,-5.3251,-5.3226,-5.2332,-5.1481,-5.0674,-4.9886,-4.9289,-4.898,-4.9371,-4.9561,-4.9631,-4.9631,-4.8701,-4.7709,-4.8001,-4.6894,-4.5594,-4.5594,-4.5594,-4.5594,-4.5594,-4.5594,-4.5594,-4.5594,-4.5594,-4.5594,-4.5594,-4.5594,-4.5594,-4.5594,-4.5594,-4.5594,-4.5594,-4.5594,-4.4998,-4.3316,-4.3104,-4.2431,-4.0689,-4.0496,-4.0496,-4.0496,-4.0496,-4.0496,-4.0496,-4.0496,-4.0496,-4.0496,-4.0496,-4.0496,-4.0496,-4.0496,-4.0496,-4.0496,-4.0304,-4.0112,-3.9919,-4.0131,-4.0227,-3.9093,-3.9855,-4.0411,-3.9482,-3.957,-3.979,-3.935,-3.9294,-3.9239,-3.8799,-3.8707,-3.9093,-4.0322,-4.0506,-4.1405,-4.4323,-4.5424,0.0,0.0,0.0,0.0,0.0,0.0,0.0,0.0,0.0,0.0,0.0,0.0,0.0,0.0,0.0,0.0,0.0,-5.7997,-5.7997,-5.7997,-5.7997,-5.7997,-5.7997,-5.7997,-5.7813,-5.7428,0.0,0.0,0.0,0.0,0.0,-5.383,-5.339,-5.3185,-5.317,-5.2803,-5.2656,-5.2509,-5.1316,-5.0618,-5.0123,-4.9279,-4.8975,-4.8913,-4.893,-4.9059,-4.9218,-4.9218,-4.819,-4.7116,-4.7677,-4.6743,-4.5594,-4.5594,-4.5594,-4.5594,-4.5594,-4.5594,-4.5594,-4.5594,-4.5594,-4.5594,-4.5594,-4.5594,-4.5594,-4.5594,-4.5594,-4.5594,-4.5594,-4.5594,-4.4998,-4.3316,-4.3104,-4.2431,-4.0689,-4.0496,-4.0496,-4.0496,-4.0496,-4.0496,-4.0496,-4.0496,-4.0496,-4.0496,-4.0496,-4.0496,-4.0496,-4.0496,-4.0496,-4.0496,-4.0496,-4.0496,-4.0496,-4.0496,-4.0496,-3.8943,-3.9672,-4.0144,-3.981,-3.99,-4.001,-3.9772,-3.9276,-3.8854,-3.8726,-3.8799,-3.9166,-4.0102,-4.1084,-4.2276,0.0,0.0,0.0,0.0,0.0,0.0,0.0,0.0,0.0,0.0,0.0,0.0,0.0,0.0,0.0,0.0,0.0,0.0,0.0,-5.7997,-5.7997,-5.7997,-5.7997,-5.7997,-5.7997,-5.7997,-5.7574,-5.6785,-5.5959,0.0,0.0,0.0,0.0,-5.3185,-5.3185,-5.3185,-5.3112,-5.2307,-5.1995,-5.1793,-5.0198,-4.961,-4.9482,-4.86,-4.8532,-4.8744,-4.8402,-4.8532,-4.8795,-4.8664,-4.7566,-4.6495,-4.7004,-4.6347,-4.5522,-4.5522,-4.5568,-4.5594,-4.5594,-4.5594,-4.5594,-4.5594,-4.5594,-4.5594,-4.5594,-4.5594,-4.5594,-4.5594,-4.5594,-4.5594,-4.5594,-4.5594,-4.5037,-4.347,-4.3278,-4.2624,-4.0881,-4.0708,-4.065,-4.0516,-4.0496,-4.0496,-4.0496,-4.0496,-4.0496,-4.0496,-4.0496,-4.0496,-4.0496,-4.0496,-4.0496,-4.0496,-4.0496,-4.0496,-4.0496,-4.0496,-4.0496,-3.8775,-3.9511,-3.9795,-3.9053,-3.9918,-4.0545,-3.9203,-3.9313,-3.9515,-3.8836,-3.9239,-4.0175,-4.1662,-4.3474,-4.514,0.0,0.0,0.0,0.0,0.0,0.0,0.0,0.0,0.0,0.0,0.0,0.0,0.0,0.0,0.0,0.0,0.0,0.0,0.0,0.0,-5.7997,-5.7997,-5.7997,-5.7997,-5.7997,-5.7997,-5.7574,-5.6785,-5.5959,-5.5152,0.0,0.0,0.0,-5.3185,-5.3185,-5.3185,-5.3112,-5.2307,-5.1995,-5.1793,-5.0198,-4.961,-4.9482,-4.86,-4.8326,-4.8383,-4.8325,-4.8326,-4.8254,-4.7592,-4.6921,-4.6273,-4.5705,-4.5369,-4.518,-4.518,-4.539,-4.5594,-4.5594,-4.5594,-4.5594,-4.5594,-4.5594,-4.5594,-4.5594,-4.5594,-4.5594,-4.5594,-4.5594,-4.5594,-4.5594,-4.5594,-4.5248,-4.4239,-4.4124,-4.347,-4.1777,-4.1604,-4.1296,-4.0554,-4.0496,-4.0496,-4.0496,-4.0496,-4.0496,-4.0496,-4.0496,-4.0496,-4.0496,-4.0496,-4.0496,-4.0496,-4.0496,-4.0496,-4.0496,-4.0496,-4.0496,-3.7344,-3.8085,-3.8631,-3.8689,-4.0382,-4.1868,-4.1306,-4.1138,-4.0989,-4.0616,-4.0821,-4.1456,-4.2621,-4.4753,-4.7372,-5.0578,0.0,0.0,0.0,0.0,0.0,0.0,0.0,0.0,0.0,0.0,0.0,0.0,0.0,0.0,0.0,0.0,0.0,0.0,0.0,0.0,-5.7997,-5.7997,-5.7997,-5.7997,-5.7556,-5.6932,-5.6124,-5.5317,-5.4509,0.0,0.0,-5.3185,-5.3185,-5.3185,-5.2949,-5.2472,-5.1665,-5.1077,-5.0565,-4.9334,-4.8893,-4.8838,-4.8434,-4.8306,-4.8306,-4.8306,-4.8012,-4.7571,-4.7204,-4.6341,-4.5409,-4.5038,-4.487,-4.4872,-4.5052,-4.5211,-4.539,-4.5559,-4.5594,-4.5594,-4.5594,-4.5594,-4.5594,-4.5594,-4.5594,-4.5594,-4.5594,-4.5594,-4.5594,-4.5594,-4.5594,-4.5287,-4.4412,-4.4297,-4.3662,-4.1981,-4.1788,-4.145,-4.0573,-4.0496,-4.0496,-4.0496,-4.0496,-4.0496,-4.0496,-4.0496,-4.0496,-4.0496,-4.0496,-4.0496,-4.0496,-4.0496,-4.0496,-4.0496,-4.0496,-4.0496,-3.6408,-3.7073,-3.7827,-3.884,-4.0815,-4.2683,-4.3342,-4.3077,-4.2799,-4.3221,-4.3284,-4.346,-4.4084,-4.6261,0.0,-5.4163,0.0,0.0,0.0,0.0,0.0,0.0,0.0,0.0,0.0,0.0,0.0,0.0,0.0,0.0,0.0,0.0,0.0,0.0,0.0,0.0,-5.7721,-5.7721,-5.7721,-5.7703,-5.7097,-5.629,-5.5299,-5.4675,-5.3959,-5.3185,-5.3185,-5.3075,-5.2931,-5.2931,-5.2435,-5.1628,-5.082,-5.0013,-4.9225,-4.8545,-4.8306,-4.8306,-4.8306,-4.8306,-4.8306,-4.8306,-4.7755,-4.7058,-4.6874,-4.5828,-4.4672,-4.447,-4.4366,-4.4419,-4.4757,-4.4966,-4.514,-4.5332,-4.5429,-4.5485,-4.5485,-4.5485,-4.5504,-4.5586,-4.5594,-4.5594,-4.5594,-4.5594,-4.5594,-4.5594,-4.5594,-4.5364,-4.4682,-4.4605,-4.4011,-4.2443,-4.2262,-4.1848,-4.0773,-4.058,-4.0496,-4.0496,-4.0496,-4.0496,-4.0496,-4.0496,-4.0496,-4.0496,-4.0496,-4.0496,-4.0496,-4.0496,-4.0496,-4.0496,-4.0496,-4.0496,-3.7142,-3.7641,-3.8266,-3.9881,-4.0984,-4.2112,-4.3669,-4.4231,-4.4884,-4.6505,-4.6775,-4.6749,-4.6825,-4.8862,-5.1764,-5.555,0.0,0.0,0.0,0.0,0.0,0.0,0.0,0.0,0.0,0.0,0.0,0.0,0.0,0.0,0.0,0.0,0.0,0.0,0.0,0.0,-5.6895,-5.6895,-5.6895,-5.6895,-5.684,-5.5996,-5.4473,-5.4436,-5.3959,-5.3185,-5.3185,-5.2784,-5.2087,-5.2087,-5.161,-5.082,-4.9994,-4.915,-4.8398,-4.8324,-4.8306,-4.8306,-4.8306,-4.8306,-4.8306,-4.8306,-4.7755,-4.6947,-4.6214,-4.5388,-4.4526,-4.3791,-4.3567,-4.3646,-4.3986,-4.4587,-4.503,-4.4732,-4.4908,-4.5148,-4.5148,-4.5148,-4.5222,-4.555,-4.5594,-4.5594,-4.5594,-4.5594,-4.5594,-4.5594,-4.5594,-4.5575,-4.5518,-4.5518,-4.5025,-4.3784,-4.3658,-4.3009,-4.1378,-4.0788,-4.0496,-4.0496,-4.0496,-4.0496,-4.0496,-4.0496,-4.0496,-4.0496,-4.0496,-4.0496,-4.0496,-4.0496,-4.0496,-4.0496,-4.0496,-4.0496,-3.5892,-3.734,-3.8911,-3.9501,-4.1362,-4.3457,-4.5141,-4.6184,-4.7261,-4.9023,-4.9368,-4.9491,-4.9988,0.0,-5.3087,0.0,0.0,0.0,0.0,0.0,0.0,0.0,0.0,0.0,0.0,0.0,0.0,0.0,0.0,0.0,0.0,0.0,0.0,0.0,0.0,0.0,0.0,-5.6051,-5.5794,-5.5317,-5.5317,-5.4987,-5.4381,-5.3885,-5.35,-5.3167,-5.2674,-5.227,-5.1958,-5.1463,-5.0784,-4.9958,-4.9114,-4.86,-4.8306,-4.8306,-4.8306,-4.8306,-4.8306,-4.8306,-4.8233,-4.7718,-4.7003,-4.6214,-4.5406,-4.4599,-4.3883,-4.3589,-4.3515,-4.358,-4.3909,-4.4219,-4.4455,-4.4567,-4.4714,-4.48,-4.48,-4.4943,-4.5148,-4.5253,-4.5467,-4.5594,-4.5594,-4.5429,-4.5352,-4.5568,-4.5419,-4.5362,-4.5577,-4.5419,-4.4907,-4.3904,-4.2682,-4.1469,-4.0344,-4.0053,-3.9935,-3.9935,-4.0283,-4.0496,-4.0496,-4.0496,-4.0496,-4.0496,-4.0496,-4.0496,-4.0496,-4.0496,-4.0496,-4.0496,-4.0496,-4.0496,-3.5984,-3.7625,-3.9563,-3.9573,-4.1817,-4.4574,-4.671,-4.7873,-4.9163,-5.1433,-5.1683,-5.1664,-5.2212,-5.2799,0.0,0.0,0.0,0.0,0.0,0.0,0.0,0.0,0.0,0.0,0.0,0.0,0.0,0.0,0.0,0.0,0.0,0.0,0.0,0.0,0.0,0.0,0.0,-5.5207,-5.4821,-5.4014,-5.4014,-5.4014,-5.4014,-5.3463,-5.3078,-5.2803,-5.2234,-5.1701,-5.1208,-5.0637,-4.9921,-4.9132,-4.8526,-4.8306,-4.8306,-4.8306,-4.8306,-4.8306,-4.8306,-4.8306,-4.8177,-4.7351,-4.6562,-4.5755,-4.4947,-4.414,-4.3515,-4.3515,-4.3515,-4.3546,-4.3772,-4.3909,-4.4028,-4.4209,-4.4337,-4.4419,-4.4419,-4.4587,-4.4793,-4.4919,-4.5129,-4.5283,-4.5283,-4.5096,-4.5011,-4.5253,-4.5096,-4.4927,-4.488,-4.4677,-4.4167,-4.3208,-4.1638,-4.0416,-3.9877,-3.9691,-3.9599,-3.9599,-3.9994,-4.0257,-4.0372,-4.0457,-4.0496,-4.0496,-4.0496,-4.0496,-4.0496,-4.0496,-4.0496,-4.0496,-4.0496,-4.0496,-3.789,-3.8764,-4.0164,-4.0369,-4.2389,-4.5148,-4.8217,-4.9188,-5.0394,-5.3799,-5.3818,-5.3222,-5.3222,-5.3222,0.0,0.0,0.0,0.0,0.0,0.0,0.0,0.0,0.0,0.0,0.0,0.0,0.0,0.0,0.0,0.0,0.0,0.0,0.0,0.0,0.0,0.0,0.0,-5.4399,-5.3995,-5.3185,-5.3185,-5.3185,-5.3185,-5.3185,-5.2747,-5.1995,-5.1977,-5.1079,-4.961,-4.9592,-4.9077,-4.8306,-4.8306,-4.8306,-4.8306,-4.8306,-4.8306,-4.8306,-4.8306,-4.8288,-4.8141,-4.7333,-4.6526,-4.5736,-4.4947,-4.4121,-4.3515,-4.3515,-4.3515,-4.3515,-4.3515,-4.3758,-4.3909,-4.358,-4.374,-4.4001,-4.4001,-4.4001,-4.4117,-4.4514,-4.4612,-4.4593,-4.4593,-4.4612,-4.4612,-4.4593,-4.4612,-4.4291,-4.3416,-4.3303,-4.2855,-4.1722,-4.0798,-4.03,-4.03,-3.9865,-3.9599,-3.9599,-3.9599,-3.9754,-4.0081,-4.0356,-4.0489,-4.0496,-4.0496,-4.0496,-4.0496,-4.0496,-4.0496,-4.0496,-4.0496,-4.0496,-3.7337,-3.8935,-4.1188,-4.1852,-4.4976,-4.8288,-4.9816,-5.0672,-5.1952,-5.4761,-5.4684,-5.4107,-5.4107,0.0,0.0,0.0,0.0,0.0,0.0,0.0,0.0,0.0,0.0,0.0,0.0,0.0,0.0,0.0,0.0,0.0,0.0,0.0,0.0,0.0,0.0,0.0,0.0,0.0,-5.3445,-5.3185,-5.3185,-5.3185,-5.3167,-5.2619,-5.2215,-5.194,-5.0804,-5.0051,-4.9555,-4.893,-4.8526,-4.8306,-4.8306,-4.8306,-4.8306,-4.8306,-4.7938,-4.7461,-4.7461,-4.7095,-4.6489,-4.5681,-4.5241,-4.4911,-4.4103,-4.3681,-4.3515,-4.3515,-4.3515,-4.3515,-4.3515,-4.3563,-4.3612,-4.3513,-4.358,-4.3646,-4.3646,-4.3833,-4.4046,-4.4146,-4.4419,-4.4593,-4.4593,-4.4378,-4.4261,-4.4553,-4.4346,-4.3876,-4.3049,-4.2445,-4.167,-4.0535,-4.0161,-3.9777,-3.9224,-3.9046,-3.897,-3.897,-3.9144,-3.9389,-3.9724,-3.9821,-3.9974,-4.0213,-4.0213,-4.0321,-4.0496,-4.0496,-4.0496,-4.0496,-4.0496,-4.0496,-3.874,-4.0568,-4.2814,-4.3873,-4.6521,-4.9471,-5.1702,-5.2587,-5.3472,-5.5318,-5.5049,-5.4607,-5.4914,-5.4722,0.0,0.0,0.0,0.0,0.0,0.0,0.0,0.0,0.0,0.0,0.0,0.0,0.0,0.0,0.0,0.0,0.0,0.0,0.0,0.0,0.0,0.0,0.0,0.0,0.0,-5.2729,-5.2729,-5.2564,-5.2252,-5.2068,-5.1646,-5.0987,-4.9646,-4.9077,-4.904,-4.8526,-4.8306,-4.8269,-4.7957,-4.781,-4.7792,-4.7462,-4.704,-4.6617,-4.6617,-4.6305,-4.5773,-4.4966,-4.4691,-4.4562,-4.3736,-4.3515,-4.3515,-4.3515,-4.3515,-4.3515,-4.3515,-4.3515,-4.3515,-4.3515,-4.3515,-4.3515,-4.3515,-4.3662,-4.3804,-4.3804,-4.4004,-4.4169,-4.4169,-4.3958,-4.3881,-4.414,-4.3419,-4.2786,-4.2616,-4.1352,-4.0303,-3.9932,-3.9606,-3.9239,-3.8744,-3.8707,-3.8707,-3.8707,-3.884,-3.9031,-3.9229,-3.9469,-3.9709,-3.9901,-4.0022,-4.0177,-4.0347,-4.0457,-4.0496,-4.0496,-4.0496,-4.0496,-4.0985,-4.272,-4.4533,-4.5986,-4.7422,-4.949,-5.3472,-5.4376,-5.4626,-5.5511,0.0,-5.4818,-5.5568,0.0,0.0,0.0,0.0,0.0,0.0,0.0,0.0,0.0,0.0,0.0,0.0,0.0,0.0,0.0,0.0,0.0,0.0,0.0,0.0,0.0,0.0,0.0,0.0,0.0,0.0,0.0,-5.1885,-5.1463,-5.0729,-5.1444,-5.093,-4.9445,-4.8636,-4.8306,-4.8306,-4.8306,-4.8269,-4.8122,-4.7388,-4.7058,-4.6892,-4.6177,-4.5847,-4.5792,-4.5792,-4.5736,-4.5553,-4.4837,-4.4599,-4.4452,-4.3718,-4.3515,-4.3515,-4.3515,-4.3515,-4.3515,-4.3515,-4.3515,-4.3515,-4.3515,-4.3515,-4.3515,-4.3515,-4.3515,-4.3515,-4.3515,-4.3515,-4.3515,-4.3515,-4.3515,-4.3515,-4.3515,-4.2194,-4.1444,-4.2121,-4.0286,-3.9148,-3.9717,-3.9203,-3.8781,-3.8707,-3.8707,-3.8707,-3.8707,-3.8707,-3.8707,-3.8707,-3.9229,-3.9529,-3.9552,-3.984,-4.0032,-4.0101,-4.0347,-4.0473,-4.0496,-4.0496,-4.0496,-3.8965,-4.1216,-4.3923,-4.6195,-4.8942,-5.15,-5.3106,-5.3491,-5.3895,-5.5395,-5.5549,-5.5491,0.0,0.0,0.0,0.0,0.0,0.0,0.0,0.0,0.0,0.0,0.0,0.0,0.0,0.0,0.0,0.0,0.0,0.0,0.0,0.0,0.0,0.0,0.0,0.0,-5.2252,-5.1628,-5.1242,0.0,-5.1059,-5.0637,-4.9867,-5.0051,-4.9536,-4.8563,-4.8379,-4.8306,-4.8306,-4.8306,-4.792,-4.7333,-4.7168,-4.6709,-4.614,-4.5957,-4.5498,-4.4966,-4.4966,-4.4544,-4.3992,-4.3809,-4.3754,-4.3718,-4.3551,-4.3515,-4.3515,-4.3515,-4.3515,-4.3515,-4.3515,-4.3515,-4.3515,-4.3515,-4.3515,-4.3515,-4.3515,-4.3515,-4.3515,-4.3515,-4.3515,-4.3515,-4.3515,-4.3515,-4.3515,-4.3515,-4.2671,-4.1882,-4.1407,-4.0893,-4.0159,-3.9074,-3.9368,-3.9386,-3.8762,-3.8707,-3.8707,-3.8707,-3.8707,-3.8707,-3.8707,-3.8818,-3.8994,-3.9199,-3.9276,-3.9576,-4.0101,-4.0158,-4.0285,-4.0496,-4.0496,-4.0496,-3.9023,-4.1242,-4.3741,-4.7232,-5.0,-5.2135,-5.301,-5.3203,-5.3453,-5.4318,-5.4491,0.0,0.0,0.0,0.0,0.0,0.0,0.0,0.0,0.0,0.0,0.0,0.0,0.0,0.0,0.0,0.0,0.0,0.0,0.0,0.0,0.0,0.0,0.0,0.0,0.0,-5.1426,-5.1004,-5.0618,-5.0215,-5.0215,-4.9774,-4.8967,-4.8967,-4.8728,-4.8306,-4.8306,-4.8067,-4.7718,-4.7718,-4.7241,-4.6489,-4.6104,-4.5682,-4.5278,-4.4892,-4.4488,-4.4121,-4.4121,-4.3846,-4.3515,-4.3515,-4.3515,-4.3515,-4.3515,-4.3515,-4.3515,-4.3515,-4.3515,-4.3515,-4.3515,-4.3515,-4.3515,-4.3515,-4.3515,-4.3515,-4.3515,-4.3515,-4.3515,-4.3515,-4.3515,-4.3515,-4.3515,-4.3515,-4.3515,-4.3515,-4.2818,-4.2286,-4.2249,-4.124,-4.0359,-3.9884,-3.9533,-3.9166,-3.8744,-3.8707,-3.8707,-3.8707,-3.8707,-3.8707,-3.8707,-3.8707,-3.8777,-3.8909,-3.9036,-3.9264,-3.9622,-3.9786,-3.9924,-4.0072,-4.0221,-4.0313,-3.8773,-4.1203,-4.3732,-4.8078,-5.0337,-5.1654,-5.2375,-5.2664,-5.2779,-5.2779,0.0,0.0,0.0,0.0,0.0,0.0,0.0,0.0,0.0,0.0,0.0,0.0,0.0,0.0,0.0,0.0,0.0,0.0,0.0,0.0,0.0,0.0,0.0,0.0,0.0,-5.0582,-5.0582,-5.0435,-5.0031,-4.939,-4.939,-4.8985,-4.8306,-4.8159,-4.8177,-4.8306,-4.8159,-4.7718,-4.7094,-4.6947,-4.6434,-4.5626,-4.4966,-4.4635,-4.4415,-4.3736,-4.3515,-4.3515,-4.3515,-4.3515,-4.3515,-4.3515,-4.3515,-4.3515,-4.3515,-4.3515,-4.3515,-4.3515,-4.3515,-4.3515,-4.3515,-4.3515,-4.3515,-4.3515,-4.3515,-4.3515,-4.3515,-4.3515,-4.3515,-4.3515,-4.3515,-4.3515,-4.3515,-4.3515,-4.3515,-4.3515,-4.2928,-4.269,-4.3222,-4.1679,-4.0616,-4.0873,-3.9845,-3.9001,-3.8726,-3.8707,-3.8707,-3.8707,-3.8707,-3.8707,-3.8707,-3.8707,-3.8707,-3.8707,-3.8923,-3.9044,-3.9112,-3.9377,-3.9534,-3.9611,-3.9891,-4.0032,-3.4767,-3.8906,-4.3599,-4.7328,-4.9009,-4.976,-4.9875,0.0,-5.1039,0.0,0.0,0.0,0.0,0.0,0.0,0.0,0.0,0.0,0.0,0.0,0.0,0.0,0.0,0.0,0.0,0.0,0.0,0.0,0.0,0.0,0.0,0.0,-5.0912,-5.0802,-5.0068,0.0,-4.9757,-4.9003,-4.8581,-4.8471,-4.8471,-4.8416,-4.8288,-4.7571,-4.7626,-4.8269,-4.7553,-4.7204,-4.7058,-4.6361,-4.559,-4.4856,-4.4745,-4.4268,-4.3662,-4.3551,-4.3515,-4.3515,-4.3515,-4.3515,-4.3515,-4.3515,-4.3515,-4.3515,-4.3515,-4.3515,-4.3515,-4.3515,-4.3515,-4.3515,-4.3515,-4.3515,-4.3515,-4.3515,-4.3515,-4.3515,-4.3515,-4.3515,-4.3515,-4.3515,-4.3515,-4.3515,-4.3515,-4.3515,-4.3515,-4.3515,-4.3423,-4.313,-4.2543,-4.2782,-4.2266,-4.0267,-4.0487,-4.0215,-3.8817,-3.8707,-3.8707,-3.8707,-3.8707,-3.8707,-3.8707,-3.8707,-3.8707,-3.8707,-3.8735,-3.8869,-3.9112,-3.9133,-3.9333,-3.9599,-3.9645,-3.9819,-3.5249,-3.949,-4.3652,-4.6664,-4.8048,-4.8663,-4.8663,-4.8971,-4.924,0.0,0.0,0.0,0.0,0.0,0.0,0.0,0.0,0.0,0.0,0.0,0.0,0.0,0.0,0.0,0.0,0.0,0.0,0.0,0.0,0.0,0.0,-5.0123,-4.9903,-4.9407,-4.904,0.0,-4.8875,-4.8489,-4.8306,-4.8306,-4.8306,-4.8067,-4.7608,-4.7259,-4.7278,-4.7571,-4.6783,-4.6177,-4.5718,-4.5369,-4.4745,-4.403,-4.403,-4.3809,-4.3515,-4.3515,-4.3515,-4.3515,-4.3515,-4.3515,-4.3515,-4.3515,-4.3515,-4.3515,-4.3515,-4.3515,-4.3515,-4.3515,-4.3515,-4.3515,-4.3515,-4.3515,-4.3515,-4.3515,-4.3515,-4.3515,-4.3515,-4.3515,-4.3515,-4.3515,-4.3515,-4.3515,-4.3515,-4.3515,-4.3515,-4.3515,-4.3515,-4.3369,-4.302,-4.2892,-4.2249,-4.0726,-4.0487,-3.9955,-3.8799,-3.8707,-3.8707,-3.8707,-3.8707,-3.8707,-3.8707,-3.8707,-3.8707,-3.8707,-3.8707,-3.8762,-3.8884,-3.8884,-3.8952,-3.9087,-3.9244,-3.9389,-3.4968,-3.8442,-4.1478,-4.4519,-4.622,-4.7182,0.0,0.0,0.0,0.0,0.0,0.0,0.0,0.0,0.0,0.0,0.0,0.0,0.0,0.0,0.0,0.0,0.0,0.0,0.0,0.0,0.0,0.0,0.0,0.0,-4.9317,-4.928,-4.8967,-4.8324,-4.8306,-4.8306,-4.8306,-4.8104,-4.8012,-4.7975,-4.7792,-4.7388,-4.6782,-4.6581,-4.6489,-4.6452,-4.5865,-4.5259,-4.4673,-4.4488,-4.4048,-4.3515,-4.3515,-4.3515,-4.3515,-4.3515,-4.3515,-4.3515,-4.3515,-4.3515,-4.3515,-4.3515,-4.3515,-4.3515,-4.3515,-4.3515,-4.3515,-4.3515,-4.3515,-4.3515,-4.3515,-4.3515,-4.3515,-4.3515,-4.3515,-4.3515,-4.3515,-4.3515,-4.3515,-4.3515,-4.3563,-4.3631,-4.3631,-4.3712,-4.3742,-4.3629,-4.3631,-4.3597,-4.3496,-4.2983,-4.2213,-4.1205,-4.0561,-3.979,-3.8799,-3.8707,-3.8707,-3.8707,-3.8707,-3.8707,-3.8707,-3.8707,-3.8707,-3.8707,-3.8707,-3.8707,-3.8707,-3.8707,-3.8707,-3.8707,-3.8909,-3.9036,-3.157,-3.3409,-3.5345,-3.9746,-4.2681,-4.4701,0.0,0.0,0.0,0.0,0.0,0.0,0.0,0.0,0.0,0.0,0.0,0.0,0.0,0.0,0.0,0.0,0.0,0.0,0.0,0.0,0.0,0.0,0.0,0.0,-4.8379,-4.8379,-4.8361,-4.8306,-4.8306,-4.8306,-4.8306,-4.7535,-4.7168,-4.7149,-4.6397,-4.5993,-4.5938,-4.5168,-4.4819,-4.4819,-4.4764,-4.4745,-4.4636,-4.3883,-4.3551,-4.3515,-4.3515,-4.3515,-4.3515,-4.3515,-4.3515,-4.3515,-4.3515,-4.3515,-4.3515,-4.3515,-4.3515,-4.3515,-4.3515,-4.3515,-4.3515,-4.3515,-4.3515,-4.3515,-4.3515,-4.3515,-4.3515,-4.3515,-4.3515,-4.3515,-4.3515,-4.3515,-4.3515,-4.3515,-4.3775,-4.3971,-4.3971,-4.4276,-4.4419,-4.4031,-4.3971,-4.3849,-4.3548,-4.346,-4.2837,-4.126,-4.1058,-4.0398,-3.8836,-3.8707,-3.8707,-3.8707,-3.8707,-3.8707,-3.8707,-3.8707,-3.8707,-3.8707,-3.8707,-3.8707,-3.8707,-3.8707,-3.8707,-3.8707,-3.8704,-3.8855,-3.0378,-3.2534,-3.4666,-3.7228,-4.0135,-4.2479,-4.2813,0.0,0.0,0.0,0.0,0.0,0.0,0.0,0.0,0.0,0.0,0.0,0.0,0.0,0.0,0.0,0.0,0.0,0.0,0.0,0.0,0.0,0.0,0.0,-4.8306,-4.781,-4.7516,-4.7516,-4.704,-4.6764,-4.6764,-4.6471,-4.6342,-4.6342,-4.6049,-4.5626,-4.5131,-4.4837,-4.4415,-4.392,-4.392,-4.392,-4.3901,-4.3608,-4.3515,-4.3515,-4.3515,-4.3515,-4.3515,-4.3515,-4.3515,-4.3515,-4.3515,-4.3515,-4.3515,-4.3515,-4.3515,-4.3515,-4.3515,-4.3515,-4.3515,-4.3515,-4.3515,-4.3515,-4.3515,-4.3515,-4.3515,-4.3515,-4.3515,-4.3515,-4.3515,-4.3515,-4.3515,-4.3515,-4.3597,-4.3695,-4.3695,-4.3807,-4.3855,-4.3693,-4.3695,-4.3629,-4.3513,-4.3515,-4.3075,-4.1992,-4.1407,-4.0655,-3.9551,-3.9001,-3.8707,-3.8707,-3.8707,-3.8707,-3.8707,-3.8707,-3.8707,-3.8707,-3.8707,-3.8707,-3.8707,-3.8707,-3.8707,-3.8707,-3.8707,-3.8747,-2.8651,-3.0669,-3.2888,0.0,0.0,-3.9261,-4.0979,0.0,0.0,0.0,0.0,0.0,0.0,0.0,0.0,0.0,0.0,0.0,0.0,0.0,0.0,0.0,0.0,0.0,0.0,0.0,0.0,0.0,0.0,0.0,-4.7498,-4.7003,-4.6691,-4.6691,-4.6177,-4.5902,-4.5902,-4.5626,-4.5498,-4.5498,-4.5223,-4.48,-4.4305,-4.4305,-4.4011,-4.3515,-4.3515,-4.3515,-4.3515,-4.3515,-4.3515,-4.3515,-4.3515,-4.3515,-4.3515,-4.3515,-4.3515,-4.3515,-4.3515,-4.3515,-4.3515,-4.3515,-4.3515,-4.3515,-4.3515,-4.3515,-4.3515,-4.3515,-4.3515,-4.3515,-4.3515,-4.3515,-4.3515,-4.3515,-4.3515,-4.3515,-4.3515,-4.3515,-4.3515,-4.3515,-4.3597,-4.3679,-4.3679,-4.3775,-4.3804,-4.3695,-4.3679,-4.3631,-4.3513,-4.3259,-4.2782,-4.1992,-4.1185,-4.0377,-3.957,-3.9019,-3.8707,-3.8707,-3.8707,-3.8707,-3.8707,-3.8707,-3.8707,-3.8707,-3.8707,-3.8707,-3.8707,-3.8707,-3.8707,-3.8707,-3.8707,-3.8707,0.0,0.0,0.0,0.0,0.0,0.0,0.0,0.0,0.0,0.0,0.0,0.0,0.0,0.0,0.0,0.0,0.0,0.0,0.0,0.0,0.0,0.0,0.0,0.0,0.0,0.0,0.0,0.0,0.0,-4.5902,-4.5902,-4.5883,-4.5847,-4.5828,-4.5828,-4.5828,-4.5828,-4.5057,-4.4654,-4.4672,-4.3864,-4.3515,-4.3515,-4.3515,-4.3515,-4.3515,-4.3515,-4.3515,-4.3515,-4.3515,-4.3515,-4.3515,-4.3515,-4.3515,-4.3515,-4.3515,-4.3515,-4.3515,-4.3515,-4.3515,-4.3515,-4.3515,-4.3515,-4.3515,-4.3515,-4.3515,-4.3515,-4.3515,-4.3515,-4.3515,-4.3515,-4.3515,-4.3515,-4.3515,-4.3515,-4.3515,-4.3515,-4.3515,-4.3515,-4.3515,-4.3756,-4.3986,-4.3986,-4.4323,-4.4433,-4.4028,-4.3986,-4.3865,-4.3548,-4.2818,-4.2047,-4.1242,-4.0432,-3.9625,-3.8836,-3.8726,-3.8707,-3.8707,-3.8707,-3.8707,-3.8707,-3.8707,-3.8707,-3.8707,-3.8707,-3.8707,-3.8707,-3.8707,-3.8707,-3.8707,-3.8707,-3.8707,-2.7719,0.0,0.0,0.0,0.0,0.0,0.0,0.0,0.0,0.0,0.0,0.0,0.0,0.0,0.0,0.0,0.0,0.0,0.0,0.0,0.0,0.0,0.0,0.0,0.0,0.0,0.0,0.0,0.0,-4.5902,-4.5902,-4.5351,-4.4764,-4.4176,-4.4158,-4.4158,-4.4158,-4.3938,-4.3828,-4.3828,-4.3625,-4.3515,-4.3515,-4.3515,-4.3515,-4.3515,-4.3515,-4.3515,-4.3515,-4.3515,-4.3515,-4.3515,-4.3515,-4.3515,-4.3515,-4.3515,-4.3515,-4.3515,-4.3515,-4.3515,-4.3515,-4.3515,-4.3515,-4.3515,-4.3515,-4.3515,-4.3515,-4.3515,-4.3515,-4.3515,-4.3515,-4.3515,-4.3515,-4.3515,-4.3515,-4.3515,-4.3515,-4.3515,-4.3515,-4.3515,-4.3563,-4.3629,-4.3629,-4.3744,-4.3758,-4.3662,-4.3629,-4.3595,-4.3513,-4.3296,-4.3075,-4.2855,-4.1607,-4.0689,-4.0453,-3.9368,-3.8707,-3.8707,-3.8707,-3.8707,-3.8707,-3.8707,-3.8707,-3.8707,-3.8707,-3.8707,-3.8707,-3.8707,-3.8707,-3.8707,-3.8707,-3.8707,-2.918,-2.9952,-3.0875,0.0,0.0,0.0,0.0,-3.4696,0.0,0.0,0.0,0.0,0.0,0.0,0.0,0.0,0.0,0.0,0.0,0.0,0.0,0.0,0.0,0.0,0.0,0.0,0.0,0.0,-4.5014,-4.4892,-4.4892,-4.4452,-4.3975,-4.3497,-4.3515,-4.3515,-4.3515,-4.3515,-4.3515,-4.3515,-4.3515,-4.3515,-4.3515,-4.3515,-4.3515,-4.3515,-4.3515,-4.3515,-4.3515,-4.3515,-4.3515,-4.3515,-4.3515,-4.3515,-4.3515,-4.3515,-4.3515,-4.3515,-4.3515,-4.3515,-4.3515,-4.3515,-4.3515,-4.3515,-4.3515,-4.3515,-4.3515,-4.3515,-4.3515,-4.3515,-4.3515,-4.3515,-4.3515,-4.3515,-4.3515,-4.3515,-4.3515,-4.3515,-4.3515,-4.3515,-4.3515,-4.3515,-4.3515,-4.3515,-4.3515,-4.3515,-4.3515,-4.3515,-4.3515,-4.3221,-4.2873,-4.2525,-4.1368,-4.0469,-4.0139,-3.9239,-3.8707,-3.8707,-3.8707,-3.8707,-3.8707,-3.8707,-3.8707,-3.8707,-3.8707,-3.8707,-3.8707,-3.8707,-3.8707,-3.8707,-3.8707,-3.8707,-3.0993,-3.1014,-3.1525,0.0,0.0,0.0,-3.4054,-3.4448,0.0,0.0,0.0,0.0,0.0,0.0,0.0,0.0,0.0,0.0,0.0,0.0,0.0,0.0,0.0,0.0,0.0,0.0,0.0,-4.3662,-4.3548,-4.3515,-4.3515,-4.3515,-4.3515,-4.3515,-4.3515,-4.3515,-4.3515,-4.3515,-4.3515,-4.3515,-4.3515,-4.3515,-4.3515,-4.3515,-4.3515,-4.3515,-4.3515,-4.3515,-4.3497,-4.3427,-4.3444,-4.3515,-4.3515,-4.3515,-4.3515,-4.3515,-4.3515,-4.3515,-4.3515,-4.3515,-4.3515,-4.3515,-4.3515,-4.3515,-4.3515,-4.3515,-4.3515,-4.3515,-4.3515,-4.3515,-4.3515,-4.3515,-4.3515,-4.3515,-4.3515,-4.3515,-4.3515,-4.3515,-4.3515,-4.3515,-4.3515,-4.3515,-4.3515,-4.3515,-4.3515,-4.3515,-4.3515,-4.3515,-4.3515,-4.2873,-4.2139,-4.1315,-4.0506,-3.9698,-3.8909,-3.8762,-3.8707,-3.8707,-3.8707,-3.8707,-3.8707,-3.8707,-3.8707,-3.8707,-3.8707,-3.8707,-3.8707,-3.8707,-3.8707,-3.8707,-3.8707,-3.8707,-3.4348,-3.4327,0.0,0.0,0.0,0.0,-2.9734,-3.089,0.0,0.0,0.0,0.0,0.0,0.0,0.0,0.0,0.0,0.0,0.0,0.0,0.0,0.0,0.0,0.0,0.0,0.0,-4.419,-4.4364,-4.3839,-4.3515,-4.3515,-4.3515,-4.3515,-4.3515,-4.3515,-4.3515,-4.3515,-4.3515,-4.3515,-4.3515,-4.3515,-4.3515,-4.3515,-4.3515,-4.3515,-4.3515,-4.3515,-4.3515,-4.348,-4.3032,-4.3124,-4.3515,-4.3515,-4.3515,-4.3515,-4.3515,-4.3515,-4.3515,-4.3515,-4.3515,-4.3515,-4.3515,-4.3515,-4.3515,-4.3515,-4.3515,-4.3515,-4.3515,-4.3515,-4.3515,-4.3515,-4.3515,-4.3515,-4.3515,-4.3515,-4.3515,-4.3515,-4.3515,-4.3515,-4.3515,-4.3515,-4.3515,-4.3515,-4.3515,-4.3515,-4.3515,-4.3515,-4.3515,-4.3515,-4.3368,-4.2947,-4.2158,-4.135,-4.0543,-3.9735,-3.9074,-3.8707,-3.8707,-3.8707,-3.8707,-3.8707,-3.8707,-3.8707,-3.8707,-3.8707,-3.8707,-3.8707,-3.8707,-3.8707,-3.8707,-3.8707,-3.8707,-3.6682,0.0,0.0,-3.4214,0.0,0.0,0.0,0.0,0.0,0.0,0.0,0.0,0.0,0.0,0.0,0.0,0.0,0.0,0.0,0.0,0.0,0.0,0.0,0.0,0.0,0.0,-4.4016,-4.405,-4.3712,-4.3515,-4.3515,-4.3515,-4.3515,-4.3515,-4.3515,-4.3515,-4.3515,-4.3515,-4.3515,-4.3515,-4.3515,-4.3515,-4.3515,-4.3515,-4.3515,-4.3515,-4.3515,-4.3357,-4.3069,-4.2807,-4.2675,-4.2696,-4.2977,-4.3105,-4.3124,-4.341,-4.3515,-4.3515,-4.3515,-4.3515,-4.3515,-4.3515,-4.3515,-4.3515,-4.3515,-4.3515,-4.3515,-4.3515,-4.3515,-4.3515,-4.3515,-4.3515,-4.3515,-4.3515,-4.3515,-4.3515,-4.3515,-4.3515,-4.3386,-4.2983,-4.3222,-4.3515,-4.3515,-4.3167,-4.3039,-4.3441,-4.3515,-4.3515,-4.3515,-4.3515,-4.3039,-4.1827,-4.1334,-4.06,-3.9405,-3.8927,-3.8707,-3.8707,-3.8707,-3.8707,-3.8707,-3.8707,-3.8707,-3.8707,-3.8707,-3.8707,-3.8707,-3.8707,-3.8707,-3.8707,-3.8707,-3.8707,0.0,0.0,0.0,0.0,0.0,-3.4309,0.0,0.0,0.0,-3.4137,0.0,0.0,0.0,0.0,0.0,0.0,0.0,0.0,0.0,0.0,0.0,0.0,0.0,0.0,0.0,0.0,-4.3123,-4.3273,-4.2965,-4.3019,-4.3478,-4.3515,-4.3515,-4.3515,-4.3515,-4.3515,-4.3515,-4.3515,-4.3515,-4.3515,-4.3515,-4.3515,-4.3515,-4.3515,-4.3515,-4.3515,-4.3515,-4.3196,-4.2692,-4.2559,-4.2162,-4.1686,-4.2302,-4.2537,-4.2578,-4.3142,-4.3357,-4.3375,-4.3462,-4.3515,-4.3515,-4.3515,-4.3515,-4.3515,-4.3515,-4.3515,-4.3515,-4.3515,-4.3515,-4.3515,-4.3515,-4.3515,-4.3515,-4.3515,-4.3515,-4.3515,-4.3515,-4.3515,-4.3296,-4.2653,-4.2928,-4.3276,-4.3276,-4.2855,-4.2745,-4.3387,-4.3369,-4.3331,-4.3478,-4.3222,-4.2543,-4.1242,-4.0948,-4.027,-3.8836,-3.8707,-3.8707,-3.8707,-3.8707,-3.8707,-3.8707,-3.8707,-3.8707,-3.8707,-3.8707,-3.8707,-3.8707,-3.8707,-3.8707,-3.8707,-3.8707,-3.8707,0.0,0.0,0.0,0.0,-3.7739,0.0,0.0,0.0,-3.3878,-3.1544,0.0,0.0,0.0,0.0,0.0,0.0,0.0,0.0,0.0,0.0,0.0,0.0,0.0,0.0,0.0,0.0,0.0,-4.2301,-4.1111,-4.1238,-4.3404,-4.3515,-4.3515,-4.3515,-4.3515,-4.3515,-4.3515,-4.3515,-4.3515,-4.3515,-4.3515,-4.3515,-4.3515,-4.3515,-4.3515,-4.3515,-4.3515,-4.3196,-4.2655,-4.2121,-4.1556,-4.1064,-4.1664,-4.1895,-4.1979,-4.2578,-4.2788,-4.2864,-4.3339,-4.3515,-4.3515,-4.3515,-4.3515,-4.3515,-4.3515,-4.3515,-4.3515,-4.3515,-4.3515,-4.3515,-4.3515,-4.3515,-4.3515,-4.3515,-4.3515,-4.3515,-4.3515,-4.3515,-4.3478,-4.3386,-4.2855,-4.2433,-4.2433,-4.2947,-4.3404,-4.3496,-4.2892,-4.269,-4.3423,-4.2249,-4.1297,-4.1113,-4.0469,-3.9662,-3.8781,-3.8707,-3.8707,-3.8707,-3.8707,-3.8707,-3.8707,-3.8707,-3.8707,-3.8707,-3.8707,-3.8707,-3.8707,-3.8707,-3.8707,-3.8707,-3.8707,-3.8707,0.0,0.0,0.0,0.0,0.0,0.0,-3.3239,0.0,-3.2823,0.0,0.0,0.0,0.0,0.0,0.0,0.0,0.0,0.0,0.0,0.0,0.0,0.0,0.0,0.0,0.0,0.0,0.0,0.0,0.0,-4.0047,-4.2011,-4.2543,-4.302,-4.3496,-4.3515,-4.3515,-4.3515,-4.3515,-4.3515,-4.3515,-4.3515,-4.3515,-4.3515,-4.3515,-4.3515,-4.3515,-4.3515,-4.2995,-4.2162,-4.1895,-4.1263,-4.0449,-4.0696,-4.099,-4.1358,-4.1958,-4.2382,-4.2713,-4.2958,-4.3232,-4.3515,-4.3515,-4.3515,-4.3515,-4.3515,-4.3515,-4.3387,-4.2928,-4.28,-4.269,-4.2231,-4.2451,-4.28,-4.28,-4.3149,-4.3515,-4.3515,-4.3515,-4.3368,-4.2892,-4.291,-4.2837,-4.2378,-4.258,-4.2947,-4.3441,-4.3221,-4.3112,-4.346,-4.291,-4.2139,-4.1187,-4.0799,-4.0084,-3.8817,-3.8707,-3.8707,-3.8707,-3.8707,-3.8707,-3.8707,-3.8707,-3.8707,-3.8707,-3.8707,-3.8707,-3.8707,-3.8707,-3.8707,-3.8707,-3.8707,-3.8707,-4.2765,0.0,0.0,0.0,0.0,0.0,0.0,0.0,0.0,0.0,0.0,0.0,0.0,0.0,0.0,0.0,0.0,0.0,0.0,0.0,0.0,0.0,0.0,0.0,0.0,0.0,0.0,0.0,0.0,0.0,-4.0653,-4.1534,-4.2341,-4.3149,-4.3404,-4.3515,-4.3515,-4.3515,-4.3515,-4.3515,-4.3515,-4.3515,-4.3515,-4.3515,-4.3515,-4.3515,-4.3515,-4.2847,-4.181,-4.181,-4.1145,-4.0096,-4.0096,-4.0343,-4.075,-4.1335,-4.1937,-4.248,-4.2635,-4.305,-4.346,-4.3239,-4.3331,-4.346,-4.3239,-4.3331,-4.3386,-4.2782,-4.2635,-4.2433,-4.1644,-4.2029,-4.2561,-4.2359,-4.291,-4.3515,-4.3515,-4.3515,-4.3331,-4.2745,-4.3094,-4.3296,-4.2727,-4.2635,-4.2818,-4.3423,-4.3296,-4.324,-4.3478,-4.3112,-4.2396,-4.1224,-4.0893,-4.0212,-3.8817,-3.8707,-3.8707,-3.8707,-3.8707,-3.8707,-3.8707,-3.8707,-3.8707,-3.8707,-3.8707,-3.8707,-3.8707,-3.8707,-3.8707,-3.8707,-3.8707,-3.8707,0.0,0.0,0.0,-3.8623,0.0,0.0,0.0,0.0,-3.4454,0.0,0.0,0.0,0.0,0.0,-3.1342,-3.136,0.0,0.0,0.0,0.0,0.0,0.0,0.0,0.0,0.0,0.0,0.0,0.0,0.0,0.0,-3.968,-4.0708,-4.1499,-4.2304,-4.3075,-4.3515,-4.3515,-4.3515,-4.3515,-4.3515,-4.3515,-4.3515,-4.3515,-4.3515,-4.3515,-4.3515,-4.3515,-4.2847,-4.181,-4.181,-4.1145,-4.0096,-4.0096,-4.0096,-4.0179,-4.0726,-4.1313,-4.1916,-4.25,-4.305,-4.3369,-4.2598,-4.2873,-4.3349,-4.2561,-4.2873,-4.3496,-4.3478,-4.346,-4.3277,-4.247,-4.2855,-4.3276,-4.2488,-4.291,-4.3515,-4.3515,-4.3515,-4.3496,-4.3478,-4.3478,-4.3496,-4.3478,-4.346,-4.3478,-4.3515,-4.2837,-4.2616,-4.3387,-4.2139,-4.115,-4.1113,-4.0396,-3.9588,-3.8781,-3.8707,-3.8707,-3.8707,-3.8707,-3.8707,-3.8707,-3.8707,-3.8707,-3.8707,-3.8707,-3.8707,-3.8707,-3.8707,-3.8707,-3.8707,-3.8707,-3.8707,0.0,0.0,-4.2926,-3.9856,0.0,0.0,0.0,0.0,0.0,0.0,0.0,0.0,0.0,0.0,-3.1231,-3.0687,-2.9702,0.0,0.0,0.0,0.0,0.0,0.0,0.0,0.0,0.0,0.0,0.0,0.0,0.0,0.0,-3.8799,-3.9882,-4.0689,-4.2011,-4.2708,-4.2708,-4.3222,-4.3515,-4.3515,-4.3515,-4.3222,-4.2708,-4.2708,-4.2415,-4.1919,-4.1919,-4.1777,-4.1558,-4.1558,-4.1419,-4.1236,-4.1236,-4.1236,-4.1196,-4.0972,-4.1291,-4.1848,-4.2304,-4.2205,-4.1882,-4.1589,-4.2047,-4.2653,-4.2378,-4.2855,-4.3404,-4.2855,-4.2323,-4.1735,-4.091,-4.1313,-4.1846,-4.1572,-4.2525,-4.3515,-4.3515,-4.3515,-4.3515,-4.3515,-4.3515,-4.3515,-4.3515,-4.3515,-4.3515,-4.3515,-4.3276,-4.3185,-4.346,-4.302,-4.2286,-4.1205,-4.0857,-4.0157,-3.8817,-3.8707,-3.8707,-3.8707,-3.8707,-3.8707,-3.8707,-3.8707,-3.8707,-3.8707,-3.8707,-3.8707,-3.8707,-3.8707,-3.8707,-3.8707,-3.8707,-3.8707,-4.3515,-4.3515,0.0,0.0,-3.8726,0.0,-3.3733,0.0,0.0,0.0,0.0,0.0,0.0,0.0,-3.1682,-3.1258,-2.9716,-2.7904,0.0,0.0,0.0,0.0,0.0,0.0,0.0,0.0,-3.0283,-3.0913,0.0,0.0,0.0,0.0,-3.8634,-3.9441,-4.1038,-4.1882,-4.1882,-4.2396,-4.2653,-4.2653,-4.2653,-4.2378,-4.1882,-4.1882,-4.1589,-4.1095,-4.1095,-4.1209,-4.1393,-4.1393,-4.1552,-4.181,-4.181,-4.181,-4.175,-4.1358,-4.1423,-4.1689,-4.181,-4.1534,-4.104,-4.0781,-4.1222,-4.1827,-4.1534,-4.2213,-4.2965,-4.2451,-4.2139,-4.1772,-4.0965,-4.135,-4.1882,-4.1589,-4.2543,-4.3515,-4.3515,-4.3515,-4.3515,-4.3515,-4.3515,-4.3515,-4.3515,-4.3515,-4.3515,-4.3515,-4.3515,-4.3515,-4.3515,-4.3515,-4.2983,-4.168,-4.1534,-4.0985,-3.968,-3.9294,-3.9258,-3.9551,-3.9536,-3.9536,-3.9536,-3.9536,-3.9536,-3.9536,-3.9536,-3.9423,-3.9129,-3.9129,-3.8982,-3.8707,-3.8707,-3.8707]},{"header":{"parameterUnit":"m.s-1","parameterCategory":1,"la1":30.6,"la2":29.2853,"lo1":-89.7004,"lo2":-87.6739,"dy":0.0162,"dx":0.0183,"nx":112,"ny":82,"refTime":"2024-05-23T06:00:00:Z","depth":0,"parameterNumber":3,"parameterNumberName":"V-component_of_WINDS"},"data":[0.0,0.0,0.0,0.0,0.0,0.0,0.0,0.0,0.0,0.0,0.0,0.0,0.0,0.0,0.0,0.0,0.0,0.0,0.0,0.0,0.0,0.0,0.0,0.0,0.0,0.0,0.0,0.0,0.0,0.0,0.0,0.0,0.0,0.0,0.0,0.0,0.0,0.0,0.0,0.0,0.0,0.0,0.0,0.0,0.0,0.0,0.0,0.0,0.0,0.0,0.0,0.0,0.0,0.0,0.0,0.0,0.0,0.0,0.0,0.0,0.0,0.0,0.0,0.0,0.0,0.0,0.0,0.0,0.0,0.0,0.0,0.0,0.0,0.0,0.0,0.0,0.0,0.0,0.0,0.0,0.0,0.0,0.0,0.0,0.0,0.0,0.0,0.0,0.0,0.0,0.0,-0.6974,-0.7604,-0.7434,-0.6129,-0.4927,-0.4012,-0.3357,0.0,0.0,0.0,0.0,0.0,0.0,0.0,0.0,0.0,0.0,0.0,0.0,0.0,0.0,0.0,0.0,0.0,0.0,0.0,0.0,0.0,0.0,0.0,0.0,0.0,0.0,0.0,0.0,0.0,0.0,0.0,0.0,0.0,0.0,0.0,0.0,0.0,0.0,0.0,0.0,0.0,0.0,0.0,0.0,0.0,0.0,0.0,0.0,0.0,0.0,0.0,0.0,0.0,0.0,0.0,0.0,0.0,0.0,0.0,0.0,0.0,0.0,0.0,0.0,0.0,0.0,0.0,0.0,0.0,0.0,0.0,0.0,0.0,0.0,0.0,0.0,0.0,0.0,0.0,0.0,0.0,0.0,0.0,0.0,0.0,0.0,0.0,0.0,0.0,0.0,0.0,0.0,0.0,0.0,0.0,0.0,0.0,0.0,0.0,0.0,0.0,0.0,0.0,0.0,-0.6502,-0.7563,-0.7847,-0.7434,-0.6129,-0.569,-0.4929,-0.3483,0.0,0.0,0.0,0.0,0.0,0.0,0.0,0.0,0.0,0.0,0.0,0.0,0.0,0.0,0.0,0.0,0.0,0.0,0.0,0.0,0.0,0.0,0.0,0.0,0.0,0.0,0.0,0.0,0.0,0.0,0.0,0.0,0.0,0.0,0.0,0.0,0.0,0.0,0.0,0.0,0.0,0.0,0.0,0.0,0.0,0.0,0.0,0.0,0.0,0.0,0.0,0.0,0.0,0.0,0.0,0.0,0.0,0.0,0.0,0.0,0.0,0.0,0.0,0.0,0.0,0.0,0.0,0.0,0.0,0.0,0.0,0.0,0.0,0.0,0.0,0.0,0.0,0.0,0.0,0.0,0.0,0.0,0.0,0.0,0.0,0.0,0.0,0.0,0.0,0.0,0.0,0.0,0.0,0.0,0.0,0.0,0.0,0.0,0.0,0.0,0.0,0.0,0.0,-0.5882,-0.679,-0.7776,-0.7298,-0.6379,-0.5022,-0.4173,-0.3093,-0.1634,-0.0882,0.0,0.0,0.0,0.0,0.0,0.0,0.0,0.0,0.0,0.0,0.0,0.0,0.0,0.0,0.0,0.0,0.0,0.0,0.0,0.0,0.0,0.0,0.0,0.0,0.0,0.0,0.0,0.0,0.0,0.0,0.0,0.0,0.0,0.0,0.0,0.0,0.0,0.0,0.0,0.0,0.0,0.0,0.0,0.0,0.0,0.0,0.0,0.0,0.0,0.0,0.0,0.0,0.0,0.0,0.0,0.0,0.0,0.0,0.0,0.0,0.0,0.0,0.0,0.0,0.0,0.0,0.0,0.0,0.0,0.0,0.0,0.0,0.0,0.0,0.0,0.0,0.0,0.0,0.0,0.0,0.0,0.0,0.0,0.0,0.0,0.0,0.0,0.0,0.0,0.0,0.0,0.0,0.0,0.0,0.0,0.0,0.0,0.0,0.0,0.0,0.0,0.0,-0.6854,-0.7067,-0.7461,-0.6631,-0.5316,-0.3693,-0.2584,-0.1431,-0.0081,0.0,0.0,0.0,0.0,0.0,0.0,0.0,0.0,0.0,0.0,0.0,0.0,0.0,0.0,0.0,0.0,0.0,0.0,0.0,0.0,0.0,0.0,0.0,0.0,0.0,0.0,0.0,0.0,0.0,0.0,0.0,0.0,0.0,0.0,0.0,0.0,0.0,0.0,0.0,0.0,0.0,0.0,0.0,0.0,0.0,0.0,0.0,0.0,0.0,0.0,0.0,0.0,0.0,0.0,0.0,0.0,0.0,0.0,0.0,0.0,0.0,0.0,0.0,0.0,0.0,0.0,0.0,0.0,0.0,0.0,0.0,0.0,0.0,0.0,0.0,0.0,0.0,0.0,0.0,0.0,0.0,0.0,0.0,0.0,0.0,0.0,0.0,0.0,0.0,0.0,0.0,0.0,0.0,0.0,0.0,0.0,0.0,0.0,0.0,0.0,0.0,0.0,0.0,-0.7027,-0.7184,-0.6252,-0.6079,-0.4939,-0.2355,-0.2057,-0.143,-0.0077,0.0,0.0,0.0,0.0,0.0,0.0,0.0,0.0,0.0,0.0,0.0,0.0,0.0,0.0,0.0,0.0,0.0,0.0,0.0,0.0,0.0,0.0,0.0,0.0,0.0,0.0,0.0,0.0,0.0,0.0,0.0,0.0,0.0,0.0,0.0,0.0,0.0,0.0,0.0,0.0,0.0,0.0,0.0,0.0,0.0,0.0,0.0,0.0,0.0,0.0,0.0,0.0,0.0,0.0,0.0,0.0,0.0,0.0,0.0,0.0,0.0,0.0,0.0,0.0,0.0,0.0,0.0,0.0,0.0,0.0,0.0,0.0,0.0,0.0,0.0,0.0,0.0,0.0,0.0,0.0,0.0,0.0,0.0,0.0,0.0,0.0,0.0,0.0,0.0,0.0,0.0,0.0,0.0,0.0,0.0,0.0,0.0,0.0,0.0,0.0,0.0,0.0,0.0,-0.5906,-0.5806,0.0,-0.444,-0.3093,-0.2106,-0.1211,-0.0517,-0.0038,0.0,0.0,0.0,0.0,0.0,0.0,0.0,0.0,0.0,0.0,0.0,0.0,0.0,0.0,0.0,0.0,0.0,0.0,0.0,0.0,0.0,0.0,0.0,0.0,0.0,0.0,0.0,0.0,0.0,0.0,0.0,0.0,0.0,0.0,0.0,0.0,0.0,0.0,0.0,0.0,0.0,0.0,0.0,0.0,0.0,0.0,0.0,0.0,0.0,0.0,0.0,0.0,0.0,0.0,0.0,0.0,0.0,0.0,0.0,0.0,0.0,0.0,0.0,0.0,0.0,0.0,0.0,0.0,0.0,0.0,0.0,0.0,0.0,0.0,0.0,0.0,0.0,0.0,0.0,0.0,0.0,0.0,0.0,0.0,0.0,0.0,0.0,0.0,0.0,0.0,0.0,0.0,0.0,0.0,0.0,0.0,0.0,0.0,0.0,0.0,0.0,0.0,-0.5049,-0.4989,-0.4854,0.0,-0.3054,-0.1823,-0.1385,-0.0545,0.0,0.0,0.0,0.0,0.0,0.0,0.0,0.0,0.0,0.0,0.0,0.0,0.0,0.0,0.0,0.0,0.0,0.0,0.0,0.0,0.0,0.0,0.0,0.0,0.0,0.0,0.0,0.0,0.0,0.0,0.0,0.0,0.0,0.0,0.0,0.0,0.0,0.0,0.0,0.0,0.0,0.0,0.0,0.0,0.0,0.0,0.0,0.0,0.0,0.0,0.0,0.0,0.0,0.0,0.0,0.0,0.0,0.0,0.0,0.0,0.0,0.0,0.0,0.0,0.0,0.0,0.0,0.0,0.0,0.0,0.0,0.0,0.0,0.0,0.0,0.0,0.0,0.0,0.0,0.0,0.0,0.0,0.0,0.0,0.0,0.0,0.0,0.0,0.0,0.0,0.0,0.0,0.0,0.0,0.0,0.0,0.0,0.0,0.0,0.0,0.0,0.0,0.0,0.0,-0.3204,-0.4424,-0.4503,-0.2231,-0.1983,-0.1434,-0.009,0.0,0.0,0.0,0.0,0.0,0.0,0.0,0.0,0.0,0.0,0.0,0.0,0.0,0.0,0.0,0.0,0.0,0.0,0.0,0.0,0.0,0.0,0.0,0.0,0.0,0.0,0.0,0.0,0.0,0.0,0.0,0.0,0.0,0.0,0.0,0.0,0.0,0.0,0.0,0.0,0.0,0.0,0.0,0.0,0.0,0.0,0.0,0.0,0.0,0.0,0.0,0.0,0.0,0.0,0.0,0.0,0.0,0.0,0.0,0.0,0.0,0.0,0.0,0.0,0.0,0.0,0.0,0.0,0.0,0.0,0.0,0.0,0.0,0.0,0.0,0.0,0.0,0.0,0.0,0.0,0.0,0.0,0.0,0.0,0.0,0.0,0.0,0.0,0.0,0.0,0.0,0.0,0.0,0.0,0.0,0.0,0.0,0.0,0.0,0.0,0.0,0.0,0.0,0.0,0.0,-0.3089,-0.3447,-0.3266,-0.1996,-0.1091,-0.0425,-0.0045,0.0,0.0,0.0,0.0,0.0,0.0,0.0,0.0,0.0,0.0,0.0,0.0,0.0,0.0,0.0,0.0,0.0,0.0,0.0,0.0,0.0,0.0,0.0,0.0,0.0,0.0,0.0,0.0,0.0,0.0,0.0,0.0,0.0,0.0,0.0,0.0,0.0,0.0,0.0,0.0,0.0,0.0,0.0,0.0,0.0,0.0,0.0,0.0,0.0,0.0,0.0,0.0,0.0,0.0,0.0,0.0,0.0,0.0,0.0,0.0,0.0,0.0,0.0,0.0,0.0,0.0,0.0,0.0,0.0,0.0,0.0,0.0,0.0,0.0,0.0,0.0,0.0,0.0,0.0,0.0,0.0,0.0,0.0,0.0,0.0,0.0,0.0,0.0,0.0,0.0,0.0,0.0,0.0,0.0,0.0,0.0,0.0,0.0,0.0,0.0,0.0,0.0,0.0,0.0,0.0,-0.1868,-0.2182,-0.2152,-0.1183,-0.0419,0.0,0.0,0.0,0.0,0.0,0.0,0.0,0.0,0.0,0.0,0.0,0.0,0.0,0.0,0.0,0.0,0.0,0.0,0.0,0.0,0.0,0.0,0.0,0.0,0.0,0.0,0.0,0.0,0.0,0.0,0.0,0.0,0.0,0.0,0.0,0.0,0.0,0.0,0.0,0.0,0.0,0.0,0.0,0.0,0.0,0.0,0.0,0.0,0.0,0.0,0.0,0.0,0.0,0.0,0.0,0.0,0.0,0.0,0.0,0.0,0.0,0.0,0.0,0.0,0.0,0.0,0.0,0.0,0.0,0.0,0.0,0.0,0.0,0.0,0.0,0.0,0.0,0.0,0.0,0.0,0.0,0.0,0.0,0.0,0.0,0.0,0.0,0.0,0.0,0.0,0.0,0.0,0.0,0.0,0.0,0.0,0.0,0.0,0.0,0.0,0.0,0.0,0.0,0.0,0.0,0.0,0.0,-0.0144,-0.0929,-0.1178,-0.0134,0.0,0.0,0.0,0.0,0.0,0.0,0.0,0.0,0.0,0.0,0.0,0.0,0.0,0.0,0.0,0.0,0.0,0.0,0.0,0.0,0.0,0.0,0.0,0.0,0.0,0.0,0.0,0.0,0.0,0.0,0.0,0.0,0.0,0.0,0.0,0.0,0.0,0.0,0.0,0.0,0.0,0.0,0.0,0.0,0.0,0.0,0.0,0.0,0.0,0.0,0.0,0.0,0.0,0.0,0.0,0.0,0.0,0.0,0.0,0.0,0.0,0.0,0.0,0.0,0.0,0.0,0.642,0.0,0.0,0.0,0.0,0.0,0.0,0.0,0.0,0.0,0.0,0.0,0.0,0.0,0.0,0.0,0.0,0.0,0.0,0.0,0.0,0.0,0.0,0.0,0.0,0.0,0.0,0.0,0.0,0.0,0.0,0.0,0.0,0.0,0.0,0.0,0.0,0.0,0.0,0.0,0.0,0.0,-0.0144,-0.0956,-0.1202,-0.0134,0.0,0.0,0.0,0.0,0.0,0.0,0.0,0.0,0.0,0.0,0.0,0.0,0.0,0.0,0.0,0.0,0.0,0.0,0.0,0.0,0.0,0.0,0.0,0.0,0.0,0.0,0.0,0.0,0.0,0.0,0.0,0.0,0.0,0.0,0.0,0.0,0.0,0.0,0.0,0.0,0.0,0.0,0.0,0.0,0.0,0.0,0.0,0.0,0.0,0.0,0.0,0.0,0.0,0.0,0.0,0.0,0.0,0.0,0.0,0.0,0.0,0.0,0.0,0.0,0.0,0.0,0.0,0.6732,0.0,0.0,0.0,0.0,0.0,0.0,0.0,0.0,0.0,0.0,0.0,0.0,0.0,0.0,0.0,0.0,0.0,0.0,0.0,0.0,0.0,0.0,0.0,0.0,0.0,0.0,0.0,0.0,0.0,0.0,0.0,0.0,0.0,0.0,0.0,0.0,0.0,0.0,0.0,0.0,-0.0072,-0.0476,-0.0599,-0.0045,0.0,0.0,0.0,0.0,0.0,0.0,0.0,0.0,0.0,0.0,0.0,0.0,0.0,0.0,0.0,0.0,0.0,0.0,0.0,0.0,0.0,0.0,0.0,0.0,0.0,0.0,0.0,0.0,0.0,0.0,0.0,0.0,0.0,0.0,0.0,0.0,0.0,0.0,0.0,0.0,0.0,0.0,0.0,0.0,0.0,0.0,0.0,0.0,0.0,0.0,0.0,0.0,0.0,0.0,0.0,0.0,0.0,0.0,0.0,0.0,0.0,0.0,0.8638,0.8611,0.8587,0.8513,0.7651,0.7343,0.7407,0.0,0.0,0.0,0.0,0.0,0.0,0.0,0.0,0.0,0.0,0.0,0.0,0.0,0.0,0.0,0.0,0.0,0.0,0.0,0.0,0.0,0.0,0.0,0.0,0.0,0.0,0.0,0.0,0.0,0.0,0.0,0.0,0.0,0.0,0.0,0.0,0.0,0.0,0.0,0.0,0.0,0.0,0.0,0.0,0.0,0.0,0.0,0.0,0.0,0.0,0.0,0.0,0.0,0.0,0.0,0.0,0.0,0.0,0.0,0.0,0.0,0.0,0.0,0.0,0.0,0.0,0.0,0.0,0.0,0.0,0.0,0.0,0.0,0.0,0.0,0.0,0.0,0.0,0.0,0.0,0.0,0.0,0.0,0.8824,0.7346,0.0,0.0,0.0,0.0,0.0,0.0,0.0,0.0,0.0,0.0,0.0,0.0,0.0,0.0,0.8733,0.9178,0.9391,0.9432,0.9432,0.9374,0.9259,0.918,0.8998,0.8814,0.8679,0.0,0.7736,0.7536,0.0,0.0,0.0,0.0,0.0,0.0,0.0,0.0,0.0,0.0,0.0,0.0,0.0,0.0,0.0,0.0,0.0,0.0,0.0,0.0,0.0,0.0,0.0,0.0,0.0,0.0,0.0,0.0,0.0,0.0,0.0,0.0,0.0,0.0,0.0,0.0,0.0,0.0,0.0,0.0,0.0,0.0,0.0,0.0,0.0,0.0,0.0,0.0,0.0,0.0,0.0,0.0,0.0,0.0,0.0,0.0,0.0,0.0,0.0,0.0,0.0,0.0,0.0,0.0,0.0,0.0,0.0,0.0,0.0,0.0,0.0,0.0,0.0,0.0,0.0,0.0,0.0,0.0,0.0,0.0,0.0,0.979,0.9862,0.8613,1.0016,1.0543,0.0,0.0,0.0,0.0,0.0,0.0,0.0,0.0,0.0,0.891,0.9113,0.9327,0.9502,0.9697,0.99,0.9988,0.9988,0.9951,0.9883,0.9727,0.9574,0.9429,0.9351,0.9028,0.8537,0.814,0.777,0.7407,0.0,0.0,0.0,0.0,0.0,0.6552,0.6993,0.0,0.0,0.0,0.0,0.0,0.0,0.0,0.0,0.0,0.0,0.0,0.0,0.0,0.0,0.0,0.0,0.0,0.0,0.0,0.0,0.0,0.0,0.0,0.0,0.0,0.0,0.0,0.0,0.0,0.0,0.0,0.0,0.0,0.0,0.0,0.0,0.0,0.0,0.0,0.0,0.0,0.0,0.0,0.0,0.0,0.0,0.0,0.0,0.0,0.0,0.0,0.0,0.0,0.0,0.0,0.0,0.0,0.0,0.0,0.0,0.0,0.0,0.0,0.0,0.0,0.0,0.0,0.0,0.0,0.0,0.0,0.0,1.0755,1.1075,0.9811,1.0352,1.0512,0.0,0.0,0.0,0.0,0.0,0.0,0.9083,0.9087,0.9279,0.971,0.9795,0.9941,1.0161,1.0139,1.028,1.0392,1.0351,1.0334,1.0331,1.0178,1.0025,0.9873,0.9768,0.9551,0.9282,0.8672,0.8326,0.8106,0.7617,0.7358,0.0,0.7368,0.7294,0.7237,0.7763,0.7807,0.7621,0.7385,0.0,0.6983,0.6007,0.0,0.0,0.0,0.0,0.2302,0.1272,0.0,0.1012,0.1032,0.0749,0.0503,0.0496,0.0243,0.0,0.0,0.0,0.0,0.0,0.0,0.0,0.0,0.0,0.0,0.0,0.0,0.0,0.0,0.0,0.0,0.0,0.0,0.0,0.0,0.0,0.0,0.0,0.0,0.0,0.0,0.0,0.0,0.0,0.0,0.0,0.0,0.0,0.0,0.0,0.0,0.0,0.0,0.0,0.0,0.0,0.0,0.0,0.0,0.0,0.0,0.0,0.0,0.0,0.0,0.0,0.0,0.0,0.0,0.0,1.0361,1.1941,0.0,0.0,0.0,0.0,0.8944,0.9207,0.9449,0.9564,0.9703,0.9852,0.996,1.03,1.0456,1.047,1.0616,1.069,1.0697,1.0551,1.048,1.0477,1.0334,1.0185,0.9974,0.9967,0.9798,0.9551,0.9093,0.873,0.8442,0.8279,0.8123,0.7961,0.816,0.8116,0.7961,0.8184,0.8052,0.7821,0.7901,0.7706,0.7353,0.7322,0.6357,0.0,0.0,0.4598,0.3889,0.3808,0.3803,0.3777,0.3794,0.2813,0.1912,0.191,0.0893,0.0,0.0,0.0,0.0,0.0,0.0,0.0,0.0,0.0,0.0,0.0,0.0,0.0,0.0,0.0,0.0,0.0,0.0,0.0,0.0,0.0,0.0,0.0,0.0,0.0,0.0,0.0,0.0,0.0,0.0,0.0,0.0,0.0,0.0,0.0,0.0,0.0,0.0,0.0,0.0,0.0,0.0,0.0,0.0,0.0,0.0,0.0,0.0,0.0,0.0,0.0,0.0,0.0,0.0,0.0,1.4056,1.4025,0.0,1.269,1.1846,1.0841,0.9559,0.9696,0.9917,1.0164,1.0226,1.0321,1.0477,1.0585,1.0639,1.0639,1.0694,1.0721,1.0721,1.0666,1.0639,1.0633,1.0483,1.0337,1.0195,1.0031,0.9872,0.9727,0.9473,0.9191,0.8954,0.8757,0.8604,0.8465,0.8421,0.8374,0.8319,0.8282,0.8197,0.8099,0.8005,0.7884,0.7784,0.7685,0.7361,0.6868,0.5926,0.5475,0.5085,0.4212,0.3978,0.3985,0.4009,0.3615,0.3265,0.3265,0.2251,0.1284,0.1291,0.0598,0.0,0.0,0.0,0.0,0.0,0.0,0.0,0.0,0.0,0.0,0.0,0.0,0.0,0.0,0.0,0.0,0.0,0.0,0.0,0.0,0.0,0.0,0.0,0.0,0.0,0.0,0.0,0.0,0.0,0.0,0.0,0.0,0.0,0.0,0.0,0.0,0.0,0.0,0.0,0.0,0.0,0.0,0.0,0.0,0.0,0.0,0.0,0.0,0.0,0.0,0.0,1.6119,1.6309,1.5488,1.4686,1.4094,1.2892,1.1575,1.0167,1.0188,1.0361,1.0558,1.0568,1.0616,1.0717,1.0721,1.0721,1.0721,1.0721,1.0721,1.0721,1.0721,1.0721,1.0717,1.0616,1.049,1.0344,1.0192,1.0039,0.9886,0.9741,0.9534,0.9289,0.9089,0.8947,0.8842,0.8693,0.8604,0.853,0.8336,0.8323,0.8245,0.8089,0.7988,0.7971,0.7919,0.7911,0.7819,0.6828,0.6616,0.6478,0.5572,0.537,0.537,0.537,0.5018,0.467,0.467,0.3616,0.2555,0.2079,0.0911,0.0,0.0,0.0,0.0,0.0,0.0,0.0,0.0,0.0,0.0,0.0,0.0,0.0,0.0,0.0,0.0,0.0,0.0,0.0,0.0,0.0,0.0,0.0,0.0,0.0,0.0,0.0,0.0,0.0,0.0,0.0,0.0,0.0,0.0,0.0,0.0,0.0,0.0,0.0,0.0,0.0,0.0,0.0,0.0,0.0,0.0,0.0,0.0,0.0,1.5297,1.6136,1.6909,1.6944,1.6371,1.5575,1.4535,1.378,1.2534,1.0637,1.0636,1.0721,1.0721,1.0721,1.0721,1.0721,1.0721,1.0721,1.0721,1.0721,1.0721,1.0721,1.0721,1.0721,1.0721,1.0721,1.0636,1.0483,1.0348,1.0198,0.9974,0.989,0.9744,0.9585,0.9337,0.9214,0.919,0.8991,0.8842,0.8669,0.8384,0.833,0.8245,0.8096,0.7992,0.7988,0.7988,0.7988,0.7988,0.7988,0.7988,0.7988,0.7988,0.7988,0.7988,0.7988,0.6983,0.6079,0.6079,0.502,0.3667,0.2314,0.0978,0.0047,0.0,0.0,0.0,0.0,0.0,0.0,0.0,0.0,0.0,0.0,0.0,0.0,0.0,0.0,0.0,0.0,0.0,0.0,0.0,0.0,0.0,0.0,0.0,0.0,0.0,0.0,0.0,0.0,0.0,0.0,0.0,0.0,0.0,0.0,0.0,0.0,0.0,0.0,0.0,0.0,0.0,0.0,0.0,0.0,0.0,0.0,0.0,1.8264,1.7864,1.868,1.9359,1.9609,1.856,1.7171,1.5638,1.4165,1.259,1.0792,1.0697,1.0721,1.0721,1.0721,1.0721,1.0721,1.0721,1.0721,1.0721,1.0721,1.0721,1.0721,1.0721,1.0721,1.0721,1.0721,1.0636,1.049,1.0453,1.0287,0.9984,0.9943,0.9835,0.9734,0.9435,0.9309,0.919,0.8991,0.8842,0.8699,0.8618,0.8448,0.8313,0.8221,0.8133,0.7988,0.7988,0.7988,0.7988,0.7988,0.7988,0.7988,0.7988,0.7988,0.7988,0.7988,0.7736,0.7434,0.7434,0.6379,0.5072,0.3717,0.2367,0.1159,0.019,0.0,0.0,0.0,0.0,0.0,0.0,0.0,0.0,0.0,0.0,0.0,0.0,0.0,0.0,0.0,0.0,0.0,0.0,0.0,0.0,0.0,0.0,0.0,0.0,0.0,0.0,0.0,0.0,0.0,0.0,0.0,0.0,0.0,0.0,0.0,0.0,0.0,0.0,0.0,0.0,0.0,0.0,0.0,0.0,0.0,1.8671,1.9519,1.9639,2.01,2.0528,2.0822,2.0202,1.88,1.6251,1.5224,1.3624,1.1106,1.0907,1.0907,1.0907,1.0907,1.0877,1.0819,1.0749,1.0785,1.0721,1.0721,1.0721,1.0721,1.0721,1.0721,1.0721,1.0721,1.067,0.0,1.0521,1.0361,1.0141,1.0014,0.9899,0.0,0.0,0.0,0.0,0.0,0.8828,0.8798,0.8733,0.8598,0.8435,0.8364,0.8211,0.8126,0.8008,0.7988,0.7988,0.7988,0.7988,0.7988,0.7988,0.7988,0.7988,0.7988,0.7988,0.7988,0.7988,0.7385,0.6429,0.512,0.0,0.0,0.1051,0.0372,0.0,0.0,0.0,0.0,0.0,0.0,0.0,0.0,0.0,0.0,0.0,0.0,0.0,0.0,0.0,0.0,0.0,0.0,0.0,0.0,0.0,0.0,0.0,0.0,0.0,0.0,0.0,-0.0152,0.0,0.0,0.0,0.0,0.0,0.0,0.0,0.0,0.0,0.0,0.0,0.0,0.0,0.0,0.0,0.0,1.9733,2.0388,2.0681,2.0728,2.0822,2.1082,2.137,2.0157,1.645,1.6387,1.51,1.1503,1.1231,1.1231,1.1231,0.0,0.0,0.0,0.0,1.0816,1.0748,1.0727,1.0721,1.0721,1.0721,1.0721,1.0721,1.0721,1.0721,1.0714,1.0575,1.0426,1.027,1.0134,0.9913,0.9805,0.9646,0.949,0.932,0.9042,0.8885,0.0,0.0,0.0,0.0,0.8408,0.8347,0.8245,0.8106,0.8005,0.7988,0.7988,0.7988,0.7988,0.7988,0.7988,0.7988,0.7988,0.7988,0.7988,0.7988,0.7988,0.7587,0.6279,0.5057,0.3754,0.2251,0.0891,0.0,0.0,0.0,0.0,0.0,0.0,0.0,0.0,0.0,0.0,0.0,0.0,0.0,0.0,0.0,0.0,0.0,0.0,0.0,0.0,0.0,0.0,0.0,0.0,0.0,0.0,0.0,0.0,0.0,0.0,0.0,0.0,0.0,0.0,0.0,0.0,0.0,0.0,0.0,0.0,0.0,0.0,0.0,1.9512,2.0174,2.0695,2.0982,2.1029,2.1049,2.1102,2.137,2.0157,1.645,1.6387,1.51,1.1503,1.1231,1.1231,1.1231,1.1231,0.0,1.1121,1.1009,1.0867,1.0836,1.0782,1.0721,1.0721,0.0,0.0,1.0721,1.0721,1.0721,1.0717,1.0687,1.0524,1.028,1.0249,1.0073,0.9795,0.953,0.9334,0.9231,0.9001,0.8885,0.8878,0.8851,0.8815,0.8703,0.8645,0.8465,0.8316,0.8235,0.814,0.0,0.7988,0.7988,0.7988,0.7988,0.7988,0.7988,0.7988,0.7988,0.7988,0.7988,0.7988,0.7587,0.6279,0.5812,0.4868,0.2439,0.0899,0.0,0.0,0.0,0.0,0.0,0.0,0.0,0.0,0.0,0.0,0.0,0.0,0.0,0.0,0.0,0.0,0.0,0.0,0.0,0.0,0.0,0.0,0.0,0.0,0.0,0.0,0.0,0.0,0.0,0.0,0.0,0.0,0.0,0.0,0.0,0.0,0.0,0.0,0.0,1.7822,0.0,0.0,1.9773,2.0361,2.0702,2.0942,2.1089,2.1109,2.1109,2.1109,2.1503,2.0698,1.789,1.7203,1.616,1.4366,1.2429,1.1804,1.2772,1.1875,1.1355,1.1277,1.1206,1.1097,1.0884,1.0806,1.0795,1.0721,1.0721,1.0721,1.0721,1.0721,1.0721,1.0721,1.0721,1.0595,1.0375,1.0226,1.0029,0.9798,0.9581,0.9401,0.9306,0.91,0.9001,0.8885,0.8885,0.8834,0.8811,0.8733,0.856,0.8364,0.8344,0.8163,0.7988,0.7988,0.7988,0.7988,0.7988,0.7988,0.7988,0.7988,0.7988,0.7988,0.7988,0.7988,0.7789,0.7135,0.6481,0.5345,0.3335,0.1912,0.0792,0.0091,0.0,0.0,0.0,0.0,0.0,0.0,0.0,0.0,0.0,0.0,0.0,0.0,0.0,0.0,0.0,0.0,0.0,0.0,0.0,0.0,0.0,0.0,0.0,0.0,0.0,0.0,0.0,0.0,0.0,0.0,0.0,0.0,0.0,0.0,1.7108,1.7929,1.8537,1.9132,1.984,2.0207,2.0555,2.1029,2.1109,2.1109,2.1109,2.1109,2.1109,2.1109,2.1577,2.1187,1.9348,1.8262,1.7417,1.6685,1.3876,1.2678,1.38,1.2395,1.1562,1.144,1.1406,1.1263,1.0992,1.0894,1.0803,1.0721,1.0721,1.0721,1.0721,1.0721,1.0721,1.0717,1.0687,1.0592,1.0429,1.0161,0.9899,0.9812,0.9696,0.9557,0.9405,0.9275,0.9062,0.8885,0.8885,0.8885,0.8861,0.8794,0.8632,0.8462,0.8347,0.8184,0.7988,0.7988,0.7988,0.7988,0.7988,0.7988,0.7988,0.7988,0.7988,0.7988,0.7988,0.7988,0.7988,0.7988,0.7135,0.5951,0.4632,0.3474,0.2126,0.0278,0.0,0.0,0.0,0.0,0.0,0.0,0.0,0.0,0.0,0.0,0.0,0.0,0.0,0.0,0.0,0.0,0.0,0.0,0.0,0.0,0.0,0.0,0.0,0.0,0.0,0.0,1.4881,1.505,1.5484,1.6266,1.6707,1.742,0.0,0.0,1.9199,1.9806,2.0201,2.0461,2.0561,2.0815,2.1029,2.1096,2.1109,2.1109,2.1109,2.1109,2.1109,2.1109,2.1403,2.0974,1.9336,1.9269,1.8073,1.4982,1.429,1.3448,1.1972,1.1688,1.1613,1.1596,1.146,1.1311,1.1141,1.1012,1.0803,1.0721,1.0721,1.0721,1.0721,1.0721,1.0721,1.0714,1.0575,1.0436,1.029,1.012,0.9899,0.9819,0.9802,0.971,0.9551,0.9316,0.9062,0.8885,0.8885,0.8885,0.8881,0.8865,0.8716,0.8479,0.8462,0.8262,0.7988,0.7988,0.7988,0.7988,0.7988,0.7988,0.7988,0.7988,0.7988,0.7988,0.7988,0.7988,0.7988,0.7988,0.7889,0.7329,0.6011,0.554,0.4145,0.0556,0.0,0.0,0.0,0.0,0.0,0.0,0.0,0.0,0.0,0.0,0.0,0.0,0.0,0.0,0.0,0.0,0.0,0.0,0.0,0.0,0.0,0.0,0.0,0.0,0.0,0.0,1.6147,1.6496,1.68,1.7348,1.7969,1.8693,1.9379,1.972,1.9987,2.0401,2.0728,2.0929,2.0929,2.1029,2.1162,0.0,2.137,2.137,2.137,2.137,2.1303,2.1129,2.1223,2.0747,1.9313,1.9449,1.9084,1.7788,1.5628,1.4503,1.4862,1.2821,1.1619,1.1619,1.1558,1.1406,1.1234,1.1104,1.0955,1.0721,1.0721,1.0721,1.0721,1.0721,1.0721,1.0717,1.0653,1.0541,1.0392,1.0246,1.0093,0.9883,0.9856,0.9734,0.9585,0.9364,0.9191,0.9052,0.8967,0.8885,0.8885,0.8885,0.873,0.8482,0.8482,0.8275,0.7988,0.7988,0.7988,0.7988,0.7988,0.7988,0.7988,0.7988,0.7988,0.7988,0.7988,0.7988,0.7988,0.7988,0.7988,0.7587,0.6232,0.5889,0.4964,0.2583,0.1555,0.0807,0.009,0.0,0.0,0.0,0.0,0.0,0.0,0.0,0.0,0.0,0.0,0.0,0.0,0.0,0.0,0.0,0.0,0.0,0.0,0.0,0.0,0.0,0.0,0.0,1.6904,1.7361,1.7802,1.8135,1.8951,1.9626,1.9765,2.0114,2.0535,2.0748,2.0962,2.1109,2.1109,2.1109,2.1203,2.1568,2.1614,2.1614,2.1614,2.1614,2.1507,2.1149,2.1109,2.0586,1.9201,1.9279,1.9593,1.9928,1.6942,1.5498,1.6404,1.3876,1.2112,1.1619,1.1619,1.147,1.1165,1.1231,1.1012,1.0721,1.0721,1.0721,1.0721,1.0721,1.0721,1.0721,1.0721,1.0633,1.048,1.0337,1.0188,0.997,0.988,0.9758,0.9646,0.9452,0.9344,0.9187,0.8988,0.8885,0.8885,0.8885,0.873,0.8482,0.8482,0.8275,0.7988,0.7988,0.7988,0.7988,0.7988,0.7988,0.7988,0.7988,0.7988,0.7988,0.7988,0.7988,0.7988,0.7988,0.7988,0.7686,0.6734,0.6452,0.5916,0.4557,0.3503,0.2387,0.1166,0.071,0.0349,0.0042,0.0,0.0,0.0,0.027,0.0305,0.0,0.0293,0.0322,0.0,0.0,0.0,0.0,0.0,0.0,0.0,0.0,0.0,0.0,0.0,0.0,1.6714,1.7361,1.8115,1.8695,1.9559,2.0281,2.0568,2.0869,2.1082,2.1096,2.1102,2.1109,2.1109,2.1109,2.1203,2.1568,2.1614,2.1614,2.1614,2.1614,2.1507,2.1149,2.1109,2.0445,0.0,1.8917,1.9195,1.9572,1.7955,1.6183,1.4561,1.4361,1.3448,1.1688,1.1619,1.147,1.1165,1.1231,1.1012,1.0721,1.0721,1.0721,1.0721,1.0721,1.0721,1.0721,1.0721,1.0633,1.048,1.0337,1.0188,0.997,0.988,0.9819,0.9778,0.949,0.9344,0.9187,0.8988,0.8885,0.8885,0.8885,0.873,0.8482,0.8482,0.8275,0.7988,0.7988,0.7988,0.7988,0.7988,0.7988,0.7988,0.7988,0.7988,0.7988,0.7988,0.7988,0.7988,0.7988,0.7988,0.7988,0.7939,0.7811,0.727,0.5942,0.5596,0.4981,0.3669,0.2456,0.1303,0.0126,0.0,0.0,0.0,0.0941,0.1124,0.0076,0.0981,0.1082,0.0036,0.0,0.0,0.0,0.0,0.0,0.0,0.0,0.0,0.0,0.0,0.0,1.7488,1.8243,1.9058,1.9646,2.016,2.0608,2.0895,2.1042,2.1056,2.0862,2.0668,2.0528,2.0528,2.0528,2.0688,2.1182,2.1583,2.177,2.1648,2.1884,2.1877,2.1189,2.0298,0.0,0.0,0.0,0.0,1.9628,1.905,1.7983,1.6324,1.5066,1.3519,1.1688,1.1619,1.147,1.1165,1.1231,1.1012,1.0721,1.0721,1.0721,1.0721,1.0721,1.0721,1.0721,1.0721,1.069,1.0626,1.0382,1.0249,1.0178,0.992,0.9822,0.9785,0.949,0.9347,0.9269,0.9025,0.8885,0.8885,0.8885,0.8801,0.8615,0.8513,0.8347,0.817,0.8019,0.7988,0.7988,0.7988,0.7988,0.7988,0.7988,0.7988,0.7988,0.7988,0.7988,0.7988,0.7988,0.7988,0.7988,0.7988,0.7913,0.7583,0.6966,0.5393,0.4094,0.3662,0.2528,0.1918,0.2225,0.09,0.0279,0.0982,0.1411,0.1445,0.1085,0.1411,0.143,0.1082,0.0368,0.0,0.0,0.0,0.0,0.0,0.0,0.0,0.0,0.0,0.0,1.8026,1.8931,1.9666,2.0247,2.0615,2.0855,2.0935,2.0955,2.0842,2.0448,2.0127,1.992,1.992,1.984,2.0027,2.0828,2.1356,2.1677,2.1769,2.2118,2.2171,2.1503,2.0591,2.0434,0.0,0.0,0.0,1.9504,1.9563,1.8633,1.6284,1.5661,1.4223,1.1691,1.1619,1.147,1.1165,1.1231,1.1012,1.0721,1.0721,1.0721,1.0721,1.0721,1.0721,1.0721,1.0721,1.0721,1.0697,1.0402,1.028,1.0249,0.9941,0.9822,0.9785,0.949,0.9381,0.934,0.9042,0.8885,0.8885,0.8885,0.8835,0.8682,0.8526,0.8384,0.8238,0.8032,0.7988,0.7988,0.7988,0.7988,0.7988,0.7988,0.7988,0.7988,0.7988,0.7988,0.7988,0.7988,0.7988,0.7988,0.7988,0.7872,0.7672,0.7482,0.5998,0.4683,0.4283,0.355,0.3177,0.3359,0.2055,0.1447,0.2079,0.2504,0.2387,0.1646,0.1929,0.1798,0.1072,0.0378,0.0,0.0,0.0,0.0,0.0,0.0,0.0,0.0,0.0,0.0,1.829,1.9347,2.0,2.0561,2.0895,2.1015,2.0735,2.0641,2.0448,1.9873,1.9499,1.9336,0.0,0.0,1.9279,2.0428,2.0889,2.1309,2.1884,2.2225,2.2311,0.0,0.0,0.0,0.0,0.0,0.0,1.9179,0.0,1.8339,1.4714,1.6223,1.5495,1.1832,1.1619,1.147,1.1165,1.1148,1.0999,1.0721,1.0721,1.0721,1.0721,1.0721,1.0721,1.0721,1.0721,1.0721,1.0697,1.0402,1.028,1.0249,0.9941,0.9822,0.9785,0.949,0.9381,0.934,0.9042,0.8885,0.8885,0.8885,0.8842,0.8693,0.853,0.8387,0.8248,0.8035,0.7988,0.7988,0.7988,0.7988,0.7988,0.7988,0.7988,0.7988,0.7988,0.7988,0.7988,0.7988,0.7988,0.7988,0.7988,0.7801,0.7607,0.76,0.7343,0.6704,0.5628,0.5439,0.4939,0.3695,0.3408,0.3291,0.3209,0.41,0.3867,0.188,0.2618,0.2228,0.0235,0.0039,0.0,0.0,0.0,0.0,0.0,0.0,0.0,0.0,0.0,0.0,1.7492,1.9172,2.0808,2.0962,2.0895,2.0768,2.0695,2.0174,1.9593,1.9225,1.8557,1.8036,0.0,0.0,0.0,1.9579,2.0494,0.0,2.1675,2.2098,0.0,2.2024,0.0,2.0783,2.1872,2.0949,0.0,0.0,2.0655,2.0637,1.8677,1.7708,1.6127,1.3729,1.2323,1.147,1.1165,1.0945,1.0795,1.0721,1.0721,1.0721,1.0721,1.0721,1.0721,1.0721,1.0721,1.0721,1.0697,1.0402,1.028,1.0249,0.9941,0.9822,0.9785,0.949,0.9381,0.934,0.9042,0.8885,0.8885,0.8885,0.8858,0.8828,0.8564,0.8459,0.8374,0.8062,0.7988,0.7988,0.7988,0.7988,0.7988,0.7988,0.7988,0.7988,0.7988,0.7988,0.7988,0.7988,0.7988,0.7988,0.7988,0.7882,0.7723,0.7614,0.7434,0.7182,0.671,0.591,0.5502,0.5841,0.4373,0.3635,0.4233,0.453,0.4491,0.3945,0.3398,0.2851,0.2344,0.0823,0.0,0.0,0.0,0.0,0.0,0.0,0.0,0.0,0.0,0.0,1.7375,1.9299,2.1109,2.1109,2.0895,2.0575,2.0187,1.9619,1.8978,1.829,1.7642,1.7161,1.7034,1.7502,1.8197,0.0,0.0,0.0,2.1643,2.2131,2.2405,0.0,2.1675,0.0,2.2318,2.1498,2.0952,0.0,2.1815,2.1353,1.8899,1.7757,1.6338,1.4432,1.2536,1.1375,1.107,1.1562,1.1439,1.0721,1.0721,1.0721,1.0721,1.0721,1.0721,1.0721,0.0,1.0721,1.0697,1.0402,1.028,1.0249,0.9941,0.9822,0.9791,0.9564,0.9439,0.9347,0.9113,0.8991,0.8885,0.8885,0.8885,0.8841,0.8655,0.8533,0.8435,0.8204,0.8092,0.7988,0.7988,0.7988,0.7988,0.7988,0.7988,0.7988,0.7988,0.7988,0.7988,0.7988,0.7988,0.7988,0.7988,0.7913,0.7763,0.7621,0.7468,0.7316,0.7115,0.6561,0.6305,0.6739,0.5644,0.5033,0.545,0.5425,0.5198,0.4727,0.3709,0.289,0.2464,0.1332,0.0706,0.0706,0.0706,0.0706,0.0706,0.0236,0.0,0.0,0.0,0.0,1.7348,1.924,2.0786,2.1046,2.0828,2.0354,1.9611,1.8985,1.8323,1.7306,1.6734,1.6406,1.6199,1.669,1.7407,1.833,0.0,2.0555,2.181,2.2205,2.2485,2.2887,2.2928,2.2928,2.2928,2.2632,2.2585,2.2914,2.2928,2.142,1.8004,1.763,1.6671,1.4814,1.3037,1.1913,1.1617,1.2959,1.2738,1.1045,1.1045,1.0916,1.0721,1.0721,1.0721,1.0721,0.0,0.0,1.0697,1.0402,1.028,1.0249,0.9941,0.9822,0.9802,0.9639,0.9496,0.9357,0.9241,0.9042,0.8885,0.8885,0.8885,0.8854,0.8757,0.8604,0.8452,0.8364,0.816,0.7988,0.7988,0.7988,0.7988,0.7988,0.7988,0.7988,0.7988,0.7988,0.7988,0.7988,0.7988,0.7988,0.7988,0.788,0.7787,0.7624,0.7489,0.7339,0.7119,0.7095,0.7041,0.6903,0.681,0.6661,0.6525,0.6399,0.5925,0.4963,0.3904,0.293,0.2036,0.188,0.1802,0.1802,0.1685,0.1607,0.1607,0.051,0.0,0.0,0.0,0.0,1.5797,1.7569,1.9291,2.0722,2.0528,1.9846,1.9517,1.8183,0.0,1.6513,1.5852,1.537,1.5511,1.6025,1.6874,1.8263,1.9065,2.0094,2.175,2.2031,2.2258,0.0,2.2928,2.2928,2.2928,2.2881,0.0,0.0,0.0,0.0,2.1945,2.0449,1.8624,1.6481,1.5937,1.5509,1.5196,1.5376,1.4553,1.2869,1.2869,1.2088,1.0721,1.0721,1.0721,1.0721,0.0,0.0,1.0697,1.0402,1.028,1.0249,0.9941,0.9822,0.9788,0.952,0.9405,0.9344,0.9069,0.8905,0.8885,0.8885,0.8885,0.8854,0.8757,0.8604,0.8452,0.8364,0.816,0.7988,0.7988,0.7988,0.7988,0.7988,0.7988,0.7988,0.7988,0.7988,0.7988,0.7988,0.7988,0.7988,0.7988,0.7968,0.786,0.7641,0.7577,0.7458,0.7132,0.7095,0.7041,0.6903,0.6862,0.6776,0.6538,0.6491,0.6343,0.6032,0.5002,0.4336,0.4181,0.332,0.2851,0.2851,0.2035,0.1607,0.1607,0.051,0.0,0.0,0.0,0.0,1.54,1.7146,1.8866,2.0469,2.0341,1.9606,1.8851,1.7655,1.6533,1.5939,1.541,1.5001,1.4943,1.5671,1.6506,1.7221,1.8096,1.9239,2.0848,2.1203,2.163,2.2525,2.2772,2.2928,0.0,0.0,0.0,0.0,0.0,0.0,2.2928,2.0971,1.8902,1.6747,1.7336,1.7169,1.6015,1.6818,1.5913,1.3325,1.3325,1.2413,1.0721,1.0721,1.0721,1.0721,0.0,0.0,1.0697,1.0402,1.028,1.0249,0.9941,0.9822,0.9802,0.9663,0.9513,0.9361,0.9218,0.9069,0.8885,0.8885,0.8885,0.8868,0.8852,0.8665,0.8469,0.8397,0.8218,0.7988,0.7988,0.7988,0.7988,0.7988,0.7988,0.7988,0.7988,0.7988,0.7988,0.7988,0.7988,0.7988,0.7988,0.7988,0.7914,0.7743,0.7648,0.7516,0.7288,0.7146,0.7068,0.7004,0.693,0.6837,0.661,0.6559,0.6453,0.631,0.5276,0.4688,0.4688,0.4217,0.3943,0.3943,0.3478,0.2932,0.2386,0.1332,0.0549,0.0,0.0,0.0,1.5267,1.6851,1.8384,2.0237,2.014,1.9339,1.8235,1.7208,1.6213,1.5458,1.5023,1.4723,1.4549,1.5277,1.5999,1.6313,1.7201,1.8355,2.0007,2.0541,2.1182,0.0,2.2679,0.0,2.2928,0.0,0.0,0.0,0.0,0.0,0.0,2.1157,1.9387,1.7733,1.8737,1.8576,1.7017,1.8378,1.7339,1.384,1.384,1.2738,1.0721,1.0721,1.0916,1.124,0.0,0.0,0.0,1.0973,1.0658,1.0249,0.9941,0.9822,0.9815,1.0141,0.9898,0.9432,0.9745,0.9437,0.8885,0.8885,0.8885,0.8885,0.8885,0.8723,0.8482,0.8482,0.8269,0.7988,0.7988,0.7988,0.7988,0.7988,0.7988,0.7988,0.7988,0.7988,0.7988,0.7988,0.7988,0.7988,0.7988,0.7988,0.7938,0.7834,0.7692,0.7546,0.7436,0.7238,0.7095,0.7095,0.6997,0.6869,0.6763,0.6637,0.6535,0.6358,0.5551,0.5065,0.504,0.504,0.504,0.504,0.4805,0.4295,0.3435,0.2425,0.1488,0.0666,0.0666,0.0549,1.4788,1.5949,1.6894,1.9912,1.9833,1.8838,1.8135,1.6683,1.5418,1.5122,1.4599,1.4242,1.4476,1.4609,1.5117,1.6453,1.6987,1.7936,1.9947,2.0715,2.1403,2.2311,0.0,0.0,0.0,0.0,0.0,0.0,0.0,0.0,0.0,2.223,2.1825,2.1143,2.1298,2.1075,2.0659,2.0786,1.9094,1.5654,1.5654,1.3905,1.0721,1.0721,1.1567,1.3062,0.0,0.0,0.0,1.274,1.172,1.0249,0.9941,0.9822,0.9983,1.1316,1.0794,0.9589,1.0851,1.0229,0.8885,0.8885,0.8885,0.8885,0.8885,0.8723,0.8482,0.8482,0.8269,0.7988,0.7988,0.7988,0.7988,0.7988,0.7988,0.7988,0.7988,0.7988,0.7988,0.7988,0.7988,0.7988,0.7988,0.7988,0.7938,0.7834,0.7692,0.7546,0.7436,0.7238,0.7095,0.7095,0.7085,0.7018,0.6876,0.6852,0.6763,0.6511,0.6371,0.6274,0.6148,0.6141,0.6141,0.6141,0.5198,0.4647,0.4569,0.3474,0.2929,0.2812,0.2812,0.2306,1.4543,1.5709,1.6604,1.9639,1.9659,1.8718,1.7943,1.654,1.5311,1.5068,1.4539,1.4122,1.4242,1.4402,1.477,1.5531,1.5905,1.6627,1.8163,1.9045,1.9987,2.1223,2.1944,0.0,0.0,0.0,0.0,0.0,0.0,0.0,0.0,2.1897,2.179,2.1628,2.1376,2.1229,2.1109,2.1109,1.9871,1.7468,1.7468,1.6172,1.3844,1.3844,1.4232,1.4879,0.0,0.0,0.0,1.3431,1.2465,1.1744,1.0364,1.0418,1.1298,1.1714,1.142,1.09,1.1274,1.027,0.8885,0.8885,0.8885,0.8885,0.8885,0.8723,0.8482,0.8482,0.8269,0.7988,0.7988,0.7988,0.7988,0.7988,0.7988,0.7988,0.7988,0.7988,0.7988,0.7988,0.7988,0.7988,0.7988,0.7988,0.7968,0.7907,0.7821,0.7675,0.7529,0.7373,0.7244,0.7105,0.7095,0.7038,0.69,0.6886,0.6837,0.6624,0.661,0.6583,0.6529,0.6477,0.6426,0.6426,0.5905,0.5354,0.4688,0.4256,0.3748,0.3085,0.3085,0.289,1.4237,1.5411,1.6355,1.9235,1.9312,1.8444,1.7635,1.6319,1.5211,1.5055,1.4539,1.4088,1.4088,1.4322,1.4616,1.4961,1.5277,1.5965,1.7235,1.811,1.9132,0.0,0.0,0.0,0.0,0.0,0.0,0.0,0.0,0.0,0.0,2.1534,2.1423,2.1423,2.1223,2.1109,2.1109,2.1109,2.0202,1.8506,1.8506,1.7602,1.5913,1.5913,1.6172,0.0,0.0,0.0,0.0,1.4973,1.3733,1.2661,1.1614,1.1615,1.2316,1.3067,1.2968,1.2438,1.2679,1.1355,0.9533,0.9533,0.9265,0.8885,0.8885,0.8757,0.854,0.8496,0.8269,0.7988,0.7988,0.7988,0.7988,0.7988,0.7988,0.7988,0.7988,0.7988,0.7988,0.7988,0.7988,0.7988,0.7988,0.7988,0.7988,0.7988,0.7909,0.776,0.7617,0.7465,0.7312,0.7112,0.7095,0.7055,0.6957,0.6947,0.6883,0.6776,0.6766,0.6749,0.6702,0.6597,0.6539,0.6539,0.648,0.6027,0.5306,0.5266,0.4852,0.4101,0.4073,0.388,1.3625,1.4831,1.5734,1.8667,1.8698,1.7869,1.734,1.6067,1.5015,1.5008,1.4539,1.4088,1.4088,1.4322,1.4616,1.4961,1.5444,1.629,1.7776,1.8488,1.9352,0.0,0.0,0.0,0.0,0.0,0.0,0.0,0.0,0.0,0.0,0.0,2.1116,2.1116,2.1109,2.1109,2.1109,2.1109,2.0202,1.8506,1.8506,1.7602,1.5913,1.5913,0.0,0.0,0.0,0.0,0.0,1.791,1.5678,1.2545,1.3971,1.3586,1.2569,1.5773,1.5646,1.4102,1.5676,1.3966,1.1055,1.1055,1.008,0.8885,0.8885,0.8828,0.8676,0.8523,0.8269,0.7988,0.7988,0.7988,0.7988,0.7988,0.7988,0.7988,0.7988,0.7988,0.7988,0.7988,0.7988,0.7988,0.7988,0.7988,0.7988,0.7988,0.7909,0.776,0.7617,0.7465,0.7312,0.7112,0.7095,0.7095,0.7095,0.7095,0.7034,0.6893,0.6883,0.6858,0.6709,0.6698,0.6698,0.6698,0.6698,0.6695,0.6695,0.6542,0.6471,0.6464,0.6325,0.5783,1.2615,1.373,1.4616,1.7255,1.7482,1.6967,1.638,1.5578,1.4948,1.4703,1.4355,1.4088,1.4088,1.4162,1.4516,1.5411,1.5712,1.6273,1.7549,0.0,0.0,1.9987,0.0,0.0,0.0,0.0,0.0,0.0,0.0,0.0,0.0,0.0,2.1109,2.1109,2.1109,2.1109,2.1109,2.1109,2.0849,2.0265,2.0265,2.0005,1.9477,1.9477,0.0,0.0,0.0,0.0,0.0,1.821,1.6871,1.575,1.4924,1.4955,1.558,1.6356,1.6195,1.5597,1.5931,1.3837,1.1105,1.1105,1.0076,0.8885,0.8885,0.8832,0.8659,0.8408,0.8194,0.7988,0.7988,0.7988,0.7988,0.7988,0.7988,0.7988,0.7988,0.7988,0.7988,0.7988,0.7988,0.7988,0.7988,0.7988,0.7988,0.7988,0.7948,0.7879,0.7631,0.7556,0.7428,0.7125,0.7095,0.7095,0.7095,0.7095,0.7078,0.7034,0.7031,0.7007,0.696,0.6866,0.6858,0.6858,0.6753,0.6702,0.6702,0.6651,0.6627,0.6627,0.6583,0.642,1.2491,1.3185,1.3673,1.6234,1.6593,1.6253,1.5772,1.5211,1.4743,1.4556,1.4289,1.4088,1.4088,1.4175,1.4522,1.5364,1.5591,1.6119,0.0,0.0,0.0,1.9853,0.0,0.0,0.0,0.0,0.0,0.0,0.0,0.0,0.0,0.0,2.1109,2.1109,2.1109,2.1109,2.1109,2.1109,2.1109,2.1109,2.1109,2.1109,2.1109,0.0,0.0,0.0,0.0,0.0,0.0,1.8895,1.79,1.7185,1.6619,1.6674,1.7049,1.7325,1.7284,1.7067,1.6795,1.493,1.2615,1.2077,1.0945,0.9754,0.9754,0.9219,0.8584,0.8401,0.8201,0.7988,0.7988,0.7988,0.7988,0.7988,0.7988,0.7988,0.7988,0.7988,0.7988,0.7988,0.7988,0.7988,0.7988,0.7988,0.7988,0.7988,0.7988,0.7884,0.7638,0.76,0.7482,0.7129,0.7095,0.7095,0.7095,0.7095,0.7095,0.7095,0.7095,0.7095,0.7095,0.7011,0.6964,0.6964,0.6873,0.6865,0.6865,0.6814,0.6756,0.6702,0.6759,0.6787,0.0,1.3034,1.2925,1.5477,1.5925,1.5658,1.5371,1.4897,0.0,1.4496,1.4275,1.4095,1.4142,1.4349,1.4643,1.5068,1.5317,1.5992,0.0,1.7969,0.0,0.0,0.0,0.0,0.0,0.0,0.0,0.0,0.0,0.0,0.0,0.0,0.0,2.1109,2.1109,2.1109,2.1109,2.1109,2.1109,2.1109,2.1109,2.1109,2.1096,0.0,0.0,0.0,0.0,0.0,0.0,1.978,1.8756,1.7325,1.8823,1.8467,1.7289,1.8498,1.8738,1.8444,1.8095,1.6851,1.515,1.375,1.2349,1.1269,1.1269,1.0049,0.8636,0.8535,0.8269,0.7988,0.7988,0.7988,0.7988,0.7988,0.7988,0.7988,0.7988,0.7988,0.7988,0.7988,0.7988,0.7988,0.7988,0.7988,0.7988,0.7988,0.7988,0.7884,0.7638,0.76,0.7482,0.7129,0.7095,0.7095,0.7095,0.7095,0.7095,0.7095,0.7095,0.7095,0.7095,0.7095,0.7095,0.7095,0.7095,0.7095,0.7095,0.6964,0.6871,0.6736,0.6836,0.6903,1.2245,0.0,1.1724,1.4027,1.4716,1.4756,0.0,1.4462,1.4456,1.4235,1.4135,1.4229,1.472,1.4629,1.491,1.6099,1.6353,1.684,1.8103,0.0,0.0,0.0,0.0,0.0,0.0,0.0,0.0,0.0,0.0,0.0,0.0,0.0,0.0,2.1109,2.1109,2.1109,2.1109,2.1109,2.1109,2.1109,2.1109,2.1109,2.1096,0.0,0.0,0.0,0.0,0.0,1.978,1.9559,1.9244,1.8881,1.9249,1.9185,1.8848,1.8854,1.8738,1.8444,1.8095,1.6851,1.515,1.375,1.3048,1.2778,1.2778,1.158,0.9924,0.8842,0.8269,0.7988,0.7988,0.7988,0.7988,0.7988,0.7988,0.7988,0.7988,0.7988,0.7988,0.7988,0.7988,0.7988,0.7988,0.7988,0.7988,0.7988,0.7988,0.7884,0.7638,0.76,0.7482,0.7129,0.7095,0.7095,0.7095,0.7095,0.7095,0.7095,0.7095,0.7095,0.7095,0.7095,0.7095,0.7095,0.7095,0.7095,0.7095,0.7061,0.7028,0.6994,0.7031,0.7048,1.1952,1.1995,1.2114,1.3836,1.4402,1.4482,1.4322,1.4302,1.4282,1.4122,1.4088,1.4229,1.4676,1.4743,1.507,1.6132,1.6533,0.0,0.0,0.0,0.0,0.0,0.0,0.0,0.0,0.0,0.0,0.0,0.0,0.0,0.0,0.0,0.0,0.0,2.1109,2.1109,2.1109,2.1109,2.1109,2.1109,2.1109,2.1042,2.0902,0.0,0.0,0.0,0.0,0.0,1.9593,1.9432,1.9424,1.9352,1.9219,1.9165,1.9112,1.8677,1.8424,1.8243,1.7936,1.6744,1.5364,1.531,1.4824,1.4288,1.4288,1.3477,1.213,1.008,0.8769,0.7988,0.7988,0.7988,0.7988,0.7988,0.7988,0.7988,0.7988,0.7988,0.7988,0.7988,0.7988,0.7988,0.7988,0.7988,0.7988,0.7988,0.7988,0.7884,0.7638,0.76,0.7482,0.7129,0.7095,0.7095,0.7095,0.7095,0.7095,0.7095,0.7095,0.7095,0.7095,0.7095,0.7095,0.7095,0.7095,0.7095,0.7095,0.7095,0.7095,0.7095,0.7095,0.7095,1.1906,1.2651,1.3286,1.4195,1.4522,1.4563,1.4476,1.4295,1.4142,1.4095,1.4122,1.4255,1.4596,1.4751,1.5074,0.0,0.0,0.0,0.0,0.0,0.0,0.0,0.0,0.0,0.0,0.0,0.0,0.0,0.0,0.0,0.0,0.0,0.0,0.0,2.1109,2.1109,2.1109,2.1109,2.1109,2.1109,2.1109,2.0955,2.0668,2.0368,0.0,0.0,0.0,0.0,1.9424,1.9424,1.9424,1.9397,1.9038,1.8925,1.8851,1.8209,1.7995,1.7949,1.7689,1.677,1.5956,1.7199,1.677,1.5737,1.5695,1.5283,1.4326,1.1937,0.9851,0.8283,0.8283,0.8137,0.7988,0.7988,0.7988,0.7988,0.7988,0.7988,0.7988,0.7988,0.7988,0.7988,0.7988,0.7988,0.7988,0.7988,0.7988,0.7891,0.7665,0.7631,0.7516,0.7162,0.7132,0.7122,0.7098,0.7095,0.7095,0.7095,0.7095,0.7095,0.7095,0.7095,0.7095,0.7095,0.7095,0.7095,0.7095,0.7095,0.7095,0.7095,0.7095,0.7095,1.1855,1.3268,1.4239,1.4166,1.4529,1.4807,1.4269,1.4309,1.4382,1.4135,1.4282,1.4623,1.5164,1.4599,1.4721,0.0,0.0,0.0,0.0,0.0,0.0,0.0,0.0,0.0,0.0,0.0,0.0,0.0,0.0,0.0,0.0,0.0,0.0,0.0,0.0,2.1109,2.1109,2.1109,2.1109,2.1109,2.1109,2.0955,2.0668,2.0368,2.0074,0.0,0.0,0.0,1.9424,1.9424,1.9424,1.9397,1.9038,1.8925,1.8851,1.8209,1.7995,1.7949,1.7689,1.747,1.7312,1.7529,1.747,1.7206,1.697,1.5928,1.4645,1.3973,1.1786,0.9706,0.9706,0.8874,0.7988,0.7988,0.7988,0.7988,0.7988,0.7988,0.7988,0.7988,0.7988,0.7988,0.7988,0.7988,0.7988,0.7988,0.7988,0.7928,0.7801,0.778,0.7665,0.7366,0.7336,0.7282,0.7105,0.7095,0.7095,0.7095,0.7095,0.7095,0.7095,0.7095,0.7095,0.7095,0.7095,0.7095,0.7095,0.7095,0.7095,0.7095,0.7095,0.7095,1.2359,1.3393,1.4013,1.4082,1.4102,1.3857,1.2925,1.2675,1.2629,1.2514,1.2578,1.2773,1.3234,1.3203,1.364,1.5403,0.0,0.0,0.0,0.0,0.0,0.0,0.0,0.0,0.0,0.0,0.0,0.0,0.0,0.0,0.0,0.0,0.0,0.0,0.0,0.0,2.1109,2.1109,2.1109,2.1109,2.0949,2.0722,2.0428,2.0134,1.984,0.0,0.0,1.9424,1.9424,1.9424,1.9272,1.9098,1.8804,1.8591,1.8342,1.7956,1.7796,1.7776,1.7629,1.7582,1.7582,1.7582,1.7475,1.7373,1.7239,1.6467,1.558,1.5398,1.3291,1.0877,1.0194,0.9558,0.8874,0.8187,0.7988,0.7988,0.7988,0.7988,0.7988,0.7988,0.7988,0.7988,0.7988,0.7988,0.7988,0.7988,0.7988,0.7934,0.7831,0.7811,0.7699,0.745,0.7415,0.7309,0.7109,0.7095,0.7095,0.7095,0.7095,0.7095,0.7095,0.7095,0.7095,0.7095,0.7095,0.7095,0.7095,0.7095,0.7095,0.7095,0.7095,0.7095,1.2803,1.3265,1.3302,1.3659,1.3558,1.31,1.2173,1.1593,1.1268,1.1278,1.1345,1.1442,1.1606,1.2234,0.0,1.3819,0.0,0.0,0.0,0.0,0.0,0.0,0.0,0.0,0.0,0.0,0.0,0.0,0.0,0.0,0.0,0.0,0.0,0.0,0.0,0.0,2.1009,2.1009,2.1009,2.1002,2.0782,2.0488,2.0127,1.99,1.9639,1.9424,1.9424,1.9383,1.9265,1.9265,1.9085,1.8791,1.8497,1.8203,1.7856,1.7669,1.7582,1.7582,1.7582,1.7582,1.7582,1.7582,1.744,1.7186,1.7119,1.6737,1.6259,1.6186,1.4576,1.2528,1.1263,1.0485,0.9801,0.9069,0.8676,0.8482,0.8482,0.8482,0.8382,0.8038,0.7988,0.7988,0.7988,0.7988,0.7988,0.7988,0.7988,0.7948,0.7879,0.7865,0.7859,0.7962,0.7976,0.7851,0.7649,0.7292,0.7095,0.7095,0.7095,0.7095,0.7095,0.7095,0.7095,0.7095,0.7095,0.7095,0.7095,0.7095,0.7095,0.7095,0.7095,0.7095,1.2834,1.2823,1.2111,1.2574,1.2972,1.3227,1.3351,1.2475,1.1712,1.1919,1.2043,1.2145,1.2164,1.2864,1.3267,1.2825,0.0,0.0,0.0,0.0,0.0,0.0,0.0,0.0,0.0,0.0,0.0,0.0,0.0,0.0,0.0,0.0,0.0,0.0,0.0,0.0,2.0708,2.0708,2.0708,2.0708,2.0688,2.0381,1.9826,1.9813,1.9639,1.9424,1.9424,1.9212,1.8958,1.8958,1.8784,1.8497,1.8196,1.7889,1.7615,1.7589,1.7582,1.7582,1.7582,1.7582,1.7582,1.7582,1.744,1.7146,1.682,1.652,1.6261,1.5939,1.5696,1.5242,1.3974,1.1843,1.0293,1.1361,1.073,0.9854,0.9854,0.9854,0.9509,0.8237,0.7988,0.7988,0.7988,0.7988,0.7988,0.7988,0.7988,0.7985,0.7975,0.7975,0.8396,0.9507,0.9629,0.9486,0.9173,0.7882,0.7095,0.7095,0.7095,0.7095,0.7095,0.7095,0.7095,0.7095,0.7095,0.7095,0.7095,0.7095,0.7095,0.7095,0.7095,0.7095,1.2622,1.2494,1.1943,1.2218,1.1568,1.0986,1.1255,1.0503,0.9777,1.003,1.01,1.0182,1.0284,0.0,1.0921,0.0,0.0,0.0,0.0,0.0,0.0,0.0,0.0,0.0,0.0,0.0,0.0,0.0,0.0,0.0,0.0,0.0,0.0,0.0,0.0,0.0,0.0,2.0401,2.0307,2.0134,2.0134,2.0013,1.9793,1.9613,1.9472,1.9417,1.9172,1.9025,1.8911,1.8731,1.8484,1.8183,1.7876,1.7689,1.7582,1.7582,1.7582,1.7582,1.7582,1.7582,1.7555,1.7427,1.7166,1.682,1.6526,1.6233,1.5972,1.5865,1.5784,1.5486,1.4214,1.3151,1.2328,1.1994,1.1512,1.117,1.117,1.0583,0.9854,0.9361,0.8581,0.7988,0.7988,0.8676,0.897,0.8137,0.8726,0.892,0.8088,0.8726,0.9392,0.9783,1.0296,1.0484,1.0152,0.9616,0.9266,0.9266,0.7921,0.7095,0.7095,0.7095,0.7095,0.7095,0.7095,0.7095,0.7095,0.7095,0.7095,0.7095,0.7095,0.7095,1.2654,1.1999,1.1111,1.2051,1.062,0.917,0.9929,0.9306,0.8669,0.9069,0.9113,0.911,0.9265,0.931,0.0,0.0,0.0,0.0,0.0,0.0,0.0,0.0,0.0,0.0,0.0,0.0,0.0,0.0,0.0,0.0,0.0,0.0,0.0,0.0,0.0,0.0,0.0,2.0094,1.9953,1.9659,1.9659,1.9659,1.9659,1.9459,1.9319,1.9219,1.9011,1.8818,1.8575,1.843,1.817,1.7883,1.7662,1.7582,1.7582,1.7582,1.7582,1.7582,1.7582,1.7582,1.7535,1.7293,1.6947,1.6653,1.6359,1.6066,1.5784,1.5784,1.5784,1.5581,1.4752,1.4214,1.3776,1.3253,1.2818,1.2528,1.2528,1.1843,1.1116,1.0681,0.985,0.9213,0.9213,0.9998,1.0288,0.9361,0.9998,1.0217,0.9233,0.9905,1.0553,1.0773,1.1303,1.1541,1.1293,1.0868,1.0611,1.0611,0.9096,0.8053,0.7665,0.7316,0.7095,0.7095,0.7095,0.7095,0.7095,0.7095,0.7095,0.7095,0.7095,0.7095,1.3,1.1207,0.9319,1.191,1.0177,0.8266,0.9974,0.9505,0.8886,0.9486,0.949,0.9384,0.9384,0.9384,0.0,0.0,0.0,0.0,0.0,0.0,0.0,0.0,0.0,0.0,0.0,0.0,0.0,0.0,0.0,0.0,0.0,0.0,0.0,0.0,0.0,0.0,0.0,1.98,1.9653,1.9424,1.9424,1.9424,1.9424,1.9424,1.9199,1.8925,1.8918,1.8528,1.7995,1.7989,1.7862,1.7582,1.7582,1.7582,1.7582,1.7582,1.7582,1.7582,1.7582,1.7575,1.7522,1.7286,1.6991,1.6647,1.6359,1.6059,1.5784,1.5784,1.5784,1.5784,1.5784,1.4854,1.4214,1.5486,1.4848,1.3926,1.3926,1.3926,1.3488,1.2188,1.1901,1.1896,1.1896,1.1901,1.1901,1.1896,1.1901,1.1816,1.1532,1.1502,1.1885,1.2905,1.2913,1.2803,1.2803,1.1478,1.0611,1.0611,1.0611,1.0096,0.8978,0.7753,0.7139,0.7095,0.7095,0.7095,0.7095,0.7095,0.7095,0.7095,0.7095,0.7095,1.1549,1.0524,0.9037,0.9903,0.9253,0.8569,0.9233,0.922,0.9161,0.9656,0.9642,0.954,0.954,0.0,0.0,0.0,0.0,0.0,0.0,0.0,0.0,0.0,0.0,0.0,0.0,0.0,0.0,0.0,0.0,0.0,0.0,0.0,0.0,0.0,0.0,0.0,0.0,0.0,1.9452,1.9424,1.9424,1.9424,1.9417,1.9152,1.9005,1.8905,1.8428,1.8155,1.7975,1.7809,1.7662,1.7582,1.7582,1.7582,1.7582,1.7582,1.7507,1.7333,1.7333,1.7141,1.6921,1.6627,1.6522,1.6346,1.6052,1.5899,1.5784,1.5784,1.5784,1.5784,1.5784,1.5534,1.5337,1.573,1.5486,1.5242,1.5242,1.4507,1.3782,1.3392,1.2528,1.1896,1.1896,1.2673,1.3006,1.2042,1.2716,1.3205,1.2905,1.2674,1.2939,1.3957,1.4025,1.3939,1.3746,1.3302,1.3039,1.3039,1.2248,1.1295,1.0135,0.9744,0.9183,0.8364,0.8364,0.7929,0.7095,0.7095,0.7095,0.7095,0.7095,0.7095,1.1567,1.0303,0.8613,0.9375,0.9096,0.8723,0.9117,0.9273,0.9429,0.9754,0.9707,0.9629,0.9683,0.9649,0.0,0.0,0.0,0.0,0.0,0.0,0.0,0.0,0.0,0.0,0.0,0.0,0.0,0.0,0.0,0.0,0.0,0.0,0.0,0.0,0.0,0.0,0.0,0.0,0.0,1.9192,1.9192,1.9132,1.9018,1.8951,1.8798,1.8495,1.807,1.7862,1.7849,1.7662,1.7582,1.7569,1.7455,1.746,1.7395,1.7275,1.7121,1.7025,1.7025,1.6854,1.666,1.6366,1.6321,1.6219,1.5919,1.5784,1.5784,1.5784,1.5784,1.5784,1.5784,1.5784,1.5784,1.5784,1.5784,1.5784,1.5784,1.5194,1.4657,1.4657,1.398,1.3451,1.3451,1.4124,1.4364,1.3547,1.3951,1.4316,1.4207,1.3736,1.373,1.4435,1.4416,1.4282,1.4102,1.4088,1.4088,1.4088,1.3421,1.2729,1.204,1.1085,1.0269,0.9579,0.9148,0.854,0.7797,0.7316,0.7095,0.7095,0.7095,0.7095,1.2238,1.0305,0.8153,0.967,0.9272,0.8726,0.9429,0.9588,0.9632,0.9788,0.0,0.9666,0.9798,0.0,0.0,0.0,0.0,0.0,0.0,0.0,0.0,0.0,0.0,0.0,0.0,0.0,0.0,0.0,0.0,0.0,0.0,0.0,0.0,0.0,0.0,0.0,0.0,0.0,0.0,0.0,1.8885,1.8731,1.8464,1.8724,1.8537,1.7935,1.7702,1.7582,1.7582,1.7582,1.7569,1.7515,1.7306,1.7186,1.7125,1.6807,1.6687,1.6667,1.6667,1.6647,1.658,1.6319,1.6233,1.6179,1.5912,1.5784,1.5784,1.5784,1.5784,1.5784,1.5784,1.5784,1.5784,1.5784,1.5784,1.5784,1.5784,1.5784,1.5784,1.5784,1.5784,1.5784,1.5784,1.5784,1.5784,1.5784,1.5357,1.5135,1.5331,1.4663,1.4249,1.4456,1.4269,1.4115,1.4088,1.4088,1.4088,1.4088,1.4088,1.4088,1.4088,1.204,1.0869,1.0783,0.9749,0.9104,0.889,0.7797,0.7228,0.7095,0.7095,0.7095,1.0259,0.9184,0.7794,0.851,0.8905,0.9139,0.9364,0.9432,0.9503,0.9768,0.9795,0.9785,0.0,0.0,0.0,0.0,0.0,0.0,0.0,0.0,0.0,0.0,0.0,0.0,0.0,0.0,0.0,0.0,0.0,0.0,0.0,0.0,0.0,0.0,0.0,0.0,1.9018,1.8791,1.8651,0.0,1.8584,1.843,1.8089,1.8155,1.8029,1.7675,1.7609,1.7582,1.7582,1.7582,1.7501,1.7286,1.7226,1.7058,1.6794,1.6727,1.656,1.6366,1.6366,1.6213,1.5957,1.5945,1.5925,1.5912,1.5798,1.5784,1.5784,1.5784,1.5784,1.5784,1.5784,1.5784,1.5784,1.5784,1.5784,1.5784,1.5784,1.5784,1.5784,1.5784,1.5784,1.5784,1.5784,1.5784,1.5784,1.5784,1.5531,1.5244,1.5122,1.4934,1.4666,1.4222,1.4329,1.4335,1.4108,1.4088,1.4088,1.4088,1.4088,1.4088,1.4088,1.3603,1.2905,1.1938,1.1681,1.0697,0.889,0.8627,0.8013,0.7095,0.7095,0.7095,0.9956,0.9332,0.8354,0.8488,0.8873,0.9251,0.9347,0.9381,0.9425,0.9578,0.9608,0.0,0.0,0.0,0.0,0.0,0.0,0.0,0.0,0.0,0.0,0.0,0.0,0.0,0.0,0.0,0.0,0.0,0.0,0.0,0.0,0.0,0.0,0.0,0.0,0.0,1.8718,1.8564,1.8424,1.8277,1.8277,1.8116,1.7822,1.7822,1.7736,1.7582,1.7582,1.7554,1.7427,1.7427,1.7253,1.6978,1.6837,1.6683,1.648,1.6339,1.6192,1.6059,1.6059,1.5959,1.5784,1.5784,1.5784,1.5784,1.5784,1.5784,1.5784,1.5784,1.5784,1.5784,1.5784,1.5784,1.5784,1.5784,1.5784,1.5784,1.5784,1.5784,1.5784,1.5784,1.5784,1.5784,1.5784,1.5784,1.5784,1.5784,1.5585,1.5391,1.5378,1.501,1.4689,1.4566,1.4389,1.4255,1.4102,1.4088,1.4088,1.4088,1.4088,1.4088,1.4088,1.4088,1.3779,1.316,1.2589,1.1724,1.0524,0.9966,0.9401,0.8746,0.8229,0.7973,1.0299,0.9845,0.8997,0.8748,0.8876,0.9166,0.9235,0.9286,0.9306,0.9306,0.0,0.0,0.0,0.0,0.0,0.0,0.0,0.0,0.0,0.0,0.0,0.0,0.0,0.0,0.0,0.0,0.0,0.0,0.0,0.0,0.0,0.0,0.0,0.0,0.0,1.841,1.841,1.8357,1.821,1.7916,1.7916,1.7829,1.7582,1.7528,1.7535,1.7582,1.7528,1.7427,1.7199,1.7146,1.6901,1.6607,1.6366,1.6246,1.6166,1.5919,1.5784,1.5784,1.5784,1.5784,1.5784,1.5784,1.5784,1.5784,1.5784,1.5784,1.5784,1.5784,1.5784,1.5784,1.5784,1.5784,1.5784,1.5784,1.5784,1.5784,1.5784,1.5784,1.5784,1.5784,1.5784,1.5784,1.5784,1.5784,1.5784,1.5784,1.5625,1.5538,1.5732,1.5118,1.4783,1.4877,1.4502,1.4195,1.4095,1.4088,1.4088,1.4088,1.4088,1.4088,1.4088,1.4088,1.4088,1.4088,1.3118,1.2498,1.2285,1.1338,1.0778,1.0567,0.9623,0.9104,1.0052,0.97,0.887,0.8612,0.8642,0.8774,0.8794,0.0,0.8942,0.0,0.0,0.0,0.0,0.0,0.0,0.0,0.0,0.0,0.0,0.0,0.0,0.0,0.0,0.0,0.0,0.0,0.0,0.0,0.0,0.0,0.0,0.0,1.8531,1.849,1.8223,0.0,1.8049,1.7836,1.7682,1.7642,1.7642,1.7622,1.7575,1.7373,1.7393,1.7569,1.7367,1.7239,1.7186,1.6874,1.6593,1.6326,1.6286,1.6112,1.5838,1.5798,1.5784,1.5784,1.5784,1.5784,1.5784,1.5784,1.5784,1.5784,1.5784,1.5784,1.5784,1.5784,1.5784,1.5784,1.5784,1.5784,1.5784,1.5784,1.5784,1.5784,1.5784,1.5784,1.5784,1.5784,1.5784,1.5784,1.5784,1.5784,1.5784,1.5784,1.5751,1.5698,1.5484,1.5571,1.5331,1.4656,1.4736,1.4687,1.4128,1.4088,1.4088,1.4088,1.4088,1.4088,1.4088,1.4088,1.4088,1.4088,1.3955,1.3336,1.2285,1.2151,1.1558,1.0611,1.0438,0.9836,0.887,0.8664,0.8189,0.8333,0.8472,0.8581,0.8581,0.8635,0.8682,0.0,0.0,0.0,0.0,0.0,0.0,0.0,0.0,0.0,0.0,0.0,0.0,0.0,0.0,0.0,0.0,0.0,0.0,0.0,0.0,0.0,0.0,1.8243,1.8163,1.7983,1.7849,0.0,1.7789,1.7649,1.7582,1.7582,1.7582,1.7495,1.7387,1.7259,1.7266,1.7373,1.7027,1.6807,1.6697,1.6513,1.6286,1.6025,1.6025,1.5945,1.5784,1.5784,1.5784,1.5784,1.5784,1.5784,1.5784,1.5784,1.5784,1.5784,1.5784,1.5784,1.5784,1.5784,1.5784,1.5784,1.5784,1.5784,1.5784,1.5784,1.5784,1.5784,1.5784,1.5784,1.5784,1.5784,1.5784,1.5784,1.5784,1.5784,1.5784,1.5784,1.5784,1.5785,1.5658,1.5611,1.5378,1.4823,1.4736,1.4543,1.4122,1.4088,1.4088,1.4088,1.4088,1.4088,1.4088,1.4088,1.4088,1.4088,1.4088,1.3822,1.3294,1.3294,1.3033,1.2559,1.1858,1.1295,0.8033,0.7865,0.7594,0.79,0.815,0.8319,0.0,0.0,0.0,0.0,0.0,0.0,0.0,0.0,0.0,0.0,0.0,0.0,0.0,0.0,0.0,0.0,0.0,0.0,0.0,0.0,0.0,0.0,0.0,0.0,1.7889,1.7876,1.7822,1.7589,1.7582,1.7582,1.7582,1.7508,1.7475,1.7521,1.7395,1.7248,1.7085,1.7012,1.6978,1.6965,1.6693,1.6473,1.6315,1.6192,1.6032,1.5784,1.5784,1.5784,1.5784,1.5784,1.5784,1.5784,1.5784,1.5784,1.5784,1.5784,1.5784,1.5784,1.5784,1.5784,1.5784,1.5784,1.5784,1.5784,1.5784,1.5784,1.5784,1.5784,1.5784,1.5784,1.5784,1.5784,1.5784,1.5784,1.5534,1.5343,1.5343,1.5051,1.4902,1.5289,1.5343,1.5439,1.5778,1.5645,1.5364,1.5048,1.4763,1.4482,1.4122,1.4088,1.4088,1.4088,1.4088,1.4088,1.4088,1.4088,1.4088,1.4088,1.4088,1.4088,1.4088,1.4088,1.4088,1.4088,1.316,1.2589,0.8275,0.7752,0.7312,0.7187,0.7526,0.7882,0.0,0.0,0.0,0.0,0.0,0.0,0.0,0.0,0.0,0.0,0.0,0.0,0.0,0.0,0.0,0.0,0.0,0.0,0.0,0.0,0.0,0.0,0.0,0.0,1.7609,1.7609,1.7602,1.7582,1.7582,1.7582,1.7582,1.736,1.7226,1.7219,1.6887,1.674,1.672,1.644,1.6368,1.6368,1.6348,1.6286,1.6301,1.5972,1.5798,1.5784,1.5784,1.5784,1.5784,1.5784,1.5784,1.5784,1.5784,1.5784,1.5784,1.5784,1.5784,1.5784,1.5784,1.5784,1.5784,1.5784,1.5784,1.5784,1.5784,1.5784,1.5784,1.5784,1.5784,1.5784,1.5784,1.5784,1.5784,1.5784,1.4806,1.4022,1.4022,1.2958,1.2528,1.383,1.4022,1.4459,1.5635,1.5764,1.5591,1.5068,1.4995,1.4754,1.4135,1.4088,1.4088,1.4088,1.4088,1.4088,1.4088,1.4088,1.4088,1.4088,1.4088,1.4088,1.4088,1.4088,1.4088,1.4088,1.4039,1.3379,0.6631,0.6434,0.6621,0.7363,0.8165,0.8691,0.8516,0.0,0.0,0.0,0.0,0.0,0.0,0.0,0.0,0.0,0.0,0.0,0.0,0.0,0.0,0.0,0.0,0.0,0.0,0.0,0.0,0.0,0.0,0.0,1.7582,1.746,1.7353,1.7353,1.7121,1.7021,1.7021,1.6914,1.6867,1.6867,1.676,1.6607,1.6426,1.6319,1.6166,1.5985,1.5985,1.5985,1.5979,1.5872,1.5784,1.5784,1.5784,1.5784,1.5784,1.5784,1.5784,1.5784,1.5784,1.5784,1.5784,1.5784,1.5784,1.5784,1.5784,1.5784,1.5784,1.5784,1.5784,1.5784,1.5784,1.5784,1.5784,1.5784,1.5784,1.5784,1.5784,1.5784,1.5784,1.5784,1.5439,1.5099,1.5099,1.4711,1.4567,1.5045,1.5099,1.5289,1.573,1.5784,1.5678,1.5284,1.5122,1.4847,1.4396,1.4195,1.4088,1.4088,1.4088,1.4088,1.4088,1.4088,1.4088,1.4088,1.4088,1.4088,1.4088,1.4088,1.4088,1.4088,1.4088,1.3864,0.5732,0.5788,0.6355,0.0,0.0,0.8614,0.8804,0.0,0.0,0.0,0.0,0.0,0.0,0.0,0.0,0.0,0.0,0.0,0.0,0.0,0.0,0.0,0.0,0.0,0.0,0.0,0.0,0.0,0.0,0.0,1.7288,1.7108,1.7052,1.7052,1.6807,1.6707,1.6707,1.6607,1.656,1.656,1.646,1.6306,1.6126,1.6126,1.6019,1.5784,1.5784,1.5784,1.5784,1.5784,1.5784,1.5784,1.5784,1.5784,1.5784,1.5784,1.5784,1.5784,1.5784,1.5784,1.5784,1.5784,1.5784,1.5784,1.5784,1.5784,1.5784,1.5784,1.5784,1.5784,1.5784,1.5784,1.5784,1.5784,1.5784,1.5784,1.5784,1.5784,1.5784,1.5784,1.5439,1.5146,1.5146,1.4806,1.4657,1.5099,1.5146,1.5343,1.573,1.5745,1.5571,1.5284,1.499,1.4696,1.4402,1.4202,1.4088,1.4088,1.4088,1.4088,1.4088,1.4088,1.4088,1.4088,1.4088,1.4088,1.4088,1.4088,1.4088,1.4088,1.4088,1.4088,0.0,0.0,0.0,0.0,0.0,0.0,0.0,0.0,0.0,0.0,0.0,0.0,0.0,0.0,0.0,0.0,0.0,0.0,0.0,0.0,0.0,0.0,0.0,0.0,0.0,0.0,0.0,0.0,0.0,1.6707,1.6707,1.67,1.6687,1.668,1.668,1.668,1.668,1.64,1.6308,1.6259,1.5965,1.5784,1.5784,1.5784,1.5784,1.5784,1.5784,1.5784,1.5784,1.5784,1.5784,1.5784,1.5784,1.5784,1.5784,1.5784,1.5784,1.5784,1.5784,1.5784,1.5784,1.5784,1.5784,1.5784,1.5784,1.5784,1.5784,1.5784,1.5784,1.5784,1.5784,1.5784,1.5784,1.5784,1.5784,1.5784,1.5784,1.5784,1.5784,1.5784,1.48,1.3974,1.3974,1.2866,1.2479,1.3776,1.3974,1.4411,1.5635,1.5585,1.5304,1.5062,1.4716,1.4422,1.4135,1.4095,1.4088,1.4088,1.4088,1.4088,1.4088,1.4088,1.4088,1.4088,1.4088,1.4088,1.4088,1.4088,1.4088,1.4088,1.4088,1.4088,0.5514,0.0,0.0,0.0,0.0,0.0,0.0,0.0,0.0,0.0,0.0,0.0,0.0,0.0,0.0,0.0,0.0,0.0,0.0,0.0,0.0,0.0,0.0,0.0,0.0,0.0,0.0,0.0,0.0,1.6707,1.6707,1.6506,1.6293,1.6079,1.6072,1.6072,1.6072,1.5992,1.5952,1.5952,1.5824,1.5784,1.5784,1.5784,1.5784,1.5784,1.5784,1.5784,1.5784,1.5784,1.5784,1.5784,1.5784,1.5784,1.5784,1.5784,1.5784,1.5784,1.5784,1.5784,1.5784,1.5784,1.5784,1.5784,1.5784,1.5784,1.5784,1.5784,1.5784,1.5784,1.5784,1.5784,1.5784,1.5784,1.5784,1.5784,1.5784,1.5784,1.5784,1.5784,1.5534,1.5289,1.5289,1.4956,1.4854,1.5194,1.5289,1.5384,1.573,1.5758,1.5678,1.5598,1.5144,1.481,1.4774,1.4329,1.4088,1.4088,1.4088,1.4088,1.4088,1.4088,1.4088,1.4088,1.4088,1.4088,1.4088,1.4088,1.4088,1.4088,1.4088,1.4088,0.6069,0.6572,0.7519,0.0,0.0,0.0,0.0,0.7732,0.0,0.0,0.0,0.0,0.0,0.0,0.0,0.0,0.0,0.0,0.0,0.0,0.0,0.0,0.0,0.0,0.0,0.0,0.0,0.0,1.5885,1.6339,1.6339,1.6179,1.6005,1.5832,1.5784,1.5784,1.5784,1.5784,1.5784,1.5784,1.5784,1.5784,1.5784,1.5784,1.5784,1.5784,1.5784,1.5784,1.5784,1.5784,1.5784,1.5784,1.5784,1.5784,1.5784,1.5784,1.5784,1.5784,1.5784,1.5784,1.5784,1.5784,1.5784,1.5784,1.5784,1.5784,1.5784,1.5784,1.5784,1.5784,1.5784,1.5784,1.5784,1.5784,1.5784,1.5784,1.5784,1.5784,1.5784,1.5784,1.5784,1.5784,1.5784,1.5784,1.5784,1.5784,1.5784,1.5784,1.5784,1.5678,1.5605,1.5478,1.5057,1.473,1.4609,1.4282,1.4088,1.4088,1.4088,1.4088,1.4088,1.4088,1.4088,1.4088,1.4088,1.4088,1.4088,1.4088,1.4088,1.4088,1.4088,1.4088,0.7191,0.7769,0.8817,0.0,0.0,0.0,0.8966,0.7676,0.0,0.0,0.0,0.0,0.0,0.0,0.0,0.0,0.0,0.0,0.0,0.0,0.0,0.0,0.0,0.0,0.0,0.0,0.0,1.5194,1.5635,1.5784,1.5784,1.5784,1.5784,1.5784,1.5784,1.5784,1.5784,1.5784,1.5784,1.5784,1.5784,1.5784,1.5784,1.5784,1.5784,1.5784,1.5784,1.5784,1.5832,1.5967,1.592,1.5784,1.5784,1.5784,1.5784,1.5784,1.5784,1.5784,1.5784,1.5784,1.5784,1.5784,1.5784,1.5784,1.5784,1.5784,1.5784,1.5784,1.5784,1.5784,1.5784,1.5784,1.5784,1.5784,1.5784,1.5784,1.5784,1.5784,1.5784,1.5784,1.5784,1.5784,1.5784,1.5784,1.5784,1.5784,1.5784,1.5784,1.5784,1.5605,1.5337,1.5089,1.4743,1.4449,1.4162,1.4108,1.4088,1.4088,1.4088,1.4088,1.4088,1.4088,1.4088,1.4088,1.4088,1.4088,1.4088,1.4088,1.4088,1.4088,1.4088,1.4088,0.8365,0.9158,0.0,0.0,0.0,0.0,0.7414,0.7702,0.0,0.0,0.0,0.0,0.0,0.0,0.0,0.0,0.0,0.0,0.0,0.0,0.0,0.0,0.0,0.0,0.0,0.0,1.3247,1.2721,1.4615,1.5784,1.5784,1.5784,1.5784,1.5784,1.5784,1.5784,1.5784,1.5784,1.5784,1.5784,1.5784,1.5784,1.5784,1.5784,1.5784,1.5784,1.5784,1.5784,1.5879,1.6897,1.6716,1.5784,1.5784,1.5784,1.5784,1.5784,1.5784,1.5784,1.5784,1.5784,1.5784,1.5784,1.5784,1.5784,1.5784,1.5784,1.5784,1.5784,1.5784,1.5784,1.5784,1.5784,1.5784,1.5784,1.5784,1.5784,1.5784,1.5784,1.5784,1.5784,1.5784,1.5784,1.5784,1.5784,1.5784,1.5784,1.5784,1.5784,1.5784,1.5731,1.5631,1.5344,1.505,1.4756,1.4462,1.4222,1.4088,1.4088,1.4088,1.4088,1.4088,1.4088,1.4088,1.4088,1.4088,1.4088,1.4088,1.4088,1.4088,1.4088,1.4088,1.4088,0.8511,0.0,0.0,1.0135,0.0,0.0,0.0,0.0,0.0,0.0,0.0,0.0,0.0,0.0,0.0,0.0,0.0,0.0,0.0,0.0,0.0,0.0,0.0,0.0,0.0,0.0,1.3878,1.3836,1.5051,1.5784,1.5784,1.5784,1.5784,1.5784,1.5784,1.5784,1.5784,1.5784,1.5784,1.5784,1.5784,1.5784,1.5784,1.5784,1.5784,1.5784,1.5784,1.6157,1.6803,1.7458,1.7677,1.7576,1.6983,1.6763,1.6662,1.6015,1.5784,1.5784,1.5784,1.5784,1.5784,1.5784,1.5784,1.5784,1.5784,1.5784,1.5784,1.5784,1.5784,1.5784,1.5784,1.5784,1.5784,1.5784,1.5784,1.5784,1.5784,1.5784,1.5738,1.5645,1.5732,1.5784,1.5784,1.5712,1.5665,1.5758,1.5784,1.5784,1.5784,1.5784,1.5665,1.5224,1.5095,1.4827,1.4342,1.4168,1.4088,1.4088,1.4088,1.4088,1.4088,1.4088,1.4088,1.4088,1.4088,1.4088,1.4088,1.4088,1.4088,1.4088,1.4088,1.4088,0.0,0.0,0.0,0.0,0.0,1.1396,0.0,0.0,0.0,1.0722,0.0,0.0,0.0,0.0,0.0,0.0,0.0,0.0,0.0,0.0,0.0,0.0,0.0,0.0,0.0,0.0,1.4168,1.559,1.5638,1.5604,1.5771,1.5784,1.5784,1.5784,1.5784,1.5784,1.5784,1.5784,1.5784,1.5784,1.5784,1.5784,1.5784,1.5784,1.5784,1.5784,1.5784,1.6527,1.7738,1.7956,1.8772,1.9716,1.8503,1.8056,1.7909,1.6615,1.6157,1.6109,1.5872,1.5784,1.5784,1.5784,1.5784,1.5784,1.5784,1.5784,1.5784,1.5784,1.5784,1.5784,1.5784,1.5784,1.5784,1.5784,1.5784,1.5784,1.5784,1.5784,1.5758,1.5524,1.5625,1.5698,1.5698,1.5598,1.5558,1.5792,1.5785,1.5718,1.5771,1.5732,1.5484,1.5062,1.4955,1.4707,1.4135,1.4088,1.4088,1.4088,1.4088,1.4088,1.4088,1.4088,1.4088,1.4088,1.4088,1.4088,1.4088,1.4088,1.4088,1.4088,1.4088,1.4088,0.0,0.0,0.0,0.0,1.355,0.0,0.0,0.0,1.1872,1.0364,0.0,0.0,0.0,0.0,0.0,0.0,0.0,0.0,0.0,0.0,0.0,0.0,0.0,0.0,0.0,0.0,0.0,1.5292,1.4963,1.4958,1.5744,1.5784,1.5784,1.5784,1.5784,1.5784,1.5784,1.5784,1.5784,1.5784,1.5784,1.5784,1.5784,1.5784,1.5784,1.5784,1.5784,1.6527,1.7777,1.8864,1.9988,2.098,1.9761,1.9314,1.9131,1.7909,1.7505,1.7318,1.6204,1.5784,1.5784,1.5784,1.5784,1.5784,1.5784,1.5784,1.5784,1.5784,1.5784,1.5784,1.5784,1.5784,1.5784,1.5784,1.5784,1.5784,1.5784,1.5784,1.5771,1.5738,1.5598,1.5444,1.5444,1.5631,1.5744,1.5778,1.5611,1.5538,1.5751,1.5378,1.5082,1.5015,1.473,1.4436,1.4115,1.4088,1.4088,1.4088,1.4088,1.4088,1.4088,1.4088,1.4088,1.4088,1.4088,1.4088,1.4088,1.4088,1.4088,1.4088,1.4088,1.4088,0.0,0.0,0.0,0.0,0.0,0.0,1.1689,0.0,1.1866,0.0,0.0,0.0,0.0,0.0,0.0,0.0,0.0,0.0,0.0,0.0,0.0,0.0,0.0,0.0,0.0,0.0,0.0,0.0,0.0,1.4576,1.5291,1.5484,1.5658,1.5778,1.5784,1.5784,1.5784,1.5784,1.5784,1.5784,1.5784,1.5784,1.5784,1.5784,1.5784,1.5784,1.5784,1.6936,1.8772,1.9314,2.0629,2.2306,2.181,2.1168,2.0395,1.9177,1.8319,1.7638,1.7084,1.6433,1.5784,1.5784,1.5784,1.5784,1.5784,1.5784,1.5792,1.5625,1.5578,1.5538,1.5371,1.5451,1.5578,1.5578,1.5705,1.5784,1.5784,1.5784,1.5731,1.5611,1.5618,1.5591,1.5424,1.5498,1.5631,1.5758,1.5678,1.5691,1.5764,1.5618,1.5337,1.5042,1.485,1.4589,1.4128,1.4088,1.4088,1.4088,1.4088,1.4088,1.4088,1.4088,1.4088,1.4088,1.4088,1.4088,1.4088,1.4088,1.4088,1.4088,1.4088,1.4088,1.2061,0.0,0.0,0.0,0.0,0.0,0.0,0.0,0.0,0.0,0.0,0.0,0.0,0.0,0.0,0.0,0.0,0.0,0.0,0.0,0.0,0.0,0.0,0.0,0.0,0.0,0.0,0.0,0.0,0.0,1.4796,1.5117,1.5411,1.5705,1.5744,1.5784,1.5784,1.5784,1.5784,1.5784,1.5784,1.5784,1.5784,1.5784,1.5784,1.5784,1.5784,1.7203,1.9497,1.9497,2.0908,2.3091,2.3091,2.2536,2.1667,2.044,1.9222,1.8141,1.7824,1.685,1.5764,1.5684,1.5718,1.5764,1.5684,1.5718,1.5738,1.5571,1.5518,1.5444,1.5157,1.5297,1.5491,1.5418,1.5618,1.5784,1.5784,1.5784,1.5718,1.5558,1.5685,1.5758,1.5551,1.5518,1.5585,1.5751,1.5758,1.5738,1.5771,1.5691,1.5431,1.5055,1.4934,1.4636,1.4128,1.4088,1.4088,1.4088,1.4088,1.4088,1.4088,1.4088,1.4088,1.4088,1.4088,1.4088,1.4088,1.4088,1.4088,1.4088,1.4088,1.4088,0.0,0.0,0.0,1.363,0.0,0.0,0.0,0.0,1.2583,0.0,0.0,0.0,0.0,0.0,1.1369,1.1375,0.0,0.0,0.0,0.0,0.0,0.0,0.0,0.0,0.0,0.0,0.0,0.0,0.0,0.0,1.4442,1.4816,1.5156,1.5398,1.5678,1.5784,1.5784,1.5784,1.5784,1.5784,1.5784,1.5784,1.5784,1.5784,1.5784,1.5784,1.5784,1.7203,1.9497,1.9497,2.0908,2.3091,2.3091,2.3091,2.2906,2.1712,2.0486,1.9268,1.8095,1.685,1.5785,1.5504,1.5605,1.5724,1.5491,1.5605,1.5778,1.5771,1.5764,1.5752,1.5458,1.5598,1.5698,1.5464,1.5618,1.5784,1.5784,1.5784,1.5778,1.5771,1.5771,1.5778,1.5771,1.5764,1.5771,1.5784,1.5591,1.5511,1.5792,1.5337,1.5028,1.5015,1.4703,1.4409,1.4115,1.4088,1.4088,1.4088,1.4088,1.4088,1.4088,1.4088,1.4088,1.4088,1.4088,1.4088,1.4088,1.4088,1.4088,1.4088,1.4088,1.4088,0.0,0.0,1.4991,1.4359,0.0,0.0,0.0,0.0,0.0,0.0,0.0,0.0,0.0,0.0,1.1329,1.1169,1.0847,0.0,0.0,0.0,0.0,0.0,0.0,0.0,0.0,0.0,0.0,0.0,0.0,0.0,0.0,1.4122,1.4516,1.481,1.5291,1.5545,1.5545,1.5732,1.5784,1.5784,1.5784,1.5732,1.5545,1.5545,1.5438,1.5257,1.5257,1.6299,1.7962,1.7962,1.904,2.0728,2.0728,2.0728,2.0764,2.1159,2.0531,1.9182,1.6931,1.578,1.5244,1.5137,1.5304,1.5524,1.5424,1.5598,1.5744,1.5598,1.5404,1.519,1.489,1.5037,1.5231,1.5182,1.5478,1.5784,1.5784,1.5784,1.5784,1.5784,1.5784,1.5784,1.5784,1.5784,1.5784,1.5784,1.5698,1.5718,1.5764,1.5658,1.5391,1.5048,1.4921,1.4616,1.4128,1.4088,1.4088,1.4088,1.4088,1.4088,1.4088,1.4088,1.4088,1.4088,1.4088,1.4088,1.4088,1.4088,1.4088,1.4088,1.4088,1.4088,1.5784,1.5784,0.0,0.0,1.4095,0.0,1.2278,0.0,0.0,0.0,0.0,0.0,0.0,0.0,1.1688,1.2038,1.1147,1.0191,0.0,0.0,0.0,0.0,0.0,0.0,0.0,0.0,1.0133,1.1175,0.0,0.0,0.0,0.0,1.4062,1.4355,1.4937,1.5244,1.5244,1.5431,1.5524,1.5524,1.5524,1.5424,1.5244,1.5244,1.5137,1.5008,1.5008,1.5819,1.7199,1.7199,1.8121,1.9497,1.9497,1.9497,1.9579,2.0395,1.9813,1.8344,1.605,1.5117,1.4988,1.4843,1.5003,1.5224,1.5117,1.5364,1.5638,1.5451,1.5337,1.5204,1.491,1.505,1.5244,1.5137,1.5484,1.5784,1.5784,1.5784,1.5784,1.5784,1.5784,1.5784,1.5784,1.5784,1.5784,1.5784,1.5784,1.5784,1.5784,1.5784,1.5645,1.517,1.5117,1.4968,1.4442,1.4302,1.4289,1.4396,1.4439,1.4439,1.4439,1.4439,1.4439,1.4439,1.4439,1.4349,1.4242,1.4242,1.4188,1.4088,1.4088,1.4088]}]]